GFSWCAN_250_spd_000.txt.gz
Wind_Speed
61 59 56 56 61 66 68 67 64 73 71 66 63 58 58 61 53 56 53 49 48 47 44 42 41 39 38 36 34 32 32 34 35 34 34 34 33 34 35 37 39 40 41 43 44 46 44 46 46 51 57 59 62 66
57 55 56 58 61 63 63 63 68 73 70 65 61 58 58 62 55 55 53 50 48 47 44 44 44 41 39 36 33 32 33 35 35 36 36 35 36 37 39 40 43 45 48 49 51 51 50 49 53 59 63 65 69 71
59 57 54 54 57 60 56 59 71 69 67 62 61 59 59 60 57 56 55 52 50 49 46 46 46 43 40 37 35 36 37 38 35 37 38 39 40 42 43 45 48 50 49 50 51 54 57 59 61 66 66 69 73 75
54 54 54 53 53 53 52 63 70 66 64 60 59 58 60 61 56 51 52 53 53 51 50 48 47 45 44 43 42 40 39 40 40 40 40 39 40 41 43 45 45 51 57 58 57 60 61 65 69 69 71 74 78 81
55 53 52 51 51 52 56 67 67 65 61 57 55 55 62 61 57 52 51 53 55 53 51 50 51 49 49 48 49 49 47 47 47 47 48 48 48 49 49 51 57 64 63 62 61 65 66 70 72 75 78 81 83 84
53 49 50 48 49 53 61 65 64 61 56 52 51 56 62 61 59 54 51 50 50 53 51 50 50 51 52 52 52 53 54 54 52 52 52 53 55 55 53 55 66 70 68 69 69 71 72 74 76 80 84 85 83 84
49 46 44 50 56 60 63 64 61 59 54 50 48 54 61 61 59 56 53 54 51 50 51 51 51 51 51 52 55 56 57 58 57 57 59 62 64 62 60 60 73 73 73 76 78 78 78 82 81 83 83 85 87 87
43 45 46 54 58 62 65 64 60 57 54 49 46 50 60 62 61 57 58 56 53 51 51 50 50 52 54 56 58 59 60 61 61 62 62 64 63 65 64 71 75 78 79 80 81 82 81 80 81 83 84 84 87 90
40 43 48 56 61 63 64 62 58 57 53 50 47 46 55 58 60 61 59 56 55 57 58 57 57 60 60 64 65 66 65 65 64 64 67 68 66 68 72 74 75 76 77 77 79 81 83 83 83 84 87 89 92 94
44 46 53 55 61 62 62 61 61 57 54 53 51 48 47 50 52 54 56 56 55 55 56 61 65 67 69 71 71 72 71 69 66 68 71 70 68 72 76 77 78 80 81 81 81 82 83 86 88 91 94 95 98 101
51 54 57 59 60 60 62 59 58 57 57 56 56 54 54 54 53 53 53 54 55 55 55 58 62 67 71 73 75 76 75 74 71 72 74 71 72 76 77 79 79 80 82 84 87 90 92 93 96 98 101 103 106 108
51 54 56 58 57 57 61 60 59 57 55 54 54 54 53 54 53 52 50 52 54 58 59 64 67 69 68 70 71 72 75 75 74 74 74 72 73 78 79 81 84 87 90 93 96 98 100 103 105 106 107 109 109 109
51 54 55 56 56 58 59 57 57 56 55 56 56 56 53 52 50 49 50 53 57 59 61 64 67 68 69 71 73 75 76 75 75 74 75 78 82 84 86 89 92 94 96 98 102 104 106 109 111 112 115 114 113 114
51 55 56 55 57 58 59 58 58 57 58 59 59 58 58 57 56 56 57 60 60 61 62 64 67 68 71 72 74 76 77 78 79 82 85 90 92 92 94 95 96 99 102 103 107 110 112 111 111 111 110 107 105 105
55 55 55 56 59 58 58 58 59 59 60 62 64 65 63 64 64 64 65 65 66 67 69 70 72 74 77 80 82 83 85 87 89 91 92 95 97 99 101 102 103 108 110 109 109 108 106 105 104 104 104 106 107 108
52 54 56 55 55 58 60 63 64 63 64 63 63 65 67 69 70 70 71 72 74 75 75 77 78 80 82 85 86 88 90 92 95 98 101 103 104 106 109 109 106 105 105 104 104 105 105 106 106 107 108 109 107 104
52 55 55 54 55 58 60 62 63 65 70 70 70 69 71 72 73 74 76 77 78 79 81 84 85 87 89 91 93 96 98 97 99 103 109 111 109 106 105 104 107 106 105 106 107 107 109 110 110 108 104 97 93 90
58 58 57 57 59 61 61 61 62 65 69 71 73 74 77 79 80 76 76 79 83 86 89 89 90 92 94 97 98 99 102 105 105 106 110 110 107 106 106 105 106 107 110 112 112 110 107 103 98 95 94 92 91 90
63 62 62 62 63 64 64 65 67 67 67 69 69 69 69 70 73 77 78 80 82 85 87 88 90 92 93 95 97 100 103 106 104 103 102 102 103 106 107 109 110 109 106 103 99 98 98 97 94 91 90 88 86 86
68 70 67 65 66 66 67 67 65 66 67 67 68 70 71 72 74 77 77 78 81 82 85 87 89 89 90 92 95 97 101 104 106 106 107 106 105 102 100 98 98 98 97 96 95 94 91 89 86 84 82 81 81 81
66 67 69 69 69 67 68 69 70 71 71 71 73 73 74 75 77 79 80 82 83 86 89 91 93 94 95 97 98 98 97 96 97 96 96 95 93 93 93 92 90 88 86 86 84 83 81 80 79 79 79 80 78 76
66 68 68 68 67 69 69 72 74 76 76 76 76 76 77 78 78 78 80 80 80 82 85 87 88 88 89 89 88 87 87 88 88 86 85 86 86 85 84 83 82 81 80 79 77 77 77 77 77 76 74 73 73 73
64 65 66 68 69 70 72 74 75 75 75 76 76 76 77 77 77 77 76 77 79 81 83 84 84 84 83 82 79 79 79 80 82 82 81 80 79 78 78 77 77 77 76 75 75 75 75 73 71 70 70 69 67 67
64 64 66 68 69 70 73 74 73 74 75 76 76 76 75 76 74 73 72 73 75 77 77 79 78 76 75 76 76 75 76 76 76 77 78 78 77 75 74 74 73 73 72 72 71 70 69 69 68 67 66 64 64 63
65 66 66 67 69 71 72 73 74 74 75 73 70 70 71 71 70 68 69 71 74 73 73 73 72 72 70 70 71 73 74 74 74 74 73 72 70 69 68 68 68 68 67 67 66 66 65 64 63 63 63 62 62 62
63 63 64 64 66 67 65 65 65 66 66 66 65 65 66 66 66 65 68 68 68 69 69 67 66 68 68 69 68 69 69 69 68 66 66 64 63 63 63 64 63 62 61 61 61 62 62 62 61 62 62 61 59 58
56 55 55 57 58 59 59 59 60 61 62 62 63 63 63 62 64 65 66 66 65 64 64 64 63 63 64 65 64 63 62 61 60 59 60 61 61 61 60 60 59 59 59 59 59 58 59 60 59 59 59 57 55 55
51 53 54 54 54 54 55 56 57 57 57 58 58 58 57 56 56 57 58 58 58 58 58 58 58 58 58 58 58 58 57 57 58 58 58 58 58 56 56 56 56 57 57 57 57 56 56 56 56 55 55 57 56 55
43 44 44 46 46 46 46 46 47 48 48 49 49 50 50 50 51 52 52 53 54 54 55 55 54 54 55 55 56 56 56 56 55 55 54 53 52 52 53 53 53 54 54 53 52 53 53 53 53 54 54 54 54 55
38 38 40 40 41 41 42 42 43 44 44 45 46 46 46 46 46 47 47 48 49 49 50 50 51 51 51 52 52 52 53 52 52 52 52 51 51 51 51 52 52 51 51 51 50 49 50 51 50 49 50 50 50 50
33 33 34 35 36 36 36 37 38 39 40 41 41 41 40 41 42 43 44 44 44 45 46 47 47 49 49 50 50 50 50 49 49 49 48 48 50 50 49 50 50 50 50 50 51 50 49 48 47 47 46 46 46 45
29 29 29 31 32 33 33 34 36 37 37 38 38 38 38 39 40 41 41 42 43 44 44 45 46 46 46 47 48 48 48 48 49 49 48 48 48 48 47 48 49 50 49 49 47 47 47 47 46 45 46 45 44 43
27 29 29 29 29 29 31 32 33 34 35 36 36 36 36 36 38 39 41 41 41 42 43 44 44 45 45 46 46 47 48 47 47 47 47 46 46 47 47 47 47 47 46 46 46 46 45 45 46 45 44 43 42 42

GFSWCAN_250_spd_006.txt.gz
Wind_Speed
54 55 58 63 63 61 61 60 58 61 65 66 67 68 70 69 70 64 63 63 59 59 57 53 52 47 45 43 42 44 41 37 36 37 36 33 33 33 34 34 34 34 34 37 38 39 40 43 44 47 50 53 55 56
56 57 59 60 60 59 58 57 57 59 63 66 67 70 70 69 66 64 63 62 60 60 54 53 52 49 48 46 44 43 41 37 38 38 38 36 36 36 35 36 37 38 39 41 43 45 47 45 48 51 52 54 56 59
53 54 56 56 56 55 56 56 57 60 65 67 68 68 67 66 62 63 62 61 58 60 55 54 53 49 48 44 43 42 41 39 38 38 36 36 36 38 39 40 42 44 46 49 49 48 48 49 50 51 54 58 63 64
54 56 55 57 59 59 59 61 64 65 66 66 66 65 64 60 61 64 61 61 59 60 55 53 53 51 48 44 43 44 43 43 43 42 40 40 41 41 43 44 46 48 48 47 47 51 52 55 57 59 63 67 68 69
56 56 54 54 57 58 59 62 64 64 65 64 61 60 59 59 64 60 62 61 60 59 56 55 55 54 50 48 46 45 46 45 42 41 40 40 41 41 41 41 44 47 48 51 53 56 58 62 65 67 70 72 74 75
59 60 57 56 57 58 58 57 58 58 58 55 54 51 55 61 60 57 61 59 60 59 58 55 54 54 53 50 48 47 44 43 43 43 42 42 44 46 46 48 51 54 56 55 57 63 67 68 71 72 75 76 76 79
53 54 54 54 53 52 50 49 51 51 51 50 50 54 59 61 57 54 61 58 58 55 55 56 57 54 54 52 50 48 47 46 45 46 47 50 51 51 52 54 59 62 63 65 68 70 72 74 75 77 78 78 81 84
51 51 51 50 48 47 47 48 49 50 49 47 48 57 62 61 58 56 64 62 58 53 53 56 55 56 55 55 53 50 49 50 51 53 54 55 55 56 57 61 63 66 69 72 76 76 77 79 80 80 82 85 87 85
44 46 47 47 49 48 46 45 41 42 42 45 49 58 59 54 56 53 58 64 57 53 52 54 57 57 57 58 57 56 57 56 55 55 56 57 59 62 65 67 69 71 75 78 80 81 81 82 84 86 87 86 87 90
43 45 43 43 42 42 43 42 37 39 38 43 49 55 55 54 56 53 54 61 59 54 53 56 59 60 60 60 60 60 58 57 57 59 59 60 61 67 70 73 75 77 79 81 81 83 85 87 86 85 87 90 91 91
34 33 34 34 33 33 36 38 39 42 38 43 50 55 55 55 55 52 51 57 61 57 54 56 59 62 64 63 63 61 59 60 59 61 63 62 63 69 73 75 77 78 81 84 86 85 85 85 88 90 91 93 97 100
29 32 32 30 30 29 35 39 42 42 40 44 51 55 52 49 53 53 50 50 56 61 61 61 61 61 61 61 61 59 61 63 62 65 67 66 69 73 75 77 79 81 80 80 82 84 87 90 91 94 97 100 103 106
33 33 33 30 26 28 33 36 39 42 45 47 49 52 53 50 47 49 52 55 57 62 68 69 68 66 66 68 68 67 66 66 67 67 68 71 76 77 79 81 80 80 82 84 86 88 90 93 97 100 104 106 109 110
37 35 37 35 33 30 34 37 39 44 47 49 53 54 54 51 50 54 55 55 56 59 62 65 69 72 71 71 70 71 71 71 72 72 75 79 81 80 78 79 81 83 84 86 89 93 97 99 102 104 107 109 110 109
36 36 37 39 38 37 37 40 42 46 49 51 52 50 48 49 51 51 53 53 51 50 50 52 56 61 66 70 72 72 72 71 72 73 74 74 76 78 80 82 84 87 89 93 96 99 103 104 105 106 105 106 108 108
36 33 33 36 36 37 38 41 43 46 48 49 49 49 51 51 52 54 54 55 56 57 57 58 59 60 61 63 64 66 69 69 72 74 76 77 79 82 85 88 90 94 97 101 103 104 106 105 105 105 106 107 107 109
36 34 35 38 40 41 43 46 47 49 51 51 52 55 57 56 58 58 59 60 60 61 63 63 65 67 68 70 71 73 75 76 77 79 81 82 85 88 92 95 98 101 102 103 105 104 103 104 104 105 104 105 106 104
36 37 41 41 42 44 47 49 52 53 52 52 54 56 59 63 64 65 65 65 66 67 68 69 69 70 72 74 75 76 77 79 82 86 90 93 95 96 97 99 101 102 103 103 103 103 104 104 104 105 105 103 101 98
39 41 43 45 45 49 52 54 58 58 58 58 57 58 60 63 64 65 67 68 70 71 71 72 73 75 77 78 80 82 85 89 90 91 94 96 97 98 100 101 102 102 103 104 104 102 101 101 103 102 99 94 92 90
35 36 42 47 49 51 52 55 58 59 61 63 64 64 64 65 68 70 70 71 72 74 76 78 79 80 83 86 88 88 90 93 95 97 97 96 98 100 101 101 101 102 102 103 103 101 101 99 96 94 90 88 88 87
48 46 46 47 51 54 56 57 58 60 61 63 66 68 70 71 71 71 71 74 75 77 79 80 82 83 83 84 86 88 89 90 92 94 96 98 99 100 101 102 101 101 100 99 98 95 92 89 88 87 86 86 83 80
56 53 52 52 52 56 58 58 60 61 62 64 66 68 69 70 72 73 75 75 76 77 78 78 80 82 83 85 87 89 90 91 92 93 94 94 96 96 96 96 95 94 92 90 88 85 85 86 86 84 81 78 74 71
58 59 58 57 58 58 60 60 62 64 65 67 67 68 69 71 72 74 74 75 76 77 78 79 79 79 81 82 83 85 87 88 88 90 92 91 89 89 88 86 85 84 83 82 83 83 83 80 78 75 71 69 68 68
49 50 54 59 62 63 64 65 67 67 66 66 67 67 68 70 71 73 74 74 75 76 77 78 79 80 81 82 83 86 87 89 87 84 83 84 83 81 80 80 80 81 81 80 78 75 73 71 68 66 67 66 65 64
49 51 51 53 54 55 58 62 65 67 69 70 70 70 72 71 71 70 71 72 73 73 73 74 76 77 79 79 80 81 81 80 79 78 78 77 76 76 76 75 74 72 71 70 69 66 65 64 64 63 62 62 62 61
47 49 49 49 51 53 54 57 58 59 59 60 62 63 64 63 64 65 66 66 66 66 67 68 69 71 71 73 74 74 73 73 73 72 70 69 68 68 68 67 66 65 64 63 62 61 61 60 60 60 59 59 59 58
39 41 42 41 42 44 45 45 45 48 50 52 54 56 57 59 60 60 60 62 62 62 63 63 64 66 67 69 69 68 66 64 63 63 62 61 61 61 60 58 57 57 57 57 58 59 59 59 58 58 57 57 56 55
39 41 43 42 43 43 44 45 46 48 49 49 50 51 52 52 54 55 56 57 57 57 57 57 56 56 57 58 58 58 58 58 57 56 55 55 55 55 55 55 55 55 55 55 55 55 56 56 56 56 54 53 53 53
38 40 42 42 43 43 44 45 45 46 46 47 47 47 48 48 48 49 49 49 49 50 51 51 51 51 51 52 52 52 52 52 52 52 51 51 52 53 52 53 53 53 53 52 52 53 53 52 52 52 52 52 52 52
33 34 34 35 36 37 37 37 37 37 38 39 40 40 40 41 42 43 43 44 45 46 47 47 47 47 47 47 48 48 49 50 50 51 51 52 51 51 51 50 50 50 50 49 48 47 47 49 50 51 51 50 48 48
29 29 29 29 30 31 33 34 35 37 36 37 37 37 37 37 38 39 39 41 43 44 44 45 45 45 45 46 47 48 49 49 49 48 48 48 47 47 46 46 46 46 45 45 46 46 46 46 46 45 44 45 45 45
26 27 28 28 28 29 30 30 32 33 34 33 33 34 34 35 37 38 39 40 41 41 42 43 44 45 45 46 46 46 46 46 45 45 45 44 43 44 44 44 45 46 45 45 44 43 42 41 41 41 41 41 40 41
24 25 25 26 26 27 28 29 31 31 32 32 32 32 33 34 35 36 38 39 40 41 42 42 42 42 42 42 42 42 42 42 42 42 42 42 41 41 41 42 42 42 42 41 41 41 41 41 41 40 40 39 39 39

GFSWCAN_250_spd_009.txt.gz
Wind_Speed
40 42 44 45 46 49 51 54 56 60 66 71 68 69 67 67 69 66 62 63 65 65 58 55 55 56 54 49 47 44 43 40 41 39 35 35 34 34 34 36 37 37 37 39 40 41 41 43 43 47 47 50 53 55
43 44 45 49 51 56 61 65 65 64 64 67 69 69 71 71 70 66 60 64 62 64 56 53 52 55 53 54 54 46 45 43 42 37 38 35 37 38 37 38 38 39 40 42 44 44 43 44 47 49 52 56 57 56
47 50 52 56 59 60 63 63 63 65 66 64 66 69 72 72 67 65 60 63 59 58 54 55 56 55 54 52 49 48 44 43 43 41 40 37 39 41 41 40 40 41 43 43 45 46 47 50 53 55 57 56 58 60
53 53 56 57 59 57 58 59 60 62 63 63 65 69 68 65 65 66 59 62 63 54 53 52 55 56 53 52 51 46 45 46 45 43 42 41 41 42 43 42 43 44 44 46 48 51 51 54 54 55 59 59 61 66
51 52 52 53 55 56 58 60 61 62 62 62 61 63 66 68 66 66 60 58 57 56 54 55 57 58 53 54 52 49 48 47 46 46 45 42 42 42 43 44 46 48 48 49 48 48 52 55 56 59 60 64 69 73
50 50 49 49 51 51 52 53 56 58 58 61 65 66 68 68 64 59 53 53 55 52 54 54 56 57 52 53 53 51 50 49 48 48 48 47 47 47 47 48 48 48 48 48 52 57 60 61 61 65 67 71 75 80
47 48 49 50 51 52 54 56 57 62 65 68 71 69 68 63 59 56 56 55 53 54 56 53 57 57 54 55 55 53 52 50 50 50 49 50 50 49 47 48 48 53 55 58 61 63 64 68 68 71 74 77 81 84
43 44 45 45 48 51 54 58 62 63 64 66 64 61 60 59 60 58 57 55 55 57 57 55 53 58 55 53 53 56 55 53 51 50 50 50 50 51 51 53 58 62 65 64 67 69 72 73 76 80 80 83 85 88
45 44 45 46 46 47 50 56 59 59 56 54 55 58 57 54 52 50 54 58 54 59 59 55 53 54 56 55 55 57 57 56 54 54 54 54 53 54 60 64 67 68 69 69 72 73 75 79 82 83 85 86 88 92
44 45 45 44 45 48 50 52 52 50 52 50 50 51 51 53 53 53 60 58 52 49 52 52 54 56 55 55 56 56 57 58 58 59 59 58 58 62 67 70 70 71 72 73 73 76 80 82 83 84 87 91 91 89
45 45 47 46 44 39 44 47 46 48 49 46 46 46 46 51 52 57 58 54 48 49 52 52 52 54 56 56 56 56 58 59 58 60 61 61 62 70 75 77 76 74 74 76 79 82 83 85 87 89 92 91 91 93
39 38 40 42 42 42 43 43 43 40 43 42 42 44 41 51 54 56 55 50 45 45 52 55 56 58 59 59 59 59 60 62 60 62 64 63 66 73 77 77 77 78 79 81 84 86 87 89 91 92 92 93 95 98
33 33 33 34 34 34 35 37 37 35 36 37 38 43 45 51 55 54 53 52 52 53 54 57 61 63 62 61 60 60 61 62 64 64 65 65 73 78 77 78 79 80 82 85 86 88 91 92 91 92 95 98 101 105
29 29 29 29 31 30 30 31 34 36 38 39 39 40 44 50 53 56 55 56 55 57 56 56 57 60 65 68 68 67 66 67 67 67 68 75 78 79 79 80 82 84 86 89 91 91 90 92 95 98 101 104 107 111
32 31 30 29 29 29 28 28 30 36 41 43 43 42 47 52 57 59 59 58 59 60 62 62 60 59 62 64 67 71 72 73 74 74 78 80 81 82 84 86 88 91 91 88 88 91 94 97 100 103 106 110 113 115
33 33 33 32 32 30 29 28 26 31 38 43 44 45 49 54 58 61 62 62 61 60 59 59 60 61 62 64 67 68 70 68 70 72 75 77 80 82 84 84 84 85 88 91 94 97 100 103 106 109 111 112 114 112
33 34 33 31 32 33 35 36 35 34 33 35 39 43 49 55 58 60 60 59 58 58 58 58 59 62 64 66 65 65 66 67 68 68 70 73 76 79 81 84 87 91 94 97 100 102 106 109 110 111 112 111 109 108
33 33 34 36 35 34 36 37 37 37 36 38 40 43 46 50 54 57 59 59 59 60 62 64 65 66 67 68 69 70 71 73 75 76 78 80 83 86 89 92 95 98 100 102 104 107 110 111 111 110 109 108 108 106
40 38 37 39 37 37 38 40 41 42 43 44 46 48 50 53 56 58 60 62 63 64 65 66 68 70 72 73 74 75 77 79 81 84 86 88 90 92 95 98 100 103 105 107 108 110 110 108 107 107 107 105 103 102
45 42 42 40 40 41 43 43 44 46 48 50 52 53 55 58 60 62 63 65 67 69 70 72 73 75 77 80 82 84 85 87 88 90 92 94 96 98 100 103 104 105 107 107 106 106 106 105 105 102 100 101 100 98
52 47 47 45 46 47 46 47 49 50 51 54 56 58 59 60 62 63 65 66 68 70 73 75 77 78 80 82 84 85 87 89 91 93 95 97 99 100 102 104 104 105 105 105 104 104 101 99 98 98 99 97 95 94
53 56 55 52 51 51 52 51 52 55 57 58 59 61 63 65 67 69 70 71 72 74 75 77 78 80 83 86 88 90 92 93 94 97 98 99 99 100 101 101 101 101 101 100 99 96 96 96 95 94 92 91 89 86
61 58 60 60 59 58 57 53 54 55 57 60 62 64 66 68 69 71 73 74 76 78 80 81 83 85 87 88 90 92 93 95 95 95 97 97 98 99 99 98 97 95 93 92 92 93 93 91 90 88 85 82 81 79
61 65 61 60 64 64 64 64 62 61 61 60 61 64 67 69 70 72 73 76 78 78 79 80 81 81 82 84 86 88 89 90 91 93 94 95 91 90 88 86 85 84 85 85 84 84 82 80 79 78 77 76 75 73
55 56 55 60 63 64 66 66 68 67 66 67 67 68 69 70 71 72 74 75 77 78 78 79 81 83 85 86 86 87 87 86 86 85 86 87 87 86 84 82 81 78 76 74 73 73 72 72 72 71 70 69 68 67
49 49 49 50 52 54 56 57 58 61 64 64 65 67 68 68 70 71 71 71 72 72 73 74 75 76 78 79 80 81 83 83 83 83 83 83 82 80 78 74 72 71 70 68 68 68 68 67 66 65 65 64 64 63
36 36 35 35 38 40 42 44 45 47 48 51 52 54 55 56 58 60 61 63 65 67 68 69 71 71 72 73 75 76 76 77 77 77 76 74 72 70 69 68 68 67 66 66 65 65 64 64 63 61 61 60 59 59
31 33 36 37 38 39 41 43 45 46 47 49 51 53 55 57 58 60 61 61 62 63 64 64 64 65 66 67 68 68 68 67 67 67 67 67 67 66 65 65 65 64 62 62 61 61 60 59 59 59 58 57 55 54
38 39 40 40 41 41 43 45 46 47 48 49 50 52 53 53 54 55 56 57 57 57 57 58 59 59 58 58 58 58 59 60 61 62 62 62 62 62 61 60 59 58 57 56 56 56 56 56 55 54 54 54 54 54
38 39 40 41 41 42 42 43 44 44 44 45 46 46 46 46 47 47 48 49 50 50 51 52 53 53 54 54 54 55 55 55 55 56 56 55 54 54 54 54 54 53 54 54 52 52 53 53 53 53 53 53 52 51
35 35 35 35 35 36 36 36 37 37 37 38 39 40 41 42 43 44 45 46 47 48 48 49 49 50 50 51 51 51 50 50 49 49 48 48 48 48 48 49 49 50 51 51 51 51 51 51 51 51 50 49 48 47
30 30 31 32 34 34 35 35 35 36 37 37 37 37 39 40 41 41 41 42 43 43 44 44 45 45 45 45 45 45 44 44 44 45 45 46 47 48 49 49 49 49 48 48 48 48 47 46 45 44 44 44 44 44
29 29 30 30 30 31 31 32 33 33 33 32 32 34 35 36 36 36 37 37 38 39 39 39 40 40 41 42 43 44 45 46 47 47 47 47 46 45 45 45 45 45 45 44 43 42 42 43 43 42 41 41 41 40

GFSWCAN_250_spd_012.txt.gz
Wind_Speed
30 33 35 37 39 43 48 52 56 59 59 58 56 58 65 65 58 57 57 48 45 53 57 54 54 55 50 47 49 50 49 50 46 44 43 42 38 37 35 31 30 31 34 37 38 38 38 41 43 47 47 49 51 53
33 35 38 42 46 48 50 51 51 52 55 58 62 70 72 61 60 62 65 68 64 57 61 49 48 51 50 51 52 51 49 52 51 45 41 42 38 37 37 35 33 34 35 37 39 38 40 42 46 48 49 54 55 56
38 38 39 38 39 42 44 47 53 58 62 66 67 68 67 65 59 63 66 69 72 46 49 55 55 53 50 49 48 49 50 50 49 42 45 41 40 38 38 38 37 37 38 39 42 44 43 45 49 49 50 54 54 58
40 43 43 44 46 50 52 55 59 62 66 69 66 64 68 65 66 65 64 52 59 57 52 52 52 49 51 47 51 53 51 49 51 48 43 42 43 42 40 39 40 40 42 42 46 47 47 50 47 49 54 54 53 57
40 42 46 48 50 54 57 61 64 66 67 65 68 68 66 66 62 62 50 53 58 58 52 52 55 51 49 47 48 51 51 53 50 46 44 43 45 46 43 42 42 43 44 48 50 48 53 52 50 53 51 54 61 66
46 49 49 52 53 54 57 59 61 63 64 65 64 65 66 67 68 64 53 57 55 58 57 57 53 52 48 47 48 50 54 53 50 46 45 46 49 48 46 47 47 46 49 49 50 53 55 55 52 55 60 64 68 72
48 51 52 52 53 53 53 58 60 62 61 61 62 63 65 69 70 64 47 55 56 56 59 52 52 49 46 45 47 49 54 53 51 50 50 50 50 49 51 52 48 52 52 53 55 57 54 56 58 63 68 72 75 78
43 44 46 47 48 49 50 51 52 54 55 58 60 61 64 60 68 58 53 55 59 58 58 49 45 48 46 45 48 49 52 53 52 53 53 53 54 53 53 53 56 58 59 58 58 59 61 64 68 73 75 78 80 82
37 39 41 42 43 45 46 49 52 52 51 53 55 59 64 64 68 58 55 56 55 53 51 48 46 43 45 45 48 52 55 53 53 54 55 56 56 53 53 57 60 62 63 59 62 65 69 73 76 78 79 81 84 87
33 32 34 37 41 44 44 46 49 50 54 56 57 60 64 63 67 61 54 55 52 52 52 51 46 44 45 47 48 52 56 56 53 54 55 55 56 57 60 63 66 68 68 68 68 70 74 77 80 82 85 87 89 90
34 33 31 33 36 39 41 42 45 49 53 57 62 64 63 62 60 56 53 52 51 50 50 52 51 49 46 47 48 51 52 56 54 52 52 54 58 64 69 72 74 73 74 74 74 76 78 81 83 86 88 90 91 92
31 31 31 31 31 34 38 41 44 46 52 55 58 57 53 50 50 51 51 51 51 51 53 51 49 50 49 48 51 53 54 54 51 54 56 55 56 64 68 73 74 73 73 75 76 78 81 84 87 90 91 92 94 97
31 29 28 30 31 33 36 39 42 44 47 48 48 49 51 50 48 46 46 45 46 46 48 49 52 51 51 52 54 57 57 55 55 56 56 54 64 68 71 73 74 75 76 78 81 84 86 89 90 92 94 96 99 101
31 30 31 30 27 28 34 38 42 41 43 44 44 43 43 43 44 43 44 49 52 51 51 52 53 53 54 56 57 59 59 59 58 57 58 64 68 71 73 74 75 78 80 82 84 86 88 91 94 97 99 100 99 100
26 26 27 31 31 30 32 34 36 38 40 41 43 44 41 45 48 47 47 49 53 53 55 59 59 57 58 59 60 62 63 64 65 65 70 73 75 76 78 79 82 84 85 89 90 93 94 95 96 95 96 99 102 106
30 30 30 31 31 31 32 34 35 38 39 39 37 40 44 43 47 51 49 50 52 55 57 60 63 65 64 63 63 62 62 60 60 65 67 69 73 75 78 81 83 85 87 89 88 88 89 91 94 98 101 105 108 111
30 32 32 31 31 32 33 34 33 34 37 39 43 43 44 45 46 48 51 54 57 61 64 66 67 68 67 67 65 64 65 66 67 68 70 73 75 77 79 80 81 82 83 85 88 92 95 97 100 104 108 110 111 114
31 32 33 33 32 33 35 37 38 37 36 37 38 42 46 48 48 49 49 53 59 64 67 69 71 70 69 68 67 68 69 70 71 72 74 75 77 79 81 83 85 88 90 92 95 98 100 103 106 109 110 112 112 113
33 32 34 33 33 33 33 33 36 38 40 42 41 41 43 46 52 55 57 58 60 63 67 69 70 72 72 72 72 73 75 75 76 77 79 81 83 85 86 89 91 93 95 98 100 102 104 105 106 108 111 112 112 113
37 37 38 38 38 37 37 38 40 39 38 40 42 43 45 47 48 49 51 54 57 61 64 66 69 71 73 75 77 78 79 80 81 83 85 86 88 90 92 94 96 98 99 101 104 104 106 109 110 111 111 112 111 109
45 44 44 45 46 45 43 42 43 44 44 43 44 47 49 50 52 53 55 57 59 62 65 68 71 74 76 78 80 81 83 84 86 88 90 91 92 94 95 97 99 101 103 105 108 108 108 109 110 109 108 106 106 104
54 51 51 49 53 53 52 50 51 50 50 50 50 51 53 54 55 57 58 61 63 66 69 71 73 75 77 80 81 83 84 86 87 89 90 92 94 96 98 101 103 104 105 106 105 106 106 104 103 102 101 101 99 98
61 60 56 55 58 59 61 59 58 58 57 58 58 58 59 60 61 62 63 64 66 68 70 73 75 77 79 81 83 84 86 88 90 92 93 94 97 99 100 102 102 102 101 101 101 102 102 99 98 96 94 91 89 87
63 66 68 64 63 66 65 66 67 65 65 64 63 63 64 64 65 65 65 67 69 70 72 74 76 78 80 82 84 86 88 89 91 93 93 94 95 96 96 97 99 99 98 96 94 91 89 86 84 82 81 80 80 79
62 63 64 65 65 64 66 68 67 66 66 67 68 68 69 68 67 67 68 69 71 72 72 73 75 76 78 79 81 83 85 87 88 89 89 90 92 94 95 95 94 92 90 88 86 84 82 79 77 77 76 74 74 73
59 61 62 63 65 65 65 66 66 68 70 73 71 70 70 71 73 75 76 79 80 78 76 77 78 79 80 80 81 81 83 85 86 87 89 90 89 89 88 86 87 87 85 83 80 78 76 75 74 72 71 70 70 70
46 48 48 49 49 51 53 54 55 56 57 59 60 63 66 68 69 69 68 68 67 68 70 72 74 75 76 76 77 78 79 79 80 81 82 83 83 83 83 82 81 79 78 77 75 74 73 72 70 69 69 68 67 66
34 33 35 35 37 39 41 44 47 49 52 55 56 58 59 59 61 62 64 64 65 67 68 69 69 71 72 73 74 74 75 75 75 74 74 74 74 73 72 72 73 72 71 71 70 70 69 68 68 67 66 65 63 61
34 36 37 39 41 42 44 46 48 49 51 52 53 55 56 58 58 59 60 61 62 62 63 64 64 65 65 65 65 64 64 64 64 64 64 65 66 67 66 66 66 66 66 66 66 65 65 64 63 61 60 59 59 58
38 39 40 40 41 42 42 43 44 45 46 47 48 49 50 51 52 52 53 53 54 54 54 54 53 54 54 55 56 57 58 59 59 59 60 60 60 61 62 62 62 62 61 61 60 59 59 58 58 57 56 56 56 56
36 36 37 37 38 38 38 38 38 38 38 38 38 39 40 41 43 43 45 46 47 47 48 49 50 51 52 52 53 54 54 54 55 55 56 56 56 56 56 56 57 57 57 56 55 55 54 54 54 54 54 53 52 52
30 31 32 33 34 34 34 34 34 35 36 36 36 37 39 41 41 42 42 43 44 44 45 46 47 48 49 49 50 51 51 52 51 51 51 51 52 52 53 52 52 52 52 52 52 52 51 50 49 49 48 48 48 47
29 30 31 31 31 31 31 32 33 34 33 34 34 35 36 38 38 39 39 40 40 41 42 43 44 45 45 46 46 46 48 48 49 49 50 50 50 49 50 49 49 49 48 48 47 47 47 47 47 46 45 44 44 44

GFSWCAN_250_spd_015.txt.gz
Wind_Speed
21 25 29 33 40 42 42 44 48 52 56 62 65 65 61 57 58 61 62 73 78 77 73 72 73 69 68 64 56 53 47 56 44 39 40 44 46 44 42 41 39 36 33 30 31 34 38 39 40 41 42 43 45 47
22 23 27 33 38 42 41 43 49 54 56 57 62 62 58 57 55 52 53 57 64 65 71 70 69 69 61 52 44 46 49 50 47 43 45 45 48 44 43 41 41 39 36 33 32 34 37 38 39 42 42 45 48 48
26 30 35 39 42 44 43 46 49 50 52 58 60 59 61 57 51 48 47 46 46 47 31 44 44 51 39 36 43 49 45 46 41 41 45 46 46 46 44 42 41 41 40 37 36 38 38 37 41 42 46 49 51 53
28 31 35 39 42 43 45 47 48 51 52 59 63 68 64 62 60 49 47 39 35 46 40 41 26 31 33 40 29 46 44 44 44 43 47 48 49 47 46 42 42 42 42 41 43 42 40 41 43 47 50 53 53 57
33 35 37 37 37 40 42 45 50 55 61 70 74 74 73 70 67 59 41 29 16 33 42 27 32 36 39 48 55 56 47 46 49 50 48 47 48 49 48 45 45 43 42 46 43 44 42 43 46 49 52 55 56 60
37 37 38 42 46 49 50 53 61 68 74 75 76 77 74 73 78 63 42 43 43 40 46 40 38 47 50 51 48 47 44 42 48 46 43 46 49 51 49 47 45 46 49 49 46 45 47 49 51 55 57 59 61 62
40 41 42 43 45 50 55 62 65 68 70 73 73 71 66 68 70 85 68 66 51 47 46 44 48 52 51 48 46 45 47 47 44 46 45 47 50 52 50 47 47 48 52 52 53 52 53 54 58 60 60 62 64 66
44 45 43 45 47 50 55 59 64 68 71 74 77 77 74 76 75 73 67 54 42 49 52 54 52 53 49 50 51 47 45 46 44 44 47 50 53 54 51 48 51 52 53 54 58 59 59 60 63 65 66 66 70 74
44 45 46 45 46 52 57 57 60 63 64 66 75 84 92 92 77 87 72 60 62 60 57 57 55 55 54 56 52 50 49 47 46 45 46 51 52 54 51 54 58 57 56 57 61 64 65 65 65 68 71 74 77 81
40 42 47 47 46 47 47 47 51 55 58 63 69 66 64 64 82 89 86 76 60 55 55 56 53 52 55 54 50 51 51 49 48 46 48 50 50 52 54 58 61 62 60 62 65 67 69 70 71 74 76 79 82 86
35 34 39 42 42 43 45 45 44 44 50 55 55 56 57 63 64 67 60 54 59 58 55 56 57 56 52 52 50 51 51 51 50 48 48 47 49 53 54 58 61 62 65 67 70 72 73 74 76 78 78 80 82 85
31 32 34 35 37 38 41 43 44 46 44 44 52 58 66 66 61 54 52 52 55 58 54 55 56 56 53 49 49 47 49 51 52 50 48 41 47 55 58 61 63 66 66 68 68 68 68 70 73 76 80 82 84 87
25 26 28 29 30 30 31 33 38 43 46 50 57 63 64 62 59 50 43 45 47 54 57 56 54 54 54 55 54 54 54 54 53 50 48 44 50 55 59 63 65 67 70 70 69 71 73 75 78 82 84 88 91 95
25 24 23 22 25 27 31 33 34 37 39 44 48 52 56 49 54 58 54 51 47 51 54 55 53 53 55 57 59 59 60 57 55 56 54 55 59 61 63 64 66 68 71 73 75 77 78 82 86 88 91 93 92 93
20 20 21 20 20 24 27 28 32 37 40 42 45 48 51 52 51 54 56 56 49 47 48 49 51 53 55 57 57 58 60 60 56 54 59 62 64 66 66 68 71 73 75 78 80 81 84 86 87 88 90 91 93 95
16 16 19 19 19 19 21 24 28 32 34 36 40 43 45 46 47 48 49 50 52 52 51 52 54 55 58 59 60 59 61 60 61 62 64 66 68 70 71 72 73 75 76 78 80 83 84 86 89 91 93 95 98 100
20 20 21 22 23 23 22 24 28 32 33 36 39 43 45 48 49 51 51 52 54 55 55 56 57 58 61 64 64 64 64 65 67 67 68 68 68 70 72 74 77 80 81 83 86 87 89 91 93 95 97 99 103 106
25 24 25 26 27 29 29 29 31 33 35 37 39 42 46 47 48 50 52 51 52 54 58 61 62 62 62 63 64 66 67 67 68 71 73 76 78 79 80 81 83 86 86 87 90 92 93 96 99 101 103 105 107 109
29 29 30 29 30 33 34 35 36 38 40 41 41 43 47 49 50 52 54 57 59 60 60 60 61 62 64 66 68 69 71 73 74 76 79 80 82 83 85 86 87 89 92 94 96 98 99 101 104 106 107 107 107 107
33 34 34 34 33 36 38 38 39 41 44 46 48 48 49 50 49 48 50 53 56 59 61 63 66 67 68 68 68 69 71 74 77 80 82 84 86 87 89 91 93 95 97 99 100 102 103 104 104 105 105 106 106 106
42 44 42 41 39 38 39 40 40 40 42 45 46 49 53 56 56 57 58 57 57 59 62 65 68 71 73 75 76 77 78 78 80 82 84 86 88 90 92 94 95 97 99 100 101 101 101 102 104 104 105 105 104 104
43 44 46 47 45 45 45 44 45 46 47 47 49 50 51 53 55 55 54 57 59 61 62 64 66 69 71 72 74 74 75 77 79 81 83 85 88 90 92 93 96 98 99 100 101 102 102 101 102 104 104 102 102 101
49 49 52 53 55 55 55 53 53 53 54 54 56 57 57 57 57 57 59 60 60 60 62 64 67 69 71 72 74 76 77 79 82 84 86 88 90 91 93 94 95 97 98 98 99 100 101 100 99 98 98 95 93 91
57 58 57 58 60 62 61 61 62 61 60 61 60 60 62 62 63 62 63 63 65 66 66 67 68 70 72 73 75 76 77 78 80 82 83 85 87 89 90 91 92 93 95 96 97 97 97 96 95 93 90 86 83 80
60 62 61 64 65 63 64 65 66 64 64 64 65 66 66 65 66 68 68 68 69 68 68 68 70 71 73 74 75 77 78 79 81 83 84 85 88 89 90 90 90 91 92 92 91 89 89 88 86 83 81 78 77 77
59 62 63 64 63 65 68 67 66 66 68 68 66 68 71 71 71 72 72 72 72 72 73 73 72 72 72 73 74 75 78 80 82 83 83 84 85 86 87 87 86 83 84 85 85 83 81 80 78 77 77 75 74 73
45 47 49 50 52 53 55 55 56 58 59 62 63 66 68 69 71 71 71 71 71 71 71 71 71 72 71 72 73 74 75 77 79 79 79 81 81 81 80 80 80 80 80 79 77 76 75 75 75 73 72 71 69 68
44 44 46 45 46 45 45 46 48 50 51 53 54 57 58 58 60 62 63 64 64 64 65 66 67 67 68 68 69 71 72 74 74 75 75 75 75 73 72 72 72 72 72 72 72 72 71 70 69 67 66 66 65 64
40 39 39 39 40 42 43 44 45 46 48 49 50 51 52 53 54 56 56 57 57 58 59 60 61 62 63 64 65 66 67 67 66 65 64 65 68 68 67 67 67 67 66 66 66 65 64 64 64 64 64 63 62 60
35 35 37 39 39 40 40 41 41 43 45 46 47 47 48 49 50 50 51 51 52 53 54 54 54 55 56 57 57 58 59 60 60 60 60 60 61 62 62 62 62 61 61 60 61 60 60 60 60 58 58 58 58 57
36 37 36 35 35 35 35 36 38 38 38 39 39 39 40 40 41 43 44 45 46 47 48 48 50 50 51 52 54 54 53 54 54 55 55 56 56 56 57 57 57 57 58 58 57 57 56 56 55 54 53 52 52 51
32 31 31 31 32 32 33 33 32 33 34 32 34 36 38 38 38 40 40 40 40 41 43 44 44 45 46 47 48 49 50 51 51 51 52 51 52 52 53 54 54 54 54 54 53 52 51 51 50 50 49 48 47 46
27 28 28 29 30 30 30 31 31 31 30 31 31 31 33 35 35 35 35 36 37 37 38 40 41 42 43 44 44 45 46 47 48 49 50 51 50 49 49 49 49 48 48 49 49 48 47 47 46 46 46 45 44 43

GFSWCAN_250_spd_021.txt.gz
Wind_Speed
11 19 25 29 33 38 42 45 47 49 51 56 60 64 66 66 66 65 66 72 75 81 98 97 92 84 84 77 70 64 67 66 60 57 54 51 49 50 50 48 46 40 38 37 37 34 36 37 36 37 38 37 35 36
11 17 22 28 32 37 41 43 46 48 52 56 59 62 63 64 64 63 63 67 74 86 88 98 90 89 85 77 74 69 64 58 60 60 57 55 54 51 48 51 47 42 42 39 37 37 40 43 42 41 41 40 40 40
12 15 23 27 31 35 37 40 41 44 47 50 53 56 56 56 61 63 65 68 71 80 86 92 91 89 89 80 73 69 66 62 61 59 58 56 55 55 52 51 49 43 43 42 40 42 41 44 44 44 46 46 45 45
16 18 21 25 30 34 36 38 39 41 43 46 50 53 55 58 63 66 64 65 73 83 85 87 93 89 83 79 76 68 62 62 62 62 60 58 55 57 58 51 46 44 44 42 42 45 44 45 48 48 48 48 49 50
16 20 24 27 31 34 36 39 41 43 43 43 47 52 55 59 61 65 67 68 74 75 78 81 86 85 79 75 73 70 68 63 62 64 62 58 55 56 53 51 47 44 45 45 45 47 47 47 47 49 50 51 52 53
18 23 26 27 28 32 35 35 35 37 41 44 47 49 50 55 60 68 71 70 69 76 80 78 76 77 78 73 70 67 62 64 63 56 56 58 58 57 58 48 43 45 48 47 48 49 51 50 51 51 52 53 55 56
24 27 30 29 30 33 34 34 36 39 43 45 47 50 53 57 58 58 60 62 65 60 65 72 70 65 64 63 64 59 53 51 50 50 51 56 54 53 42 35 43 47 47 48 50 52 53 54 53 54 56 57 58 60
26 26 28 32 33 33 36 39 42 46 49 54 57 60 62 65 68 69 65 60 61 65 68 68 65 63 62 56 52 38 31 34 35 39 44 46 51 51 45 43 52 54 52 53 54 55 57 55 55 56 59 61 63 64
26 28 31 33 37 41 45 49 54 58 61 65 65 66 66 66 62 59 59 59 60 60 61 65 62 59 53 48 41 43 29 35 50 49 49 46 36 49 46 49 51 50 51 52 54 55 57 58 60 62 64 66 67 68
31 33 35 37 39 45 50 55 60 63 66 68 69 71 71 66 63 59 54 52 50 52 54 55 57 50 50 44 61 58 58 62 61 58 56 47 50 52 42 42 47 53 56 58 56 57 60 60 62 65 68 70 71 72
33 33 34 38 43 51 58 64 67 69 72 75 78 76 71 67 65 60 56 56 55 51 48 51 60 64 57 41 46 63 64 67 62 57 56 51 51 48 49 53 54 56 57 58 60 62 62 63 65 67 68 70 71 74
45 44 48 51 56 62 66 70 74 75 74 76 75 69 68 65 60 55 54 51 54 55 60 65 66 66 65 60 51 49 58 63 62 59 54 50 50 54 59 61 62 64 63 64 65 66 66 68 70 71 72 74 75 77
42 49 48 55 59 60 63 67 68 71 71 75 82 75 73 69 63 57 61 64 63 65 66 62 60 62 58 62 60 59 57 63 66 64 60 56 58 60 62 65 67 67 68 71 72 74 72 73 73 76 77 77 79 81
46 43 47 50 51 57 61 65 71 66 73 74 72 72 67 69 68 61 59 60 62 63 63 61 60 61 59 57 60 58 53 56 65 69 65 64 65 64 66 68 68 70 72 74 74 76 76 75 75 78 78 80 82 84
49 48 43 49 52 52 59 61 58 64 65 65 64 69 68 70 66 62 61 64 64 62 60 57 62 65 63 63 63 58 55 55 54 58 63 66 66 68 71 73 73 73 75 77 79 80 81 83 86 87 86 87 88 89
53 49 43 40 41 41 37 39 37 33 45 49 52 45 54 61 63 61 65 62 65 65 62 61 58 62 62 59 60 62 63 60 60 63 65 69 71 74 75 75 76 77 78 80 83 86 87 88 90 89 90 91 92 92
57 53 44 34 22 20 24 19 20 10 29 27 18 38 26 39 58 61 51 54 61 61 63 59 55 58 58 59 62 64 64 66 70 70 70 71 73 77 78 79 79 80 81 83 87 87 89 90 90 90 90 91 92 93
58 58 53 45 37 35 26 32 22 17 25 33 19 27 29 25 32 47 49 39 49 55 58 58 58 56 56 60 66 68 68 69 70 70 71 73 75 77 80 82 82 83 86 88 91 92 91 91 92 93 92 92 94 96
39 45 51 51 46 41 39 40 32 35 30 32 36 30 38 35 35 43 53 48 44 47 61 61 62 64 67 66 67 68 69 69 68 70 71 73 76 78 80 82 84 86 88 90 91 92 93 94 95 96 97 98 99 99
28 29 31 34 38 40 42 44 44 49 49 51 50 48 46 47 46 43 46 52 54 55 59 64 68 73 74 73 71 71 73 74 76 79 82 82 80 82 85 87 89 90 91 92 94 96 98 98 97 97 96 94 93 92
28 30 32 32 33 33 33 34 36 38 41 42 42 43 46 47 48 50 51 54 58 61 62 68 71 74 77 78 79 79 76 75 76 78 80 83 84 84 84 86 88 91 92 92 92 93 93 92 90 89 89 88 89 91
31 32 33 34 35 36 37 40 42 44 45 45 46 47 48 50 51 52 53 55 57 60 63 65 68 70 72 73 75 76 78 80 81 83 83 85 87 88 88 87 88 89 88 87 86 87 88 89 89 89 90 91 92 92
38 39 39 39 40 42 43 45 46 48 50 50 52 54 56 57 58 58 60 61 63 65 67 70 71 73 75 76 77 79 81 82 83 83 83 84 84 85 86 87 87 88 89 88 88 88 89 89 89 91 91 91 92 91
42 44 46 48 48 48 49 50 51 52 54 54 56 58 59 60 62 63 65 66 67 69 72 74 75 76 76 76 77 79 80 81 83 85 86 87 88 88 87 87 87 87 88 88 88 88 89 88 88 88 86 84 83 83
46 46 46 47 48 50 51 52 53 55 57 58 58 58 59 57 57 56 56 58 62 65 67 70 72 75 77 78 79 80 81 82 81 81 82 83 85 86 87 87 87 87 87 86 85 84 82 81 81 82 81 79 77 76
48 49 50 51 51 50 49 49 49 50 52 54 56 58 58 57 56 57 59 60 62 64 66 68 69 71 73 75 78 79 79 79 80 79 79 79 80 79 78 77 76 75 76 76 76 76 76 76 75 74 73 73 73 73
49 49 48 45 45 46 48 49 50 52 53 54 55 55 53 51 52 56 59 61 63 64 65 66 66 66 65 65 64 63 63 63 64 65 66 66 66 67 68 69 69 70 70 70 70 70 70 70 70 70 70 69 67 67
46 45 44 41 40 41 42 44 45 46 47 49 50 51 51 53 53 53 53 53 53 53 53 53 52 52 53 53 54 55 56 57 58 59 60 62 63 63 64 64 64 64 64 64 65 65 64 64 64 64 63 63 63 61
43 42 40 40 41 41 42 42 42 43 44 45 46 46 47 47 46 47 47 47 47 47 48 49 48 48 49 50 51 52 53 54 54 54 54 54 55 56 58 59 59 60 60 60 60 60 61 61 61 62 62 60 60 59
39 38 38 37 38 39 39 40 40 41 42 42 42 42 42 42 43 43 44 44 44 44 45 44 44 44 44 45 45 46 47 48 49 49 50 50 51 52 53 53 54 54 55 56 58 58 57 56 55 55 55 55 55 55
35 35 36 37 37 37 37 36 36 36 36 36 36 37 38 39 39 39 39 39 39 39 40 41 42 42 42 43 43 43 44 45 46 46 47 48 49 49 50 51 52 53 53 53 53 53 53 52 52 51 51 50 50 49
36 35 34 34 32 31 32 33 32 30 30 30 31 33 35 35 35 35 35 35 35 36 37 37 38 39 39 39 40 40 41 41 42 43 44 45 46 48 49 49 50 51 51 51 51 51 51 50 49 48 47 47 46 46
30 29 28 28 28 28 28 28 29 29 28 29 30 31 32 32 33 33 33 33 33 33 34 34 35 35 36 36 37 38 39 40 41 43 44 44 44 45 45 45 45 45 46 46 47 47 47 47 46 46 45 44 43 42

GFSWCAN_250_spd_024.txt.gz
Wind_Speed
2 7 14 21 27 33 36 39 42 45 47 50 50 52 57 62 66 66 67 72 72 81 90 92 88 82 75 72 66 65 70 65 61 58 54 46 48 49 48 47 47 50 52 50 52 45 38 39 36 39 39 37 37 34
4 7 14 20 25 29 33 37 39 42 44 47 48 52 56 61 63 64 66 68 71 81 86 91 87 82 77 76 76 72 64 58 52 55 53 49 49 47 47 49 49 52 54 52 52 47 45 44 40 41 42 41 39 38
7 10 15 20 24 27 30 34 37 40 42 45 47 51 55 59 62 65 66 69 69 76 85 91 91 85 83 81 76 70 63 57 54 54 54 53 53 54 54 53 55 56 54 51 48 45 45 47 46 43 45 45 44 44
10 13 18 21 23 27 30 32 34 37 40 41 44 49 52 57 62 64 64 67 71 77 82 87 93 88 87 85 78 68 65 61 56 56 56 56 57 58 58 56 56 55 54 49 48 49 50 47 46 44 45 45 46 47
12 16 18 20 23 26 28 30 32 35 38 40 43 48 54 59 63 63 67 69 70 75 81 85 88 91 88 85 80 70 64 64 60 58 57 60 61 62 57 57 57 56 56 52 51 53 48 46 45 47 47 47 47 50
16 19 22 23 25 26 27 28 31 33 36 40 43 46 51 57 61 63 64 68 72 75 83 88 86 90 90 86 80 73 67 64 65 62 62 61 58 59 57 54 57 58 57 53 52 50 48 45 45 48 47 47 49 52
19 21 25 28 29 30 31 33 36 38 40 42 43 45 49 52 57 59 59 59 64 69 73 81 80 79 86 90 84 79 73 69 66 67 62 62 61 60 58 56 58 60 58 59 52 47 46 47 47 49 49 50 51 53
21 26 26 27 29 29 29 31 35 38 40 43 45 47 51 56 62 67 68 67 66 69 74 74 75 74 68 75 81 79 75 71 72 70 70 69 67 66 61 58 59 57 57 53 48 49 50 51 54 53 51 52 52 54
20 23 28 30 30 30 30 33 36 38 39 41 43 46 51 58 64 65 67 67 65 62 61 61 62 66 66 64 65 72 72 68 67 65 62 62 62 58 49 43 47 51 52 52 54 55 57 57 56 53 53 54 56 57
21 23 26 29 31 33 35 37 39 41 42 45 50 55 60 63 64 67 66 63 61 60 59 57 61 62 63 60 61 63 66 68 62 58 57 54 48 50 50 45 48 51 54 58 63 63 59 55 53 57 59 60 61 62
24 25 26 29 33 37 39 40 40 41 40 42 46 48 49 52 56 57 54 55 56 60 62 60 60 60 58 61 60 58 60 58 55 52 52 38 34 38 45 53 53 58 59 59 58 57 54 54 59 62 64 67 68 70
28 27 29 31 33 37 40 45 47 48 49 49 46 45 49 52 53 53 51 48 48 52 57 57 59 55 58 55 52 51 51 52 54 53 48 45 38 47 50 52 56 63 67 62 56 58 63 66 67 69 71 73 75 78
28 26 30 36 40 42 47 53 54 56 54 57 59 58 55 53 50 47 40 38 41 45 46 48 51 57 64 62 54 49 50 53 51 47 51 54 59 63 66 66 63 64 64 62 65 67 69 69 71 73 77 80 82 82
30 27 32 38 43 46 45 48 55 58 59 59 59 60 59 59 56 54 50 47 46 47 49 52 50 52 57 57 60 60 58 61 57 57 57 62 67 70 67 62 64 69 70 69 69 70 71 72 75 79 81 84 85 87
35 35 31 36 37 43 48 49 52 55 57 56 56 57 54 54 55 56 56 56 56 56 55 54 57 66 62 64 65 61 67 72 70 64 58 63 70 72 73 73 74 76 78 78 77 79 81 82 83 85 87 89 90 93
34 31 29 35 28 31 40 49 43 46 50 54 52 47 56 56 56 56 58 57 55 54 56 57 57 67 65 64 66 66 63 68 75 74 77 80 75 69 71 75 78 81 84 84 85 87 87 88 90 90 92 94 96 98
27 24 29 28 21 22 26 34 41 40 37 42 44 39 45 48 60 50 50 57 59 59 59 63 59 61 68 67 68 72 71 71 70 70 72 72 71 73 73 72 72 73 76 79 82 85 88 89 91 95 97 98 100 98
22 17 35 11 8 28 25 8 18 24 7 16 31 12 15 20 41 21 26 59 54 52 58 68 64 65 66 69 72 73 74 78 78 75 76 76 76 76 77 76 76 75 78 81 86 89 91 93 95 96 96 95 96 97
34 29 30 20 20 22 30 10 14 20 5 20 26 19 15 35 49 38 21 18 31 53 49 47 56 68 68 68 70 71 73 72 72 77 79 79 76 76 77 79 82 84 85 86 86 87 89 90 93 92 93 95 98 99
41 40 35 29 32 29 30 23 18 21 21 19 21 22 26 23 30 49 42 40 38 39 39 37 44 46 45 50 57 61 68 70 72 72 74 75 77 79 82 81 86 87 87 87 92 92 91 92 94 95 97 98 99 101
36 40 43 41 42 43 42 39 39 38 38 40 38 37 36 40 41 40 45 46 49 58 55 52 54 59 63 62 62 61 62 65 71 77 81 82 83 86 92 94 93 90 93 98 97 94 92 93 94 95 98 102 103 103
50 47 44 40 39 38 40 43 46 48 46 44 43 42 41 42 46 50 54 56 58 59 63 64 65 67 65 69 74 73 74 76 76 77 80 82 86 88 88 89 91 92 91 91 92 93 94 96 99 101 103 103 103 103
40 40 41 41 42 43 44 45 45 46 46 47 47 47 48 48 49 49 51 51 53 56 59 61 62 62 63 65 68 71 73 75 77 78 80 82 84 85 86 87 88 89 90 92 93 95 96 97 97 98 99 101 102 102
39 41 42 44 46 48 50 51 52 53 54 55 56 56 57 58 60 61 62 62 63 63 64 65 66 68 69 70 72 73 75 77 79 80 82 84 85 87 88 90 91 92 92 94 95 95 96 97 99 100 98 96 93 90
44 44 46 48 50 51 52 53 55 56 58 59 60 61 63 63 63 63 64 65 66 66 68 69 71 73 75 77 79 81 84 86 88 90 89 89 89 88 89 90 91 92 92 94 95 95 95 92 89 86 83 83 82 81
48 50 51 52 53 56 58 60 62 64 64 64 64 62 61 60 59 61 63 64 65 68 70 72 73 74 75 76 78 79 80 80 82 83 83 84 85 86 88 88 87 85 84 83 82 81 79 78 78 78 78 77 76 76
53 53 54 55 56 57 59 62 63 64 64 64 64 63 62 63 63 64 65 65 66 67 68 70 70 72 73 74 74 74 73 72 70 69 69 69 69 69 70 71 71 72 72 73 73 72 72 72 72 72 72 71 70 69
52 53 54 55 57 59 59 60 59 57 57 57 58 61 62 62 62 61 60 58 57 56 56 56 56 56 56 56 57 57 57 58 59 60 61 62 63 64 65 66 66 66 66 66 67 67 67 67 67 66 66 66 66 65
53 54 55 57 56 55 52 51 50 50 52 54 56 57 59 58 58 57 55 53 52 51 51 52 51 51 51 51 52 53 54 54 55 55 55 56 57 58 59 59 60 61 61 61 60 61 61 61 62 63 63 62 62 62
49 50 50 50 50 49 48 49 49 50 51 50 51 51 51 51 50 50 50 50 51 50 48 47 47 48 48 48 49 49 49 48 48 49 50 51 52 53 53 53 54 55 56 56 57 57 58 58 57 57 57 58 57 57
50 49 47 45 44 44 44 44 43 43 43 43 44 44 44 44 44 44 44 44 43 42 41 41 42 43 43 44 44 45 45 45 45 46 47 47 48 48 49 50 51 52 53 53 53 53 53 53 53 52 52 52 52 52
44 43 42 40 39 38 39 37 37 38 37 37 37 37 37 37 37 37 38 37 37 37 37 36 36 37 37 38 39 40 41 42 43 44 44 45 46 47 47 49 49 49 49 49 50 50 50 49 49 49 48 48 47 47
39 38 37 36 36 36 35 34 34 33 32 31 32 33 33 33 33 33 33 32 33 33 33 34 34 34 34 35 36 37 37 39 40 41 42 43 44 44 44 45 45 46 46 46 45 45 45 45 45 44 43 42 41 42

GFSWCAN_250_spd_030.txt.gz
Wind_Speed
27 23 20 16 14 14 17 20 23 29 33 37 40 42 42 46 48 45 46 49 52 57 63 69 78 84 89 91 88 88 88 86 78 70 64 71 67 62 63 59 55 53 50 46 48 44 43 48 43 39 37 38 38 35
20 17 13 9 8 12 17 21 25 30 35 39 42 43 45 45 43 46 47 50 53 59 65 72 75 81 83 88 91 83 79 80 69 66 65 67 61 63 57 58 56 54 51 52 51 45 45 46 44 44 44 40 42 42
14 10 7 3 5 11 19 24 29 33 37 42 43 44 43 43 45 46 51 55 60 64 70 75 80 83 87 88 86 83 80 72 70 74 77 76 68 62 59 58 56 54 53 50 50 47 48 47 44 48 46 43 47 46
8 5 2 5 10 14 20 27 33 37 40 41 42 42 42 44 46 50 53 56 60 65 68 72 76 80 86 87 84 81 76 74 75 73 67 65 65 63 61 59 57 55 55 50 52 50 53 49 47 49 49 50 51 50
5 6 6 10 16 19 23 28 32 36 37 38 39 39 39 42 46 49 54 57 59 65 70 73 77 80 86 84 82 79 73 72 73 68 66 64 64 61 60 61 55 54 54 53 52 58 53 49 50 52 53 55 54 55
8 12 12 16 20 24 27 29 33 35 37 38 38 40 42 43 47 50 53 57 64 71 74 77 78 85 88 84 80 75 72 74 71 66 64 63 62 62 59 54 56 56 56 54 56 58 55 55 54 55 57 59 58 56
12 16 18 21 23 25 27 30 31 33 35 36 39 41 44 47 51 55 60 63 67 70 72 74 81 87 88 84 80 76 74 73 72 67 62 63 65 62 58 52 55 55 57 59 58 59 59 60 55 58 59 61 62 60
14 19 20 22 24 26 27 27 28 29 31 34 37 39 42 47 49 51 53 58 65 71 76 80 85 88 87 87 81 78 76 72 66 62 60 60 62 58 55 55 58 59 59 60 62 60 59 62 58 60 64 65 65 65
17 20 22 23 24 26 27 28 29 29 30 32 35 37 40 44 48 51 54 61 68 71 73 74 80 85 87 91 79 77 76 70 66 63 59 56 55 51 53 57 60 61 60 60 59 57 58 61 62 63 65 69 69 69
22 22 23 24 26 26 28 29 30 30 30 29 30 34 37 41 43 49 55 61 63 62 66 68 78 84 83 82 76 74 73 66 64 65 60 50 53 58 58 60 61 60 60 58 58 59 61 62 62 65 69 70 70 71
25 25 25 25 26 26 25 25 27 29 29 30 31 31 33 37 43 48 50 51 56 59 61 72 82 81 80 78 71 70 73 68 69 65 59 53 56 56 56 58 60 61 62 61 62 60 61 65 68 68 71 75 70 73
27 28 28 28 28 27 28 28 28 28 28 29 29 30 32 37 39 43 48 51 58 63 64 78 85 85 83 77 73 73 69 66 66 65 60 58 60 60 59 60 62 63 63 62 62 64 67 72 73 74 75 74 78 81
30 31 30 29 30 30 31 33 33 33 31 31 31 33 36 37 39 41 43 46 52 54 59 70 82 82 82 78 72 66 63 67 66 66 63 62 64 65 65 64 64 63 63 63 65 69 72 73 74 76 74 81 82 81
36 34 32 31 30 29 31 32 32 32 34 35 36 37 38 40 42 44 45 45 49 54 61 67 71 76 75 75 70 63 66 68 66 66 67 68 69 68 68 68 68 69 70 70 70 73 75 74 76 78 78 77 77 71
38 37 36 34 34 32 35 35 35 34 36 35 36 42 43 42 42 41 42 43 47 51 56 61 66 69 69 72 70 67 70 71 69 69 69 69 69 70 71 72 73 76 77 77 77 77 75 75 78 77 75 77 77 78
41 37 38 37 37 34 37 40 39 36 35 36 37 38 39 38 39 40 41 43 46 49 54 59 60 63 66 67 67 68 71 71 73 74 73 73 73 74 74 75 74 76 75 75 76 77 78 79 80 80 81 83 82 86
34 31 36 41 38 40 38 39 40 37 35 37 39 38 36 34 36 38 40 43 46 47 49 50 54 59 63 66 67 70 75 69 69 70 71 72 72 71 71 75 77 77 77 79 80 81 81 82 83 85 89 90 91 94
34 33 36 37 31 35 32 34 35 34 29 32 33 33 34 29 30 30 28 29 32 34 39 45 50 56 60 65 67 67 67 68 70 72 69 69 73 75 78 78 80 83 84 83 80 78 80 82 87 90 90 93 94 95
29 33 29 25 30 28 24 23 29 27 30 24 23 29 30 26 24 26 21 26 28 31 37 40 43 46 50 53 56 59 60 61 61 61 63 66 70 70 72 74 75 78 80 81 82 84 87 90 91 93 96 99 101 103
21 21 20 21 22 24 25 22 21 18 15 13 20 17 15 12 11 20 20 24 27 26 26 36 41 43 44 48 49 51 53 56 61 64 69 72 73 74 76 78 78 80 82 84 87 89 91 91 92 95 98 101 105 108
10 13 10 12 11 12 10 11 10 9 7 7 7 4 3 7 6 9 10 10 16 24 29 30 32 34 39 45 52 54 59 58 63 68 68 70 75 77 77 78 81 84 88 90 88 88 89 93 97 100 103 104 104 104
10 3 1 5 3 5 7 5 7 10 7 9 10 16 17 14 18 17 19 20 24 29 31 35 39 42 46 51 53 56 57 60 66 69 69 74 71 73 75 80 77 78 79 82 89 92 93 95 98 100 99 102 103 104
18 20 18 13 16 16 15 18 20 17 20 21 23 26 25 26 28 32 32 31 36 45 49 52 53 54 55 57 58 61 63 66 69 71 75 77 78 79 82 82 84 85 88 92 94 96 96 96 97 98 98 98 96 95
17 17 17 18 18 20 20 22 23 25 26 27 32 35 38 40 43 46 50 51 49 48 50 51 53 55 59 62 64 65 67 69 70 72 73 75 77 79 80 82 84 85 86 86 87 88 89 91 92 92 91 91 91 89
25 26 27 28 28 29 30 32 33 34 37 40 43 45 49 52 52 54 55 55 56 57 58 60 61 62 63 64 65 67 68 70 71 72 73 74 75 77 78 79 80 81 82 83 83 83 83 83 83 82 82 82 83 82
34 35 36 37 38 40 41 44 48 50 52 53 54 56 56 56 58 59 59 60 60 60 61 61 61 62 64 66 68 69 71 71 71 71 71 71 71 72 72 72 72 72 72 72 72 72 73 73 74 74 74 74 75 75
44 44 46 48 48 49 50 52 54 55 57 58 58 59 59 60 60 60 59 58 54 52 52 52 54 56 58 60 59 59 60 61 61 61 62 62 63 63 63 64 65 65 66 67 67 67 68 68 69 69 69 70 70 70
51 51 51 52 53 54 55 56 57 58 59 58 58 59 60 61 59 56 52 50 49 49 49 50 51 51 51 50 50 50 50 50 51 53 54 54 55 57 58 59 60 61 61 62 62 63 63 63 63 63 63 63 63 63
52 52 54 55 56 57 57 58 58 58 59 59 59 60 60 56 53 50 49 48 48 47 46 45 44 43 43 43 43 43 44 44 45 45 47 48 49 49 50 51 51 52 52 53 53 54 54 55 56 57 58 58 59 58
54 55 56 57 57 58 58 58 58 59 59 59 58 58 55 52 49 47 46 45 44 43 42 41 40 39 40 40 40 40 40 40 41 41 42 42 43 44 45 45 46 47 47 48 50 51 52 53 54 54 54 54 54 54
57 56 56 56 56 56 57 57 55 55 55 55 53 50 47 45 44 44 43 41 40 38 38 38 38 38 38 38 37 37 37 37 38 39 39 40 41 42 43 44 45 46 47 47 48 49 49 49 49 49 49 49 48 49
56 56 56 56 55 53 52 51 51 50 49 47 46 45 43 42 41 39 38 38 38 37 37 37 36 35 35 35 35 36 36 36 37 37 38 39 40 41 41 42 43 44 44 44 43 44 44 44 44 44 45 45 45 45
51 49 48 48 47 47 46 46 45 45 44 43 41 39 38 37 37 38 38 37 37 35 35 34 34 34 34 34 34 34 35 36 37 37 38 38 40 40 40 40 40 40 40 41 40 40 40 41 41 42 41 40 40 40

GFSWCAN_250_spd_033.txt.gz
Wind_Speed
38 37 33 26 23 22 22 22 24 27 29 33 38 40 43 46 47 46 48 51 53 53 53 55 58 57 60 64 69 66 77 80 79 73 70 71 65 62 65 68 66 70 64 60 58 56 52 63 56 47 48 48 44 41
32 29 22 18 15 14 15 15 21 24 28 32 35 38 40 43 45 48 51 51 51 52 51 54 54 58 60 65 66 71 68 75 69 71 70 68 62 65 68 72 69 71 62 64 54 54 62 56 51 50 50 49 46 46
24 20 15 12 10 9 11 15 20 23 27 29 32 36 41 44 47 48 50 51 49 50 53 55 58 60 63 64 64 70 75 74 74 72 74 74 72 74 69 73 72 75 65 63 59 58 60 58 53 50 53 52 47 46
17 14 10 7 4 5 9 15 20 24 27 31 35 39 43 45 47 49 48 50 51 52 54 57 60 62 63 63 63 66 73 76 73 71 71 70 70 69 66 68 71 72 68 61 55 58 58 57 57 54 52 52 50 49
12 9 6 2 4 7 12 17 23 27 31 35 39 40 42 44 46 47 48 50 50 52 56 58 57 57 56 58 60 67 69 69 69 67 63 61 65 67 64 63 59 66 65 56 52 65 65 58 54 52 53 55 54 51
5 4 4 7 10 14 18 21 25 29 32 34 37 40 43 44 45 45 45 47 51 53 53 52 51 52 54 59 63 66 69 72 68 65 67 68 67 60 60 60 60 63 66 65 60 65 58 58 57 60 59 56 55 55
5 8 8 12 17 20 24 28 33 35 34 35 37 39 41 42 41 44 50 52 51 49 47 47 51 53 58 60 63 66 69 69 68 68 71 66 64 64 64 60 64 65 65 64 63 62 61 61 61 60 60 59 59 58
11 13 16 17 20 23 27 30 31 32 35 36 36 36 38 42 45 45 45 44 45 46 48 52 54 57 58 63 66 67 69 68 67 67 63 63 68 69 64 66 70 65 63 65 65 63 64 65 63 63 64 61 61 60
16 18 18 20 22 23 25 28 30 32 34 35 35 36 37 38 38 39 40 42 44 46 49 51 56 59 62 65 66 68 67 64 66 64 61 66 72 70 70 72 72 66 67 68 67 67 65 63 64 62 65 62 61 61
19 22 23 24 25 25 26 27 28 30 31 31 31 32 33 36 37 37 40 42 43 44 50 53 57 62 66 67 67 66 64 63 58 65 68 64 66 67 70 75 75 71 69 71 70 66 65 64 64 64 61 64 66 64
25 26 28 27 26 27 27 26 25 26 27 28 29 29 30 31 33 33 35 36 40 48 57 60 62 67 70 69 67 65 65 64 65 68 68 68 66 59 67 70 71 72 72 73 71 69 68 67 65 64 69 68 68 71
27 27 28 30 30 29 28 27 27 27 26 27 26 26 26 26 30 30 33 37 41 49 52 54 60 62 64 71 72 73 70 66 70 67 68 66 63 63 63 67 75 76 76 74 71 70 67 63 65 70 70 69 71 75
30 30 29 29 30 29 28 28 28 26 26 26 24 24 24 26 26 27 30 35 40 42 46 54 61 66 64 59 70 68 70 67 66 67 63 63 63 61 61 63 69 71 69 68 68 67 68 68 68 70 72 74 75 76
34 31 31 30 29 28 27 28 29 28 27 28 29 28 28 28 31 30 30 34 40 47 52 57 62 64 61 54 59 63 64 62 64 64 64 65 65 65 64 62 61 62 64 64 65 66 67 68 70 72 74 76 76 77
36 36 34 33 31 29 28 27 26 25 23 26 27 28 29 28 29 30 30 32 39 44 51 58 63 62 60 59 60 58 60 61 59 62 67 68 68 68 67 66 67 66 67 68 69 70 72 73 75 76 77 78 81 84
40 39 36 34 33 33 33 32 32 32 31 31 30 28 28 28 30 32 33 36 41 47 50 56 62 65 66 63 62 59 59 61 64 64 65 67 71 74 75 74 72 71 72 73 75 76 77 79 81 83 84 86 89 91
38 39 38 36 34 35 35 33 33 35 36 35 36 32 29 29 30 31 32 34 39 43 48 57 66 69 68 68 66 64 63 60 63 64 64 68 70 72 73 73 74 76 77 78 80 81 83 85 88 90 91 92 91 92
39 37 36 36 34 35 33 34 34 34 35 34 34 33 33 31 29 31 33 35 36 39 42 48 57 67 70 71 71 68 66 67 69 69 70 72 73 74 76 76 75 77 78 80 82 85 88 89 90 90 91 93 94 97
33 33 34 34 34 34 29 28 29 29 31 32 27 24 23 23 23 23 24 26 29 33 35 37 43 50 58 62 66 69 72 73 74 76 76 76 76 77 79 80 80 79 81 83 85 86 89 91 92 94 97 97 98 98
32 32 31 29 28 29 32 27 23 23 22 26 24 22 21 20 20 20 19 21 24 26 30 34 39 44 49 54 59 64 67 71 74 76 78 79 79 82 83 83 84 84 84 86 87 90 90 90 90 91 93 94 95 95
23 23 22 23 22 18 23 24 25 22 19 18 16 16 14 12 11 13 9 8 17 23 25 26 29 36 40 45 51 56 62 66 71 74 76 78 79 82 83 84 85 85 85 84 85 85 85 84 83 84 84 87 91 93
14 13 12 12 13 12 13 12 10 9 11 11 9 8 6 7 8 8 8 10 13 14 17 21 24 25 26 35 43 47 51 54 58 62 65 66 68 72 75 78 79 79 79 79 80 83 85 87 88 89 90 91 92 95
8 11 11 7 8 10 10 3 4 3 4 5 5 7 10 11 14 16 18 20 22 26 29 31 32 34 37 41 46 52 55 58 61 64 67 70 72 73 75 76 78 81 82 84 86 87 88 89 91 92 92 92 92 94
18 17 17 14 12 14 12 9 9 9 13 17 16 18 20 22 25 28 29 32 35 38 42 45 47 51 56 59 58 59 62 64 67 69 71 74 76 78 79 80 81 82 83 84 85 86 87 87 88 90 90 90 90 90
17 17 13 11 11 13 14 14 16 18 20 22 24 26 29 33 35 37 39 43 47 50 53 55 58 61 62 63 64 65 65 66 67 69 71 73 74 75 77 78 79 79 79 80 80 79 78 79 80 80 80 80 80 80
11 14 16 19 21 23 26 27 29 31 32 34 36 39 42 44 45 48 50 51 54 57 59 61 63 64 64 64 64 63 65 67 70 71 71 70 68 68 67 66 66 68 69 70 70 71 71 71 72 73 73 73 72 72
23 25 28 31 32 34 35 37 39 40 42 44 46 48 50 53 54 55 57 56 57 59 59 58 56 54 54 56 58 61 63 63 64 64 63 63 63 63 63 64 64 64 64 64 65 66 66 66 66 66 67 67 67 67
35 37 39 40 41 43 44 46 47 49 50 52 53 55 56 56 56 56 55 56 56 54 53 50 50 50 51 52 52 52 53 53 53 54 54 55 55 56 56 56 57 58 58 59 59 59 59 59 60 60 60 61 61 62
44 46 47 48 49 50 50 51 52 53 55 56 55 54 54 54 54 54 54 54 52 50 49 48 47 46 46 45 44 43 43 43 43 44 45 45 46 47 48 49 50 51 51 52 52 53 53 53 53 53 54 55 55 55
48 49 50 51 51 52 53 54 55 56 55 54 54 53 52 53 53 52 51 49 47 46 45 43 40 39 38 38 39 39 39 39 40 40 41 42 42 43 43 44 45 46 46 47 47 47 48 49 49 49 50 50 50 51
52 52 52 53 54 53 52 52 52 53 52 51 50 51 52 51 48 47 44 42 41 39 38 37 37 37 36 36 36 36 36 36 37 37 37 37 38 38 39 40 41 42 43 44 45 45 46 46 46 46 47 46 46 46
56 56 55 53 52 53 52 50 48 48 48 49 49 46 44 44 42 39 38 37 37 36 36 35 34 34 35 35 34 33 32 32 32 33 34 35 35 36 37 38 39 40 40 41 40 41 41 42 41 42 43 42 43 43
53 51 50 49 47 47 46 45 45 45 42 42 41 39 38 36 36 36 35 35 34 34 34 34 34 33 32 31 31 32 32 32 33 33 34 34 35 35 35 36 36 36 37 37 38 38 38 38 38 39 39 40 40 40

GFSWCAN_250_spd_036.txt.gz
Wind_Speed
51 48 45 44 40 36 36 33 34 35 36 37 39 41 43 45 46 48 55 49 48 51 51 50 55 59 62 65 55 55 62 54 55 62 68 66 69 74 78 80 84 91 93 90 86 79 66 61 64 60 51 58 48 48
41 39 36 32 29 28 26 27 28 28 28 31 34 36 39 41 43 43 42 43 46 48 50 53 56 55 52 54 59 55 47 56 56 60 66 71 71 75 68 67 75 77 77 77 74 57 57 65 64 63 57 56 53 53
32 29 25 22 21 18 16 17 19 21 23 24 28 31 34 35 37 41 44 47 47 48 52 54 51 49 50 52 54 47 49 53 59 65 71 69 70 73 67 64 64 65 60 54 55 57 60 55 66 62 57 55 59 50
25 20 17 14 12 10 10 10 13 17 20 21 26 30 34 38 41 43 43 42 45 47 47 48 49 45 47 46 45 47 50 54 61 60 62 59 65 67 64 61 60 58 55 55 62 63 61 70 69 64 59 52 54 52
17 15 11 10 9 6 5 7 12 17 20 23 26 30 33 35 39 41 43 44 44 43 42 43 42 46 47 46 49 52 53 50 48 51 52 55 62 65 60 56 54 54 54 62 61 64 70 72 63 59 55 52 55 53
13 11 10 8 3 2 6 10 15 19 22 25 28 28 30 32 34 35 35 38 38 38 39 42 47 46 43 46 49 52 49 53 61 59 56 59 61 58 55 57 59 60 63 68 67 71 68 67 67 67 63 58 57 57
10 10 8 6 7 7 11 14 17 20 23 26 28 29 30 32 34 35 35 35 37 38 41 42 40 38 41 45 47 46 47 47 45 45 57 62 63 58 59 61 64 65 66 71 71 68 67 69 65 65 62 62 60 60
7 7 7 9 11 13 17 21 22 22 22 24 27 29 31 32 35 35 34 35 35 35 36 35 38 39 42 44 44 45 46 52 53 59 64 64 63 62 64 65 68 66 65 71 69 65 66 68 70 70 66 61 62 62
8 8 10 13 15 16 18 22 25 26 28 28 28 30 33 36 37 36 36 36 34 34 35 33 35 38 41 41 41 45 50 50 50 57 59 61 62 62 63 68 68 66 61 60 65 68 69 67 67 70 76 70 70 72
12 13 16 18 19 20 21 22 23 25 26 29 30 29 30 31 33 33 34 32 32 33 33 34 37 39 38 39 41 44 44 48 57 61 64 61 59 57 62 66 67 64 62 62 64 66 66 69 72 71 71 70 71 69
17 18 19 22 24 25 25 25 25 25 24 25 27 27 28 28 28 28 28 31 32 34 35 36 37 37 38 39 44 42 48 53 60 64 62 61 58 60 63 66 66 66 66 66 67 67 64 64 64 65 67 68 69 71
22 22 22 23 23 24 24 24 25 25 24 26 25 24 24 26 27 29 30 31 32 35 34 36 37 35 38 39 40 45 53 58 64 61 58 57 58 64 65 66 66 68 69 67 65 64 66 68 68 66 63 67 71 73
24 23 23 23 24 24 23 22 23 24 24 24 24 24 24 25 26 29 27 29 31 33 34 38 40 42 41 41 45 51 58 63 61 60 60 56 59 63 61 64 66 67 69 70 70 71 70 70 72 72 74 77 77 79
28 28 27 26 26 26 25 25 25 25 24 23 23 22 24 28 30 31 29 29 29 32 33 35 35 40 45 48 51 55 58 59 59 59 60 62 62 61 61 63 67 68 70 71 72 75 77 79 79 80 81 81 82 82
33 32 32 30 28 28 28 29 28 27 26 23 25 26 29 31 31 29 28 26 28 29 31 35 37 38 44 49 50 55 58 59 60 64 63 62 64 64 62 64 66 67 69 70 71 73 71 71 74 78 82 84 84 85
35 36 33 31 32 32 30 30 33 32 30 31 30 30 31 33 32 30 29 29 31 30 33 34 35 37 47 52 54 53 54 59 61 59 61 62 61 62 64 66 68 70 71 72 69 70 71 69 70 71 73 75 77 79
36 33 34 34 33 33 32 30 32 34 31 31 31 32 31 31 32 31 28 29 30 32 36 38 38 42 42 49 54 49 50 55 55 53 59 61 62 66 68 68 68 70 71 73 74 74 74 75 75 76 78 81 84 86
37 36 35 33 30 31 32 30 29 30 31 30 30 29 28 27 29 31 31 28 29 33 36 42 41 44 46 47 49 49 48 51 55 55 59 62 63 64 66 69 71 73 75 76 77 79 80 82 83 86 87 89 90 93
37 35 33 31 30 28 26 25 25 27 28 28 26 23 24 25 25 28 30 29 30 34 36 40 44 47 48 47 48 49 51 54 56 59 61 63 64 66 69 72 74 76 78 79 80 81 81 82 84 86 88 90 91 93
35 36 35 30 25 22 23 23 25 24 23 23 22 21 21 21 19 18 18 22 25 29 33 39 44 48 51 53 54 54 55 56 59 61 62 65 68 71 74 77 79 80 82 83 85 86 88 89 90 90 91 92 95 96
32 31 31 32 29 25 25 25 24 21 21 22 20 20 19 18 16 15 15 16 17 20 24 29 34 40 46 50 54 57 60 62 66 69 71 74 76 79 82 85 86 88 89 89 88 89 90 92 92 92 93 93 93 93
24 22 20 20 21 21 19 20 22 23 22 19 18 16 14 12 10 9 6 5 5 8 12 17 23 29 33 39 44 49 53 58 63 67 71 74 77 79 80 81 82 84 85 85 85 85 85 86 87 88 90 91 92 93
18 16 12 10 10 10 8 9 10 10 9 8 7 5 4 2 0 2 5 8 11 13 16 19 22 26 30 34 38 41 45 50 54 58 60 65 68 71 74 76 79 81 83 83 85 85 87 88 89 90 91 91 92 92
13 13 11 8 4 10 4 1 0 0 1 2 4 5 7 9 11 14 16 18 22 25 28 32 36 40 43 46 50 55 58 61 65 67 70 72 75 77 79 81 83 84 85 85 86 87 87 86 85 85 85 85 86 85
14 14 14 14 12 11 11 8 7 7 7 8 10 12 15 18 21 23 26 30 33 36 40 43 47 52 56 60 63 67 71 72 71 71 71 72 72 73 75 76 78 79 79 79 80 79 78 78 78 77 78 78 79 79
18 16 18 18 16 14 14 13 14 15 16 18 21 23 26 28 30 33 35 38 41 44 48 53 57 60 62 66 69 68 67 66 66 67 68 70 70 69 68 67 67 66 66 67 66 67 67 68 68 69 69 69 68 68
19 20 21 20 17 15 18 20 22 25 27 30 32 34 35 38 39 42 45 48 52 54 57 59 61 63 65 63 60 60 60 60 61 63 63 64 64 63 63 62 61 61 61 61 60 60 61 61 61 61 62 62 62 62
21 21 20 19 22 24 27 31 34 36 37 38 39 41 42 44 47 49 52 54 56 57 59 61 61 61 56 55 55 55 55 55 55 55 55 55 55 54 54 54 54 54 55 55 56 56 57 57 57 58 58 58 59 59
26 27 28 29 32 34 37 38 40 41 43 45 46 47 49 50 51 53 54 55 56 58 59 57 53 52 51 50 50 49 48 47 47 47 48 48 48 49 50 50 50 50 50 51 51 52 52 53 54 54 55 56 56 57
34 36 37 39 41 42 44 46 47 48 49 50 50 51 52 51 51 52 53 55 55 54 52 50 48 47 46 45 44 44 44 44 44 44 44 44 45 45 45 46 47 47 48 48 49 49 50 51 51 52 52 53 52 52
43 44 45 46 48 50 52 51 51 51 51 51 51 49 48 49 50 51 51 51 50 48 47 46 44 43 43 42 41 40 40 40 40 40 40 40 40 40 41 42 42 43 44 45 46 46 46 47 47 47 48 47 47 47
49 50 50 50 51 54 53 52 51 50 48 46 46 46 47 47 48 48 48 46 45 44 43 42 41 40 40 39 39 38 36 36 36 36 37 37 37 38 38 39 40 41 41 42 42 42 42 43 43 44 44 44 43 43
51 51 51 51 51 50 49 47 46 45 44 44 44 44 44 45 45 44 43 42 41 40 38 38 38 37 37 36 36 35 35 35 35 35 35 35 36 36 36 36 37 37 38 39 39 40 41 41 42 41 40 39 38 39

GFSWCAN_250_spd_039.txt.gz
Wind_Speed
41 42 41 41 42 45 47 47 48 48 49 51 54 56 57 59 60 60 57 62 64 60 57 51 51 53 59 59 56 66 78 72 59 50 47 48 53 60 69 75 82 87 85 86 98 95 89 89 92 88 75 73 75 69
38 39 38 39 41 42 40 39 40 40 42 43 44 45 48 50 51 52 52 58 56 58 55 49 48 54 54 57 62 63 57 63 49 50 42 44 49 58 61 69 74 77 78 81 81 78 81 87 87 86 86 83 81 71
34 34 35 34 33 32 31 31 32 32 33 33 34 35 38 39 41 44 49 48 51 50 47 47 45 50 54 56 53 50 47 44 41 42 47 54 57 60 64 65 67 71 76 77 71 73 67 68 73 79 81 80 74 68
29 29 27 25 24 23 23 23 23 24 24 24 25 27 30 35 40 42 42 43 41 44 47 47 48 47 43 40 42 44 41 40 46 45 52 57 57 59 59 60 59 65 70 72 63 61 60 55 58 61 67 67 63 58
22 19 18 15 14 13 12 12 13 15 16 18 20 24 29 33 35 35 35 37 41 44 42 40 38 36 38 39 42 42 41 46 49 53 51 47 50 54 61 63 59 59 63 63 59 56 51 49 49 49 55 54 53 54
14 10 6 5 4 2 2 3 6 9 12 15 19 23 25 27 28 30 33 36 36 37 33 32 35 36 37 41 41 44 47 49 48 50 50 47 50 52 58 56 60 66 64 58 47 44 45 51 53 56 51 57 53 56
7 6 7 7 6 5 4 5 6 8 11 15 18 20 23 25 27 27 28 27 25 25 26 29 32 36 39 42 44 46 49 48 48 47 44 47 50 48 54 57 57 53 53 52 44 43 51 57 58 55 49 56 60 58
8 10 12 10 9 9 11 13 16 18 19 21 21 23 24 25 26 26 27 26 28 30 32 36 38 40 43 45 46 49 47 49 49 48 46 47 51 50 51 51 53 53 52 50 47 48 56 60 62 59 61 62 59 60
9 10 11 11 11 12 17 20 23 24 23 25 27 27 27 28 30 30 32 33 35 37 37 36 38 41 43 43 42 44 46 45 41 38 41 47 50 48 47 51 54 54 50 48 45 50 54 57 63 63 64 65 65 65
8 9 12 14 15 16 18 22 25 28 28 29 30 33 35 37 37 36 36 35 33 32 33 34 35 36 38 37 36 34 34 35 33 34 39 46 45 47 48 52 53 51 52 52 49 54 58 58 65 64 62 64 67 68
11 13 13 16 18 20 20 21 24 26 28 29 29 31 30 31 32 32 33 33 34 35 34 35 36 34 35 34 33 33 33 33 37 39 41 42 42 45 52 55 54 53 54 54 53 54 58 62 64 65 65 66 65 66
14 17 19 21 22 22 25 27 27 27 26 25 26 27 29 30 31 32 34 34 33 33 33 33 33 31 31 31 33 35 38 40 44 40 40 43 49 54 56 55 55 56 56 52 51 53 57 59 60 63 66 67 68 69
21 23 25 26 26 25 27 28 29 30 31 31 29 29 33 33 32 30 30 30 29 28 27 27 28 28 29 31 34 37 42 46 45 45 46 52 56 58 58 57 55 55 55 56 57 58 59 60 61 62 64 66 69 71
26 26 26 26 26 26 27 27 26 26 28 29 32 34 33 32 30 29 28 28 27 27 27 30 31 33 37 38 38 42 42 41 44 48 53 56 58 58 57 57 55 55 56 58 60 63 66 66 66 67 68 67 69 69
28 29 29 27 26 26 26 27 27 25 25 26 27 28 31 30 29 27 26 26 27 26 27 30 36 38 38 37 38 39 42 45 50 54 54 55 57 57 54 53 54 56 59 62 64 66 68 67 68 71 74 76 76 76
31 32 32 32 30 27 27 29 29 28 26 27 29 29 30 31 31 30 28 26 25 26 28 31 33 36 38 38 38 42 44 46 50 53 55 56 56 57 58 60 61 61 60 64 67 69 70 71 72 72 73 76 80 83
34 34 35 36 35 33 30 29 30 30 28 25 25 26 28 30 30 29 27 24 22 24 26 28 30 31 33 39 41 42 43 42 48 51 55 57 59 60 59 59 59 61 64 66 68 69 69 70 73 75 78 79 80 81
36 34 33 35 35 33 33 32 31 30 29 28 27 29 33 32 32 31 28 24 20 19 20 21 25 28 31 33 35 38 42 43 46 51 55 57 58 60 61 61 62 63 66 68 70 71 73 74 75 76 77 79 82 84
36 35 33 32 31 31 30 31 32 32 31 31 29 30 33 33 30 26 25 22 20 18 17 17 19 22 27 29 32 33 35 39 42 46 48 49 53 58 60 62 64 67 70 72 74 75 76 77 79 80 81 82 84 86
38 36 35 31 29 26 29 28 31 31 28 30 30 27 26 27 28 25 21 16 15 14 13 13 14 16 18 21 27 32 35 38 39 40 45 49 51 56 60 64 68 72 75 78 79 80 81 82 83 85 87 89 90 92
40 40 38 35 31 28 27 27 28 29 27 27 26 29 28 25 22 18 14 11 10 11 13 15 19 23 27 32 35 38 42 47 50 52 54 57 59 62 65 67 70 73 76 79 82 85 86 87 87 88 90 90 90 91
31 31 31 32 32 29 24 23 25 26 27 25 24 25 25 22 19 16 12 9 6 7 10 14 19 24 29 34 40 44 48 51 54 57 60 63 65 67 70 72 75 76 78 80 81 82 83 84 85 86 87 88 87 88
23 20 19 19 23 21 19 17 16 17 17 17 16 16 16 14 11 9 6 4 2 4 6 9 13 18 22 27 32 37 42 46 52 55 59 63 68 71 74 76 77 77 77 76 76 77 77 78 79 80 81 83 84 86
16 15 13 10 9 11 11 9 9 8 8 8 7 7 6 5 5 6 8 10 13 16 19 22 26 29 32 36 40 44 49 54 58 63 67 71 74 76 77 78 78 80 81 82 83 83 82 82 82 82 81 81 81 81
11 9 8 4 5 2 1 1 2 2 2 2 3 4 6 8 11 14 18 21 23 27 30 34 37 41 45 49 53 57 61 64 68 72 73 72 73 72 72 72 72 73 72 73 73 72 71 71 71 71 70 71 72 72
13 13 12 11 11 10 11 10 9 10 10 11 11 12 15 18 20 23 26 29 31 34 37 41 44 47 51 55 60 64 68 70 68 68 67 66 66 66 67 67 65 63 63 63 64 63 62 62 61 62 61 61 61 62
16 16 15 14 15 16 17 18 19 19 18 18 19 20 22 24 27 29 32 35 38 41 44 47 51 55 59 63 66 67 65 63 62 60 59 58 59 58 58 58 58 57 56 55 55 55 55 55 56 56 57 57 57 57
23 21 21 21 21 23 24 24 24 23 22 23 23 27 30 32 34 36 38 41 42 45 49 52 56 59 63 63 61 59 56 55 54 53 51 50 51 49 50 50 50 51 51 51 52 52 52 52 52 52 53 54 54 55
24 25 25 25 25 25 26 26 26 27 28 30 32 35 39 40 41 44 44 46 49 51 55 58 60 61 59 56 53 51 50 49 47 47 47 46 45 47 46 46 46 47 47 48 48 48 49 49 50 51 52 53 53 54
26 26 26 26 27 28 30 31 32 34 36 38 40 42 44 46 47 46 48 51 54 56 58 59 57 55 52 49 47 46 45 45 44 44 43 44 43 43 43 43 43 44 45 46 47 48 49 49 50 51 51 51 51 51
30 30 31 32 33 34 35 37 39 42 43 45 46 47 48 48 48 50 52 54 55 56 55 54 51 49 47 46 45 43 44 44 42 41 41 40 40 41 42 42 43 43 44 45 46 46 47 47 47 47 48 48 48 48
35 36 37 37 38 40 41 42 44 45 46 48 48 47 47 48 49 50 52 53 53 52 49 48 47 45 44 43 43 43 42 41 40 39 40 40 40 40 41 41 42 42 43 43 43 42 42 43 44 44 43 43 44 43
36 36 37 39 42 44 46 47 47 47 47 47 47 47 47 48 49 49 49 48 48 46 45 45 43 42 42 40 40 40 39 39 39 39 39 39 40 40 40 39 39 39 39 39 39 40 40 40 41 42 42 42 40 39

GFSWCAN_250_spd_045.txt.gz
Wind_Speed
30 31 33 34 35 37 38 40 40 40 39 41 42 43 44 45 46 43 44 45 44 44 49 53 55 54 54 55 58 59 66 62 58 56 54 55 55 58 59 57 59 64 67 65 66 68 56 68 71 73 68 69 78 78
29 31 32 33 33 33 34 36 38 39 40 42 44 46 48 49 49 48 47 48 48 45 47 50 52 54 56 58 62 62 58 60 55 51 46 52 52 53 52 51 56 57 61 68 65 56 62 68 66 61 66 66 71 77
25 25 28 30 32 34 37 40 42 45 46 48 50 51 51 53 53 50 49 52 50 46 47 46 48 55 54 60 65 62 60 60 58 52 53 55 54 54 49 48 57 57 60 61 58 54 60 64 63 63 62 59 68 69
19 24 29 33 35 36 37 38 40 41 42 43 44 44 46 49 50 50 47 53 51 46 46 51 51 47 55 59 59 56 59 63 61 57 57 58 54 58 53 54 56 59 55 53 52 59 62 62 60 61 59 62 60 59
24 26 27 28 28 28 29 31 32 34 35 35 36 37 39 40 41 42 43 47 46 45 45 47 46 51 53 55 59 57 61 61 61 61 59 56 52 48 51 56 56 55 49 49 54 60 58 61 63 61 59 58 61 56
19 19 19 19 19 20 21 22 23 24 25 26 28 30 32 32 33 33 34 33 36 35 37 42 47 48 52 52 54 54 55 57 56 49 43 39 43 46 52 57 56 52 50 49 54 60 61 64 63 63 64 66 64 56
10 12 12 13 15 15 15 16 16 17 17 19 22 24 26 28 32 35 40 40 37 37 40 42 41 38 41 42 45 48 48 45 42 41 39 44 49 52 54 56 53 49 52 51 51 58 64 67 67 66 66 63 59 55
5 5 3 5 7 9 11 12 12 13 15 17 18 21 23 25 26 28 30 32 32 31 30 29 29 33 35 35 36 38 42 45 45 46 45 44 46 49 53 48 47 47 52 54 53 56 60 66 68 68 65 61 58 49
4 3 3 4 4 4 5 8 11 14 16 18 20 22 23 25 27 28 29 30 29 26 25 30 34 36 38 39 39 42 40 40 41 42 43 49 53 52 43 45 47 47 50 51 53 54 55 60 61 66 63 61 56 54
8 7 9 10 10 9 9 10 13 15 17 18 19 20 23 24 27 28 29 30 33 36 36 35 34 35 37 38 38 34 33 34 36 38 38 42 36 39 41 46 51 54 54 53 52 52 52 54 60 64 68 62 57 50
11 10 12 14 15 14 13 12 12 15 18 22 25 28 28 29 29 30 29 28 29 29 28 26 26 28 29 31 32 33 32 32 33 33 34 38 37 37 42 45 47 48 49 49 49 51 51 51 59 67 69 58 47 49
15 14 15 17 18 19 18 17 17 17 18 20 23 25 25 26 25 26 26 26 25 25 26 25 25 25 26 26 24 25 26 27 28 26 22 22 30 35 37 41 44 44 43 43 45 47 47 48 53 58 57 53 48 52
17 17 16 19 20 21 22 21 22 22 23 24 25 26 27 27 26 26 25 26 26 26 26 27 26 26 26 25 24 22 23 23 24 24 28 31 32 37 39 39 38 39 40 40 39 39 41 44 48 52 56 50 51 52
18 20 19 19 22 25 24 24 23 24 25 26 27 28 29 28 27 27 27 26 25 24 25 25 26 26 25 26 26 27 27 28 29 28 31 33 33 33 34 36 36 34 33 34 35 34 36 41 49 54 54 53 54 55
18 20 22 22 24 23 23 24 25 25 25 27 28 28 28 27 28 27 27 27 26 24 24 24 22 22 23 23 24 24 26 27 28 30 32 32 31 31 31 30 28 28 29 31 30 31 34 39 46 48 52 53 54 55
21 20 20 22 24 26 25 23 24 23 24 25 26 28 28 28 27 27 26 26 25 23 23 23 22 20 19 18 19 22 25 26 27 28 28 24 24 26 31 32 30 29 29 32 35 39 42 45 49 53 54 54 57 59
24 24 23 22 21 23 25 24 24 25 27 28 29 29 29 30 29 28 27 27 26 23 21 20 20 19 18 17 18 20 23 24 25 25 24 21 20 26 28 34 33 36 38 40 41 42 44 47 50 54 57 60 63 66
27 25 23 23 24 22 24 26 28 27 26 27 28 27 29 29 28 28 27 25 22 20 17 15 13 10 11 10 10 10 11 13 15 20 22 23 25 27 28 29 32 35 38 39 41 44 48 52 55 59 62 64 67 70
30 28 25 25 27 26 25 28 30 28 29 29 29 30 28 29 29 29 26 23 23 20 18 15 15 12 10 9 8 8 7 7 11 15 18 21 23 25 27 30 34 38 42 46 49 52 55 58 62 64 67 70 72 75
30 29 28 28 28 30 29 27 30 32 34 34 33 34 35 34 32 29 29 27 25 22 19 17 15 13 11 8 6 6 7 10 14 17 21 24 27 32 35 39 42 45 49 52 56 58 61 64 67 69 72 74 75 76
35 33 31 29 30 30 31 29 29 31 35 34 34 34 34 34 32 29 28 25 22 19 17 15 12 10 7 4 4 6 8 12 16 20 23 28 32 38 43 48 52 56 59 63 66 68 71 72 72 73 75 76 77 78
38 36 36 31 31 30 28 28 31 34 34 30 29 29 27 26 25 25 23 20 17 15 13 10 7 4 2 4 7 10 14 17 20 23 27 31 35 40 45 49 54 57 61 64 67 70 72 73 73 72 72 74 74 74
35 28 26 28 34 28 27 26 28 30 28 26 24 23 22 22 21 20 16 13 11 8 5 3 4 6 10 14 18 21 25 28 31 35 38 42 47 50 54 56 58 60 60 60 60 62 66 68 70 70 70 70 70 69
27 22 21 24 26 26 26 25 23 23 23 21 20 18 16 14 11 8 5 4 5 6 9 11 15 19 22 26 30 34 37 41 45 48 52 55 59 61 62 63 64 65 67 67 66 66 66 66 65 65 64 63 61 61
20 17 17 17 17 16 16 15 14 13 12 11 9 6 3 2 2 4 6 8 12 15 18 22 25 28 32 36 40 44 47 51 54 58 60 61 62 62 62 63 64 63 61 61 60 58 56 56 56 56 56 56 56 56
8 7 7 6 6 6 5 5 4 2 1 2 3 4 6 8 9 12 16 20 23 26 28 31 35 38 42 45 48 52 56 58 61 63 64 64 64 62 60 58 57 55 53 53 52 52 51 51 51 52 52 52 53 53
3 4 4 5 6 7 8 9 10 9 8 10 12 13 13 15 19 24 27 29 33 35 37 41 44 46 50 54 58 61 63 64 65 65 62 58 55 51 49 48 47 46 46 46 46 46 47 47 47 47 48 48 48 48
8 10 10 12 12 13 14 14 14 14 15 17 19 22 25 27 29 32 35 38 40 44 47 50 53 56 60 63 64 65 65 61 57 53 51 50 48 46 43 42 42 42 41 41 41 42 42 43 44 44 45 45 46 46
17 17 17 18 18 17 18 19 20 21 22 23 26 30 33 36 38 41 44 46 48 49 52 56 59 62 64 66 65 61 57 52 48 46 44 43 43 42 41 39 38 38 38 39 39 40 40 41 42 43 43 43 43 43
22 21 21 20 20 20 20 21 22 24 27 31 34 36 39 42 45 47 49 51 54 56 59 62 63 65 63 60 57 53 50 46 44 42 41 40 39 38 38 38 38 38 38 39 39 39 40 40 40 40 40 40 40 41
26 25 25 25 25 26 27 28 30 32 35 38 40 43 45 46 49 51 54 57 60 61 63 63 61 59 56 53 51 49 46 45 42 40 39 38 38 38 37 37 38 37 37 38 38 38 38 38 37 37 38 38 38 38
29 29 30 31 32 34 34 36 37 39 41 43 44 46 49 52 54 57 59 61 62 61 59 57 54 52 49 47 46 44 42 40 39 39 39 38 38 38 38 38 37 38 38 37 36 36 35 35 35 35 35 35 35 35
35 36 36 37 37 37 38 39 41 43 45 47 49 53 55 57 59 60 59 57 56 54 52 50 48 46 44 42 41 40 39 39 39 38 38 38 38 38 37 37 37 37 36 35 34 34 33 33 33 34 34 34 33 33

GFSWCAN_250_spd_048.txt.gz
Wind_Speed
29 29 29 29 30 31 32 33 34 34 35 35 36 36 37 36 35 33 34 35 37 39 42 45 48 50 53 54 57 61 61 56 58 61 63 65 68 69 68 70 71 72 72 72 75 75 76 80 76 78 73 74 73 69
25 25 26 27 28 29 29 30 32 33 33 34 36 37 38 38 37 35 35 38 41 41 41 44 47 49 52 55 55 55 56 57 55 54 56 58 59 61 63 64 66 66 69 70 69 69 69 68 69 71 74 71 64 65
23 25 26 28 29 30 31 32 33 34 35 36 37 37 37 38 36 34 36 39 42 43 44 46 47 49 51 53 53 53 55 58 54 55 54 55 54 55 57 59 63 61 64 62 64 60 62 63 65 67 68 62 60 62
22 25 27 28 29 30 32 33 34 35 37 38 39 40 41 41 40 39 38 41 42 44 47 47 49 49 51 49 49 51 54 52 50 48 48 46 46 51 53 55 54 57 57 54 53 53 53 60 57 65 66 54 56 60
23 24 25 26 27 28 29 30 31 33 35 37 38 40 40 41 41 41 41 42 41 44 46 49 51 51 53 51 50 51 50 50 49 46 41 39 46 51 54 54 53 58 56 54 51 51 52 55 52 58 62 54 53 59
22 21 21 22 22 24 25 27 28 30 32 34 36 38 39 40 41 41 38 39 41 43 43 46 49 50 50 49 51 53 55 55 55 54 49 45 50 58 59 56 55 58 56 51 48 50 49 53 51 52 54 54 55 58
14 14 14 15 14 15 17 18 21 23 27 30 32 34 35 36 36 35 38 49 51 45 48 50 51 50 50 55 53 56 61 55 56 53 53 52 56 60 54 51 51 56 58 59 50 49 46 53 50 50 52 54 54 57
9 10 10 10 9 8 8 10 14 19 21 24 28 31 33 34 36 38 43 43 38 40 43 47 51 54 53 57 58 61 59 57 55 52 54 52 52 50 41 44 50 54 57 54 51 49 49 54 49 49 54 53 55 56
5 3 3 3 3 3 3 5 7 10 14 19 22 23 26 28 30 33 33 35 38 40 42 43 43 43 43 49 51 52 50 50 50 50 54 50 47 44 46 43 46 50 50 50 48 46 50 50 48 47 45 46 50 50
4 4 3 3 5 7 6 6 7 9 12 15 17 19 21 23 25 28 30 27 29 29 30 33 33 36 39 43 43 43 44 45 46 45 48 43 45 41 36 38 40 42 44 42 40 44 50 50 47 45 44 45 50 53
8 8 8 10 13 13 12 10 10 13 16 18 19 20 22 23 23 24 24 26 29 29 30 32 34 37 38 38 39 40 39 39 41 41 38 35 32 29 30 35 36 36 38 38 43 48 47 47 47 45 44 46 50 54
12 12 13 15 17 17 17 15 14 14 14 15 20 21 22 24 25 26 27 27 27 27 27 27 28 30 31 32 32 30 30 26 26 23 26 24 25 26 29 30 31 33 35 37 42 45 45 46 44 43 45 47 51 55
16 15 16 18 19 20 19 19 19 19 18 19 21 20 20 21 22 22 22 21 23 23 24 24 24 24 23 22 22 22 23 25 24 22 25 26 26 25 26 27 28 28 30 33 38 41 42 42 41 42 43 44 48 51
20 19 20 23 23 23 22 23 24 23 23 24 24 24 24 25 24 23 23 23 23 23 24 24 23 24 26 26 26 26 25 24 24 25 24 21 20 19 21 24 26 27 28 26 28 31 34 35 37 39 41 43 46 49
23 23 25 25 25 25 24 25 26 24 24 25 26 26 27 28 28 28 27 27 26 25 25 24 22 20 21 20 21 21 22 23 22 19 18 16 19 20 20 20 22 22 23 25 28 31 34 37 39 40 42 44 45 46
24 25 26 27 25 24 25 25 25 26 27 29 28 30 29 28 28 27 26 25 24 22 22 22 21 18 18 16 14 16 18 16 15 17 16 17 16 19 20 21 22 25 26 27 28 32 35 36 38 40 41 42 44 47
25 25 26 27 26 25 24 23 22 23 25 27 28 27 27 27 27 27 26 25 22 21 20 18 17 15 15 15 15 15 14 14 14 14 15 16 15 17 17 21 22 24 28 30 31 32 33 33 34 36 38 40 42 45
25 26 28 28 25 23 23 22 22 23 24 25 25 26 26 27 26 24 24 23 21 19 18 16 14 12 11 11 10 9 7 4 2 6 10 13 14 17 16 19 21 23 22 24 25 27 30 33 36 39 41 44 47 50
25 26 27 29 28 24 23 23 21 22 24 25 24 27 30 33 35 33 30 29 29 27 25 23 21 18 16 14 12 11 9 5 0 6 9 9 12 14 15 18 23 27 29 31 34 37 39 42 45 48 50 53 56 58
28 28 28 29 29 29 28 28 28 29 29 29 32 34 34 34 35 33 30 29 27 25 22 19 18 16 14 12 9 7 4 1 4 6 10 14 17 20 24 27 30 33 35 37 40 43 45 48 50 53 55 57 59 61
29 30 29 28 31 34 34 32 30 31 32 30 30 33 35 34 33 31 31 28 25 22 20 19 16 13 11 9 6 4 2 4 8 11 14 17 20 23 27 31 35 39 43 46 49 53 55 57 58 59 60 60 60 60
36 34 30 29 29 33 34 34 32 32 29 26 28 30 31 30 29 27 23 21 19 18 16 13 10 7 5 4 5 8 11 14 17 20 24 27 30 35 39 43 46 49 53 56 58 60 61 62 63 64 64 64 65 67
36 33 29 26 28 31 33 34 32 29 26 27 28 28 26 24 23 19 16 14 13 12 10 10 10 10 12 13 15 18 21 25 28 33 36 39 43 47 49 51 53 57 59 59 60 62 62 61 62 62 63 64 64 64
34 30 27 27 30 32 31 28 26 24 24 23 21 19 18 16 14 11 9 7 6 6 7 9 12 16 19 23 26 29 33 36 40 44 48 51 55 57 59 60 60 62 65 65 64 64 63 61 60 59 59 58 58 58
23 22 23 24 26 24 23 18 16 14 13 12 12 11 8 5 3 2 3 5 8 11 15 19 23 26 30 33 36 39 43 47 51 54 56 57 60 61 63 64 63 61 59 58 58 57 57 57 56 55 55 54 55 55
17 17 18 19 19 17 14 12 11 10 9 7 7 7 7 7 8 9 11 15 19 23 27 30 33 36 39 41 45 49 53 55 57 59 61 60 59 57 54 52 51 50 50 49 48 48 49 50 50 50 50 51 51 52
12 12 12 11 9 8 7 7 7 6 4 4 6 7 9 11 14 17 20 23 27 31 35 39 43 46 49 52 54 55 56 58 59 60 58 54 52 49 47 46 45 44 44 44 45 45 45 45 46 46 46 47 48 48
7 9 9 8 8 9 10 11 12 12 13 14 15 17 19 21 24 28 32 36 39 42 46 49 52 55 58 59 60 60 60 60 60 56 52 48 46 44 43 42 41 41 41 40 41 41 41 41 42 43 43 44 44 45
8 10 12 14 15 15 15 15 15 16 16 18 20 23 26 30 34 37 40 44 47 51 54 57 59 61 62 62 61 62 61 58 53 49 44 42 42 41 40 39 38 38 38 39 39 39 39 40 40 40 41 41 42 42
15 16 17 17 18 19 20 21 21 22 23 25 27 30 33 37 40 44 47 51 54 57 59 62 63 64 64 64 62 58 54 50 46 43 40 39 38 39 39 39 38 38 37 37 37 37 37 38 38 38 38 38 39 39
23 23 23 23 23 24 25 26 27 28 30 33 36 39 42 45 48 51 54 56 59 62 63 64 64 63 61 57 55 51 47 44 42 39 39 38 38 38 38 38 38 37 37 37 37 37 37 37 36 36 36 36 36 36
31 30 29 29 30 31 31 33 34 37 39 41 44 47 50 53 55 58 59 60 62 63 63 62 59 56 53 52 49 47 45 43 42 40 40 39 39 38 37 37 36 36 36 37 37 36 36 35 35 35 34 34 34 35
36 35 35 36 37 38 39 40 41 43 45 47 49 52 54 57 58 60 61 61 60 58 56 54 52 50 48 46 45 44 42 41 41 41 40 40 39 38 38 37 37 36 37 37 35 35 34 34 34 34 33 33 34 34

GFSWCAN_250_spd_051.txt.gz
Wind_Speed
29 29 29 28 28 27 27 27 28 29 30 30 31 30 30 30 32 34 37 37 39 41 42 43 44 46 49 49 49 51 51 54 58 62 66 68 68 71 73 77 82 86 89 93 96 95 98 98 95 94 95 96 96 93
28 27 27 26 26 26 26 25 25 26 26 27 28 28 28 29 31 33 33 36 38 39 41 43 44 46 46 46 46 47 49 49 52 56 62 67 69 70 71 73 74 74 76 78 79 81 83 86 86 85 82 87 88 84
25 25 25 25 25 25 24 25 25 26 26 26 27 27 28 29 30 32 36 36 35 39 40 41 42 45 45 46 44 45 47 46 47 54 58 61 63 65 67 70 72 74 75 75 75 78 79 80 79 80 80 81 81 80
22 23 23 23 23 24 24 26 26 27 27 27 27 28 28 29 30 33 35 35 37 38 37 39 41 44 44 44 46 48 48 46 48 49 51 53 56 58 59 61 64 67 67 70 68 69 70 73 72 74 75 76 75 74
20 19 19 19 19 20 20 20 21 22 24 25 26 27 28 29 32 35 36 36 37 37 37 38 40 41 41 41 43 46 44 43 44 45 48 50 49 51 55 57 57 59 59 59 60 62 64 67 66 67 67 67 66 69
18 19 18 17 19 20 21 23 23 23 23 22 23 24 26 27 28 32 33 33 34 33 36 36 39 40 40 39 39 40 42 43 43 42 42 44 49 53 52 50 51 54 56 56 54 56 59 59 63 62 61 59 59 62
14 14 13 13 13 15 17 18 19 21 23 24 26 26 27 27 27 28 31 40 40 40 39 39 40 40 39 38 40 41 41 40 42 40 37 39 47 49 46 46 51 54 56 56 55 56 57 58 60 58 49 47 54 58
9 8 8 8 9 10 13 17 19 20 21 22 24 26 27 29 28 28 34 36 34 36 38 40 43 43 42 43 44 44 43 43 45 42 33 39 47 48 46 49 52 56 58 60 60 57 54 54 49 43 43 43 51 53
6 6 5 4 4 7 10 12 14 17 20 21 22 22 23 24 26 29 32 29 25 29 35 41 46 46 45 48 48 46 48 47 50 50 40 41 45 43 44 45 48 53 58 57 52 52 55 55 47 47 51 48 52 46
4 3 2 2 3 5 8 12 15 17 19 20 21 21 21 22 24 25 25 23 26 27 30 36 39 41 44 48 49 49 50 50 52 53 49 42 47 47 43 39 41 48 41 36 40 42 41 42 45 46 48 49 47 41
7 6 7 9 11 11 11 13 16 18 20 20 19 20 21 21 22 22 23 25 26 28 30 33 35 37 33 39 45 48 49 50 52 50 41 37 37 39 36 31 29 33 35 34 33 33 33 32 36 40 45 46 41 38
10 11 12 13 15 17 18 15 14 16 18 21 24 23 23 21 21 22 23 25 26 25 27 29 31 34 33 35 37 34 35 32 32 33 27 28 29 26 26 28 28 26 25 26 28 28 29 32 34 37 40 40 38 37
17 18 19 19 20 22 23 22 20 19 17 17 18 20 21 22 22 22 22 23 23 22 22 21 22 23 24 26 26 25 24 22 25 24 27 26 24 24 24 21 17 18 20 22 22 25 30 32 34 36 36 35 34 35
24 23 22 23 23 24 25 26 25 25 26 26 25 25 23 22 22 21 20 20 19 19 20 19 19 19 20 20 22 23 25 26 26 25 22 22 19 16 16 18 19 20 18 19 21 23 26 30 32 34 35 36 37 38
28 29 28 28 28 27 27 29 29 28 29 27 27 26 27 25 25 23 21 20 19 18 17 17 17 17 17 16 15 16 17 16 15 13 14 13 14 16 19 20 17 16 18 19 21 24 26 29 33 36 38 39 40 41
32 32 31 31 31 30 30 31 31 31 31 31 30 30 29 29 28 27 26 25 24 23 22 21 19 17 16 15 15 17 18 18 17 15 13 14 15 13 11 12 13 16 19 21 22 25 27 28 30 32 34 36 38 40
32 33 32 32 31 31 31 31 32 33 33 34 35 34 33 33 33 32 30 28 27 27 25 23 21 18 15 14 13 12 12 12 13 11 9 9 9 9 12 12 12 13 13 11 15 17 20 24 28 31 34 35 37 39
32 31 30 30 30 30 29 29 29 32 33 33 34 34 34 34 35 34 33 31 29 27 24 22 21 19 17 17 16 12 9 9 7 5 2 1 2 6 7 9 10 13 15 17 21 21 23 26 28 30 33 35 38 41
31 31 31 30 29 28 29 28 29 32 33 35 34 34 35 37 37 36 35 33 32 30 27 27 26 24 22 20 17 15 13 10 8 6 3 2 3 6 8 12 14 16 19 23 26 29 30 32 34 37 39 42 44 46
31 31 31 30 27 28 27 29 31 31 35 38 39 36 36 36 37 35 34 31 29 27 26 25 24 21 18 17 14 11 8 5 5 3 4 7 11 13 16 20 24 28 31 33 35 38 40 43 45 46 48 50 53 54
30 32 32 33 32 32 33 33 33 32 32 32 35 34 33 32 31 30 28 26 22 20 18 18 16 14 12 10 8 5 2 2 4 6 9 12 16 19 23 27 31 35 38 40 43 45 47 48 49 51 52 52 53 53
33 34 34 34 34 33 32 27 25 24 24 29 31 31 30 28 26 23 25 22 20 20 18 16 13 10 6 3 4 7 11 13 16 19 22 25 28 31 34 38 41 44 46 48 50 50 50 51 55 57 58 58 58 58
33 34 35 34 34 32 30 29 25 18 21 27 26 25 24 24 24 21 19 16 14 11 9 7 6 7 10 13 15 18 22 25 28 31 34 37 39 42 44 46 48 51 52 55 57 59 60 60 60 60 59 59 58 58
31 31 34 35 34 31 29 26 23 23 24 24 22 20 18 17 14 11 8 7 7 6 6 9 11 14 18 22 26 29 33 36 39 42 44 46 48 50 51 54 56 58 58 59 58 58 58 58 57 56 56 55 54 54
33 33 33 33 30 26 26 23 20 18 17 14 12 11 10 9 8 6 5 6 7 9 13 16 21 24 28 32 35 38 40 42 44 47 47 48 47 48 50 50 49 48 49 49 50 51 51 51 51 51 51 51 51 51
29 28 26 23 21 18 16 15 13 11 8 6 5 3 1 2 3 5 8 12 15 18 22 26 30 34 37 39 42 44 45 45 44 46 48 48 47 46 43 43 43 44 45 45 46 46 46 46 46 47 47 47 47 48
20 19 17 14 12 10 8 7 4 1 1 3 5 8 10 12 14 17 19 20 24 28 32 36 38 41 44 46 48 49 48 51 53 51 48 46 43 42 41 40 41 42 42 42 42 42 43 43 43 44 45 45 46 46
14 14 11 10 8 6 6 6 7 8 10 10 12 14 15 18 20 24 27 30 34 37 40 43 47 50 51 52 52 54 54 53 49 46 43 41 39 38 38 39 39 39 40 39 40 40 41 42 42 43 43 44 44 44
9 10 12 13 14 15 15 15 15 16 16 18 20 22 25 28 31 34 36 39 43 47 50 53 55 54 56 56 56 54 51 48 44 42 41 39 38 37 37 36 37 38 39 40 40 40 40 41 41 41 41 42 42 43
8 10 12 14 16 17 18 20 21 22 24 25 28 30 33 35 38 42 46 49 52 55 56 57 58 59 60 57 53 49 45 43 42 40 38 39 38 37 37 37 37 38 39 39 40 40 40 40 40 40 41 41 40 40
17 19 20 21 22 23 23 23 25 26 29 32 35 38 41 44 47 49 52 55 57 58 59 61 60 56 53 50 47 44 43 42 40 40 39 39 38 38 39 39 39 38 38 39 39 39 39 39 40 39 38 38 37 38
24 25 26 27 29 30 30 30 32 33 36 39 41 44 47 50 53 55 56 58 59 59 57 54 52 50 48 46 44 42 40 39 39 39 38 38 38 38 39 38 38 39 39 39 38 38 38 38 37 36 36 36 35 35
31 32 33 35 36 36 38 39 40 41 43 45 47 50 52 54 56 57 55 54 52 51 49 48 47 45 44 43 42 40 40 40 40 40 39 38 38 38 38 38 38 38 38 38 37 37 36 35 34 34 34 34 34 33

GFSWCAN_250_spd_054.txt.gz
Wind_Speed
35 34 33 31 29 27 26 24 24 24 24 24 25 25 26 28 32 36 38 37 40 43 40 41 39 40 40 40 42 42 44 45 50 57 62 68 70 71 73 80 87 86 89 86 81 77 82 83 81 82 84 84 85 84
31 28 26 25 24 23 23 22 22 21 21 21 21 23 25 28 33 34 32 37 38 36 39 39 38 39 38 37 38 41 41 40 43 50 58 64 69 70 71 73 80 86 91 93 87 85 82 86 88 90 89 90 93 93
24 23 22 21 20 20 19 19 19 19 19 19 20 22 24 28 30 31 33 33 34 36 36 36 38 38 37 37 38 37 36 37 42 47 53 58 63 66 68 72 73 79 89 91 90 91 91 89 90 93 95 95 97 99
22 23 23 23 22 21 19 18 18 18 19 19 20 22 25 28 29 30 33 33 35 35 35 36 36 36 35 36 37 37 37 37 39 44 49 53 58 63 67 70 71 72 74 80 86 91 91 91 92 94 93 93 92 94
24 24 23 21 19 18 18 18 18 17 19 20 21 24 26 28 30 32 32 34 34 31 33 34 34 35 37 37 36 36 37 39 39 42 46 51 54 58 63 66 69 71 73 75 78 80 81 81 80 83 83 84 85 86
22 20 18 17 18 19 19 19 18 18 19 20 22 24 27 28 29 28 28 27 29 30 32 33 34 35 37 36 36 37 39 39 38 40 43 46 50 53 57 63 67 71 72 73 73 75 76 77 78 80 82 82 81 80
18 15 12 11 13 16 18 19 21 22 22 23 22 24 27 27 29 31 33 35 32 32 31 33 34 35 34 34 35 36 39 36 37 39 42 46 47 47 50 54 59 61 63 65 67 70 70 71 72 75 74 73 74 72
13 10 9 10 11 14 15 17 19 22 24 25 25 26 27 31 30 30 30 29 29 30 31 33 34 34 34 34 32 33 35 36 36 39 39 43 45 45 46 50 54 56 58 59 63 63 66 67 69 70 71 69 64 56
7 7 7 8 9 10 14 16 18 20 23 25 26 27 27 28 29 30 27 26 26 27 29 32 32 32 31 31 30 31 33 34 35 34 38 42 42 39 44 48 50 52 54 55 57 58 59 60 60 62 58 57 53 49
3 3 2 3 5 8 12 16 18 21 21 22 23 25 28 29 29 29 25 25 20 23 30 34 30 29 29 27 28 28 30 31 31 33 34 35 36 39 44 47 50 51 53 54 52 54 58 58 55 57 58 54 50 49
4 4 3 5 8 10 11 13 16 18 20 21 22 25 25 25 26 28 26 27 33 37 36 32 29 30 32 32 33 32 32 33 34 34 34 31 31 36 37 38 39 40 44 46 49 55 51 46 48 46 45 43 44 44
11 11 11 13 14 15 16 15 17 19 22 24 25 24 22 21 21 23 27 31 34 36 35 36 36 36 36 36 36 38 38 37 36 36 34 32 33 32 30 30 32 35 35 37 37 38 37 38 36 36 38 37 37 38
15 16 15 17 20 22 21 20 17 17 20 22 23 24 25 25 25 25 26 26 27 27 26 26 26 26 27 31 31 30 30 29 28 28 26 30 33 26 24 29 31 31 26 27 32 32 30 30 32 35 36 35 33 31
19 20 20 21 23 26 27 26 23 21 19 19 20 21 20 20 20 20 21 20 20 21 21 22 22 23 24 23 22 23 23 23 25 27 28 25 24 26 28 27 25 24 25 23 21 22 23 24 27 29 30 32 33 34
25 25 24 24 24 26 27 29 27 27 26 26 25 24 23 22 22 21 20 19 18 18 18 18 17 15 15 16 18 17 18 18 20 19 19 21 22 21 20 21 22 18 16 18 22 24 25 26 29 30 31 32 33 33
30 30 31 30 28 29 30 31 29 29 30 28 27 25 24 24 23 21 20 19 17 16 15 15 14 13 12 12 12 12 12 14 14 12 11 12 13 18 18 15 13 15 17 17 17 19 19 23 27 29 30 31 33 35
33 34 34 34 34 34 36 36 35 35 35 34 33 33 32 31 31 29 27 26 25 24 24 23 22 19 17 15 13 11 11 11 11 12 12 12 10 8 7 7 8 11 14 15 15 17 17 21 21 24 26 31 34 37
35 35 35 35 36 36 37 40 40 41 41 41 41 40 40 39 38 37 35 34 32 31 30 30 27 26 23 24 22 20 19 17 14 12 11 8 7 6 7 9 11 12 14 17 20 21 23 26 25 27 31 33 35 37
36 34 34 35 36 37 39 41 42 41 40 41 40 40 39 38 36 34 33 33 32 30 26 25 23 21 20 20 18 16 13 11 9 8 7 9 9 8 9 11 14 16 18 20 22 25 28 29 31 32 34 35 37 39
38 36 35 35 36 37 37 37 37 36 36 35 35 34 33 32 30 29 28 27 26 26 25 22 20 18 15 13 13 13 11 9 6 5 3 5 7 10 13 16 19 22 25 28 30 33 35 37 38 39 40 42 43 45
37 36 35 35 35 34 33 34 33 34 35 35 34 35 34 33 31 29 28 27 26 24 22 19 16 15 13 11 8 6 4 2 3 6 10 12 16 19 22 25 28 31 34 36 37 37 39 41 45 47 49 49 49 50
39 37 37 36 35 32 28 28 31 31 33 32 31 31 29 27 25 24 24 21 20 19 16 14 12 9 7 5 5 7 9 12 15 19 21 24 27 29 32 35 36 38 40 42 45 47 48 50 51 52 53 54 56 58
38 37 37 34 29 26 26 21 25 26 29 28 26 26 25 24 22 23 20 15 13 10 8 6 6 6 8 11 14 17 20 23 26 29 31 33 35 37 39 42 43 44 45 47 49 51 53 54 56 57 57 57 57 55
39 37 33 33 33 30 23 21 23 25 25 24 23 21 18 15 14 12 9 7 6 6 6 8 11 14 17 20 23 26 29 32 35 37 39 41 44 43 43 42 43 45 47 49 51 53 55 56 56 56 55 55 53 53
39 36 33 30 29 27 26 22 22 21 18 17 15 13 11 9 7 4 3 5 6 9 13 16 20 23 27 29 32 36 38 39 41 42 42 42 41 40 42 44 45 46 48 49 50 51 53 52 52 51 50 50 49 49
36 33 30 27 23 20 16 15 13 12 10 8 6 5 4 4 6 8 10 13 17 20 23 27 30 33 36 39 41 40 40 41 42 42 42 41 41 41 41 43 44 45 46 46 47 47 46 46 45 45 45 45 45 45
28 24 20 17 13 11 8 6 4 2 2 4 6 9 11 13 15 18 20 23 25 28 31 35 37 39 41 42 42 44 46 46 45 43 41 40 40 40 40 41 41 42 42 42 42 42 41 42 42 42 42 43 43 43
20 17 14 12 9 7 6 4 3 4 6 8 10 12 14 17 20 23 26 29 32 34 38 41 44 46 48 48 49 49 48 45 42 40 39 39 39 38 38 38 38 39 39 39 39 40 40 41 41 41 41 41 41 41
12 10 9 8 8 7 7 7 9 11 13 15 17 19 22 25 28 32 35 38 40 44 47 50 51 50 51 51 49 47 44 41 39 38 38 37 35 35 36 35 35 36 38 39 39 39 40 40 40 40 40 41 41 41
5 5 6 8 11 14 15 17 18 19 21 23 26 28 31 34 36 39 42 44 47 50 51 52 52 51 50 48 46 42 41 40 38 37 35 35 36 35 35 35 36 37 38 38 38 39 39 40 40 40 40 40 40 40
9 11 12 15 17 20 23 25 26 27 29 30 32 35 37 40 42 44 47 49 51 51 51 50 49 48 45 43 41 39 38 38 36 35 35 35 36 36 36 36 37 37 38 38 39 39 39 39 39 39 38 38 38 36
16 18 20 23 26 28 30 32 32 35 37 37 39 40 43 45 47 48 49 50 49 48 48 47 45 44 42 40 38 38 36 35 35 35 35 35 35 36 37 38 38 38 38 38 38 38 37 37 36 36 36 35 35 35
25 27 29 31 32 33 35 37 38 40 41 42 44 45 45 47 49 48 48 48 47 46 44 44 43 42 40 39 38 36 35 36 36 36 36 36 36 37 37 37 37 37 37 36 35 35 34 34 34 34 34 34 34 34

GFSWCAN_250_spd_057.txt.gz
Wind_Speed
37 33 30 27 25 25 25 24 23 22 22 22 23 23 26 29 31 34 35 37 41 43 39 40 39 41 43 43 44 45 44 45 47 50 55 62 71 72 72 77 83 92 95 98 96 91 91 96 95 91 90 89 87 88
30 27 24 23 22 22 20 19 18 18 18 19 20 24 26 28 29 28 33 36 38 34 36 36 36 35 37 37 37 38 40 39 44 50 54 60 68 73 74 75 79 83 92 100 96 94 93 89 85 88 90 88 89 89
24 23 22 22 21 19 18 17 16 16 17 18 20 23 26 28 28 31 31 32 31 29 32 34 36 34 33 34 35 36 37 40 44 48 51 56 62 69 73 73 75 78 87 90 94 100 97 93 88 91 90 91 90 91
21 22 22 20 19 18 17 17 16 16 16 18 20 23 25 26 26 26 29 30 29 30 33 31 32 32 32 32 33 35 37 37 39 42 45 51 57 63 69 73 73 76 77 85 86 88 92 97 98 99 98 96 96 96
23 21 19 18 17 17 18 18 19 18 18 19 20 22 23 22 21 23 24 25 26 29 30 29 30 30 29 30 31 32 33 34 35 36 40 46 51 56 61 66 71 73 74 76 83 86 88 90 88 90 92 95 98 99
21 20 17 17 17 18 18 18 19 20 21 21 20 21 22 20 20 21 21 20 22 25 26 27 27 28 28 28 29 30 31 28 31 34 38 41 45 49 54 60 66 70 75 77 76 79 82 84 86 93 94 96 98 100
18 16 16 17 20 22 23 21 21 21 23 23 22 22 21 22 25 27 29 28 27 26 24 25 26 26 26 28 29 30 30 30 32 34 36 38 40 43 48 55 58 63 68 71 73 75 75 78 79 84 86 87 89 91
15 14 13 14 18 20 23 23 24 24 23 24 25 26 24 23 25 25 24 24 26 26 26 26 26 28 28 29 29 30 32 32 34 36 36 36 36 40 44 48 52 55 59 64 68 70 71 74 76 78 80 82 82 84
11 10 9 11 15 19 19 20 23 26 27 27 26 24 25 27 25 24 24 24 24 24 26 28 27 27 27 27 28 30 31 33 34 35 36 34 37 37 42 44 46 48 51 56 59 62 67 70 73 75 77 79 81 80
7 7 7 9 11 16 19 20 21 24 26 27 27 27 26 26 24 23 22 23 24 25 26 26 25 25 25 27 28 29 30 29 31 35 37 37 36 39 41 42 45 47 49 53 55 57 60 61 65 70 72 73 72 68
3 4 5 7 11 14 17 20 22 23 25 29 31 30 26 25 25 22 20 22 23 25 26 24 23 24 25 25 26 28 28 29 29 31 33 33 35 38 40 42 44 45 47 50 51 54 56 58 61 64 65 63 59 56
4 4 7 10 13 15 17 19 21 24 27 30 31 29 27 25 22 23 23 24 25 25 22 22 23 23 22 23 25 26 27 28 29 30 32 32 38 39 40 42 44 44 45 46 47 49 51 54 56 57 56 56 57 56
8 9 11 14 17 19 19 20 20 22 25 26 26 27 28 25 25 25 26 27 29 27 26 26 25 25 25 26 26 27 27 28 27 28 29 33 32 35 40 42 44 44 46 48 52 56 56 54 55 56 54 52 52 51
14 15 15 18 22 23 23 21 21 20 21 25 28 30 32 33 30 29 29 28 26 26 25 24 25 25 25 25 25 23 23 21 22 24 29 33 36 39 37 35 37 42 48 51 49 47 47 46 47 47 46 47 47 45
20 20 18 22 25 25 25 26 25 23 22 23 23 24 24 27 26 28 28 28 29 29 29 29 26 25 25 25 24 22 21 22 23 24 24 26 25 25 27 28 30 33 33 33 35 36 36 37 37 38 39 39 38 38
25 25 24 24 25 27 26 26 27 26 25 24 24 23 23 22 22 21 20 20 20 20 20 19 18 19 18 19 21 20 19 18 17 16 17 18 20 20 22 23 24 25 26 27 28 29 29 28 26 26 30 31 33 33
27 27 28 29 30 30 30 30 29 28 27 26 25 25 24 23 22 21 20 19 19 17 16 15 15 14 13 13 12 11 10 11 12 12 13 14 16 17 15 15 16 19 21 20 20 21 22 24 27 30 32 33 35 37
34 34 34 35 35 36 37 37 35 34 33 32 32 31 29 28 28 28 27 27 26 25 24 22 21 21 20 19 17 16 15 14 15 13 12 11 12 13 14 15 17 18 19 21 23 24 26 28 31 34 35 36 34 34
38 39 39 40 41 42 43 41 41 39 38 37 37 37 37 36 36 35 33 30 28 26 25 23 21 19 18 17 15 14 13 11 10 9 9 9 10 12 14 17 19 20 22 23 25 27 29 31 32 32 33 35 35 36
38 38 38 38 37 39 39 38 36 35 33 33 33 32 30 29 29 28 26 23 22 22 20 18 16 15 12 11 9 8 6 5 4 4 6 6 9 12 13 15 18 21 23 26 28 30 32 34 36 37 39 41 44 46
35 35 33 33 34 35 36 36 36 35 32 31 30 29 29 27 26 25 24 23 21 20 18 14 13 11 9 8 6 4 3 1 3 6 9 12 14 17 20 23 26 29 31 33 35 38 40 42 44 46 48 50 52 54
33 32 32 31 29 29 30 33 32 32 30 29 28 27 26 25 23 22 21 19 16 15 13 11 9 6 4 3 5 7 10 12 15 18 20 23 25 27 30 32 34 37 40 43 46 48 50 52 53 54 56 57 58 59
35 32 31 29 29 29 28 30 29 29 27 25 25 25 23 22 22 21 17 14 10 6 5 4 4 5 8 11 14 17 20 22 26 28 31 32 35 38 40 42 44 47 49 50 51 53 55 56 57 58 58 59 60 60
35 33 32 29 27 26 25 28 25 26 26 24 23 22 18 14 11 10 7 4 1 3 6 9 12 15 18 21 24 27 29 32 34 38 41 43 43 44 45 47 49 50 52 53 55 56 57 59 59 59 59 58 56 54
36 33 33 31 26 24 26 27 26 22 21 19 16 13 10 8 3 1 4 8 11 14 16 19 22 26 29 32 35 37 40 42 43 41 42 43 45 46 47 49 51 52 54 55 56 56 56 56 55 54 53 52 51 50
34 34 33 29 25 23 19 18 16 14 10 7 4 1 2 5 8 10 13 16 19 23 25 27 30 34 37 38 38 39 41 42 43 43 43 45 46 46 47 48 50 50 51 51 51 51 50 50 49 49 48 47 47 47
31 28 23 18 14 12 9 7 5 3 2 3 6 8 10 12 14 16 18 21 24 27 30 32 34 37 39 41 43 44 44 45 45 45 44 44 44 44 45 45 45 46 46 46 45 45 46 45 46 45 46 46 46 46
22 19 16 12 9 7 5 3 1 1 4 6 9 11 13 15 18 21 24 27 30 33 36 38 42 44 45 45 46 46 45 44 43 42 41 41 41 41 41 41 41 41 42 42 42 42 43 44 44 44 44 44 44 43
17 15 13 10 7 4 2 3 5 8 10 12 15 17 19 23 25 28 32 34 37 40 41 43 46 46 46 46 46 45 43 42 40 39 38 37 37 36 37 38 38 39 40 41 41 40 40 41 41 41 42 42 42 42
9 6 3 2 3 6 9 13 15 18 20 21 23 26 28 32 33 35 37 40 43 44 45 47 46 46 46 45 44 42 41 40 38 36 34 34 36 37 37 37 37 37 37 38 39 40 40 40 40 40 40 40 40 40
3 4 6 8 11 13 16 19 22 24 27 30 32 34 36 37 39 40 42 45 47 47 48 48 47 46 45 44 43 42 39 38 37 36 35 36 36 36 36 36 36 37 38 38 38 38 38 38 38 37 37 37 36 36
10 12 15 17 20 22 25 28 29 32 35 35 37 39 40 40 42 45 46 48 48 48 48 47 46 45 45 44 41 40 39 37 37 37 37 36 36 36 37 38 38 38 37 37 36 36 36 35 35 36 36 36 36 36
20 22 24 26 28 30 32 34 37 39 40 40 41 42 44 45 47 48 48 48 48 47 45 44 45 44 41 40 39 37 36 36 36 36 36 36 37 37 38 38 37 37 37 37 36 36 35 35 34 33 33 32 32 32

GFSWCAN_250_spd_060.txt.gz
Wind_Speed
51 46 42 39 37 34 31 29 28 27 26 26 25 26 26 27 28 28 26 29 33 33 30 34 37 39 40 40 40 41 41 46 48 49 51 54 54 61 68 72 82 89 94 94 94 103 98 94 94 88 88 88 83 78
43 39 37 34 31 29 27 25 23 22 22 23 23 22 24 24 23 25 26 28 24 24 27 27 30 32 35 37 37 40 43 42 44 48 52 53 58 60 66 70 75 83 89 97 98 93 97 105 100 97 95 95 92 89
37 34 31 30 28 26 23 21 21 20 20 20 20 20 19 21 21 20 20 18 17 22 24 29 31 28 30 31 33 37 39 42 45 48 50 54 58 60 63 69 74 75 80 86 94 100 99 95 93 95 98 99 97 97
33 30 29 26 23 21 20 19 18 18 19 18 18 16 15 16 18 20 19 18 21 24 27 24 30 31 29 32 34 36 38 40 41 44 46 50 53 54 58 64 70 74 75 82 86 97 102 99 99 98 97 95 95 94
29 28 26 24 22 20 20 20 18 17 16 17 16 14 14 15 16 17 17 18 23 21 22 26 27 30 31 33 34 35 38 37 38 39 42 45 49 52 56 60 67 73 75 73 80 86 92 100 107 102 101 98 96 94
28 26 22 21 20 20 20 19 18 18 17 17 16 13 14 15 16 18 20 23 22 22 23 24 26 28 30 32 34 34 32 32 34 36 38 41 44 48 52 58 63 67 72 71 75 82 83 85 99 99 95 97 100 102
22 19 18 18 19 21 22 22 20 19 19 19 18 15 17 18 21 22 19 20 22 25 26 26 27 27 28 31 30 29 29 31 33 34 36 40 43 46 48 52 56 60 65 69 74 74 76 80 86 91 94 95 98 100
18 17 16 17 20 22 24 23 21 21 19 19 18 18 17 19 16 16 20 22 24 23 25 25 24 26 27 27 28 28 28 31 33 34 34 35 37 39 42 44 49 54 57 62 66 70 73 75 79 81 82 87 91 92
13 12 13 14 17 20 21 21 21 23 21 19 18 17 19 17 18 20 20 20 19 22 26 26 25 24 25 25 26 28 31 32 31 31 31 31 32 33 35 38 43 46 50 55 58 64 69 72 75 78 79 80 80 82
10 10 12 13 16 19 18 17 18 23 23 21 20 19 18 17 17 17 17 18 19 20 22 22 22 24 25 26 26 27 27 27 30 30 29 31 31 33 34 35 37 40 44 49 51 55 59 63 67 71 74 76 79 82
6 6 9 13 17 19 17 15 17 23 25 23 21 19 16 19 19 19 20 21 21 21 22 22 21 21 21 22 23 24 26 28 30 30 27 29 31 34 36 37 37 39 42 45 48 51 54 57 60 64 67 70 72 75
3 5 8 11 15 17 17 19 22 25 27 26 23 21 18 19 20 20 20 21 21 20 21 21 21 20 21 22 23 25 26 26 28 27 30 31 34 37 39 39 39 41 42 44 46 48 51 53 56 59 62 64 67 68
5 6 8 11 14 17 20 24 25 25 24 23 21 21 21 21 21 23 25 24 23 21 21 20 20 21 22 23 24 24 26 27 26 28 30 34 36 35 33 35 37 39 42 44 45 47 49 51 53 56 58 59 60 60
8 9 11 15 18 20 22 22 23 21 20 23 24 24 25 25 24 21 17 15 17 19 19 19 19 20 21 21 23 26 28 28 31 32 33 34 35 37 38 40 42 44 44 45 46 46 48 51 53 54 56 57 58 59
13 14 17 20 22 24 24 24 23 22 24 24 23 21 19 16 18 20 21 21 21 21 20 19 19 19 19 22 24 23 23 26 30 27 28 30 34 38 40 42 44 45 47 49 49 51 52 53 54 54 53 51 50 48
18 18 21 23 25 27 27 27 27 28 29 27 24 21 22 22 20 20 19 18 18 18 18 16 14 14 14 16 15 14 14 15 16 19 22 23 26 29 30 32 32 32 34 36 38 41 43 44 45 44 42 41 41 42
26 25 25 26 26 28 29 27 26 26 26 25 24 21 19 19 17 16 14 13 12 11 9 8 8 9 10 11 11 12 14 15 15 15 17 18 20 23 25 26 26 26 28 29 30 31 32 33 34 34 36 38 38 40
31 32 32 31 30 31 31 30 29 28 27 27 26 25 24 22 21 20 19 17 16 14 13 14 13 14 13 12 12 11 12 12 13 14 13 15 18 19 21 22 21 21 22 23 25 27 29 31 33 35 36 38 40 42
31 32 32 32 32 33 33 32 31 30 29 28 26 25 24 23 22 20 18 17 15 14 14 13 12 11 10 10 8 7 5 4 3 4 6 8 9 10 12 13 16 19 21 23 25 27 30 31 33 35 36 38 39 41
34 35 35 35 36 37 36 34 34 32 31 30 29 28 28 28 27 27 26 24 24 23 22 20 18 16 13 11 9 6 5 3 1 2 4 5 8 11 14 16 18 20 23 25 28 31 33 35 38 39 42 44 47 50
34 33 35 36 37 38 39 37 36 35 34 31 30 30 29 28 28 28 28 27 24 22 20 18 16 13 11 8 6 3 0 3 6 9 11 14 17 20 22 24 26 28 31 33 36 38 41 44 47 49 51 53 55 57
33 34 34 35 35 35 34 34 33 33 32 32 31 31 30 29 28 26 25 22 19 16 14 11 9 7 4 4 4 8 11 14 17 20 22 24 27 30 33 36 38 39 42 44 46 49 50 52 54 56 58 59 59 59
31 31 30 31 31 31 32 31 31 30 28 27 26 26 26 24 20 19 15 12 9 6 3 4 7 10 13 15 18 21 24 26 29 32 35 37 39 41 42 44 45 47 49 51 52 54 56 56 57 58 59 59 59 58
32 31 30 29 29 28 29 28 27 27 26 25 22 20 17 14 11 8 7 8 9 11 13 15 17 20 23 26 29 32 35 36 38 39 40 42 43 45 47 49 50 51 53 55 56 56 57 57 58 58 57 56 54 53
31 30 31 31 30 27 28 27 24 21 19 16 12 9 8 7 6 8 10 12 15 18 21 23 25 28 31 33 36 37 39 42 44 45 47 48 49 50 51 52 53 54 54 54 54 54 54 53 52 52 52 51 50 49
33 31 29 27 26 24 20 18 15 12 9 7 6 6 5 7 10 12 14 16 19 22 25 29 30 33 37 40 43 45 46 48 50 51 51 51 51 51 51 51 51 51 50 50 50 50 50 49 49 48 48 48 48 48
31 29 25 22 18 14 12 9 5 3 3 4 5 6 8 11 14 17 19 22 26 28 30 33 35 37 40 43 46 47 48 50 50 50 50 49 48 47 46 46 46 46 47 47 46 46 46 46 46 46 46 46 47 47
24 21 17 13 10 8 5 4 3 3 5 7 9 11 13 15 18 20 22 25 28 32 34 37 40 42 45 47 48 50 50 50 48 47 45 44 44 43 42 42 42 43 43 43 43 43 43 43 44 44 44 45 45 46
17 14 12 10 9 7 5 4 4 6 8 10 13 15 18 22 24 26 29 32 35 38 41 43 45 47 49 50 50 50 48 46 44 43 40 39 39 39 40 40 40 41 41 41 41 41 42 42 43 43 43 43 43 42
14 11 8 6 3 1 3 5 8 11 13 16 19 22 26 28 30 32 35 37 40 43 45 47 49 50 51 51 50 48 46 44 42 40 39 38 39 39 39 39 39 38 39 39 40 40 40 40 40 40 39 39 39 39
7 3 2 3 6 9 12 15 18 20 22 25 29 32 34 35 35 37 40 43 45 46 48 50 50 51 50 49 48 47 45 43 41 40 39 39 40 39 38 38 38 38 39 39 39 38 38 38 38 37 37 37 36 37
4 6 9 11 15 18 20 22 24 26 29 33 36 39 39 39 40 41 44 46 47 49 50 50 49 49 49 48 47 45 43 41 40 39 39 39 38 38 38 38 38 38 38 38 37 37 36 36 36 35 34 34 34 34
14 15 18 19 21 23 25 27 31 34 38 40 42 44 43 42 44 46 47 48 49 49 48 47 47 47 47 45 43 42 41 40 40 39 39 38 38 38 38 38 37 37 37 37 36 35 35 34 33 33 33 33 33 34

GFSWCAN_250_spd_063.txt.gz
Wind_Speed
60 57 52 49 48 44 40 38 35 33 32 31 29 28 28 26 24 24 22 24 24 24 22 24 24 27 29 32 34 37 38 37 37 42 47 50 51 46 49 58 66 71 79 87 99 94 91 90 82 80 82 82 78 71
55 50 44 47 44 38 35 33 31 30 29 27 25 24 23 21 20 20 19 18 18 19 21 25 29 29 32 35 34 34 33 33 41 44 48 49 50 48 51 55 61 65 69 80 87 93 98 96 94 85 79 79 82 79
48 41 43 42 37 33 30 28 27 26 25 23 21 20 18 18 18 17 15 15 17 19 22 25 22 21 26 28 30 34 41 43 41 43 43 47 49 52 53 54 58 59 62 70 84 90 89 98 101 94 95 92 87 84
37 41 39 36 32 29 26 25 24 23 21 19 17 16 16 15 14 13 13 16 17 17 17 18 24 25 26 31 35 35 34 38 40 40 42 45 49 49 50 51 54 56 59 65 74 82 92 92 97 99 99 98 94 95
38 36 34 30 28 26 25 24 24 24 21 16 14 14 15 14 14 13 14 16 16 18 23 24 25 28 30 29 30 32 34 35 36 39 42 43 44 45 45 48 50 52 57 62 65 70 80 97 98 94 98 100 101 102
34 31 28 26 25 25 25 25 24 23 19 16 13 14 15 14 14 17 18 19 20 20 20 22 24 24 25 28 32 32 31 32 35 36 38 40 42 42 43 45 46 51 57 64 65 70 78 82 89 98 100 102 96 96
28 25 24 23 24 26 27 26 26 23 18 16 15 13 12 7 6 10 14 17 18 18 20 22 23 25 26 27 28 29 30 31 31 32 34 35 36 38 39 41 45 49 53 57 59 64 68 70 74 79 88 95 95 94
22 21 22 23 25 26 27 26 24 22 18 15 15 12 10 11 14 15 16 17 19 20 21 22 23 24 25 26 26 26 27 29 30 30 30 32 33 35 35 40 40 42 47 49 51 57 65 69 72 74 76 81 85 88
19 19 22 23 23 23 25 24 21 19 15 14 15 14 13 15 14 14 16 18 20 21 22 22 23 24 26 25 25 25 26 26 26 28 30 30 31 33 36 38 39 42 45 46 50 54 57 61 68 72 73 74 76 78
17 17 18 20 21 22 21 19 18 18 17 15 16 15 17 17 16 16 17 18 20 22 23 25 25 26 23 24 25 25 26 28 29 29 29 30 32 34 35 38 39 39 42 44 47 51 54 57 61 65 70 73 76 77
12 14 16 19 21 20 15 14 16 19 20 18 17 16 17 17 19 21 21 23 23 24 24 23 24 24 25 24 24 26 28 26 26 26 27 29 31 32 34 35 36 38 39 42 45 49 52 55 58 60 64 67 71 74
11 12 15 16 17 15 16 19 21 23 20 20 20 21 22 23 23 24 23 22 21 22 24 24 25 24 24 25 25 26 25 25 24 24 26 28 30 31 32 33 32 33 35 38 41 43 46 49 52 55 58 61 64 66
10 11 12 13 15 18 21 20 17 16 20 21 22 22 24 25 24 24 25 25 25 23 21 21 21 24 25 25 25 24 25 26 25 26 29 29 29 30 30 28 28 30 33 36 39 41 42 44 47 50 53 56 58 61
13 13 14 15 17 19 19 17 17 21 24 25 26 25 25 24 21 18 16 17 19 20 21 22 21 20 20 19 19 20 21 22 23 23 24 26 28 30 30 30 32 34 37 39 42 43 45 47 49 51 53 55 56 59
14 15 17 18 19 20 20 20 21 22 22 22 21 19 17 19 21 22 23 22 21 21 20 20 19 19 19 20 19 19 20 22 20 20 22 25 28 31 32 32 32 35 37 39 40 41 43 45 45 47 49 52 54 56
17 18 20 23 24 25 25 23 23 22 21 19 20 21 22 22 21 19 19 18 17 17 17 15 14 14 14 13 13 14 17 15 16 20 23 26 29 32 33 34 36 37 39 41 42 44 45 47 49 50 52 54 54 55
22 21 21 23 26 27 26 25 24 23 23 22 21 19 17 15 13 11 11 10 9 9 8 8 8 8 8 8 9 8 10 11 13 15 19 22 23 24 27 30 31 33 34 35 37 40 41 43 44 45 46 46 47 47
28 28 25 25 26 25 24 22 19 19 19 17 17 14 14 13 13 13 12 12 12 11 10 9 8 7 5 4 2 3 3 3 4 6 8 12 14 15 17 19 22 24 26 28 30 32 34 36 37 38 39 40 41 42
28 28 27 28 28 27 26 24 22 20 19 18 17 17 16 15 15 15 15 15 15 15 13 12 11 10 9 8 8 7 6 4 2 2 3 5 7 9 11 13 15 18 20 22 25 28 30 32 34 36 38 41 43 45
30 31 31 30 30 29 29 28 28 27 27 26 26 26 25 26 26 26 26 27 27 26 25 23 21 19 16 13 10 7 5 2 1 4 7 8 11 14 17 18 21 23 25 28 30 32 35 36 39 41 44 46 49 50
38 39 40 40 39 37 38 38 38 38 38 38 38 37 36 35 34 33 32 30 27 25 23 21 17 14 11 7 4 3 5 8 11 13 16 17 20 22 25 27 30 33 35 37 39 42 44 46 48 50 52 54 55 57
39 39 40 40 40 39 38 38 39 39 38 37 37 35 34 32 30 29 27 24 21 18 15 12 9 7 5 6 8 11 14 17 20 22 25 27 29 31 34 36 39 41 43 45 48 49 50 51 53 54 54 55 55 55
38 37 36 36 37 37 38 38 36 35 35 33 32 30 28 25 23 21 18 14 12 9 8 9 10 11 14 16 19 21 24 26 29 31 33 36 38 40 41 43 44 47 48 49 51 51 52 52 53 54 54 53 52 52
37 39 39 38 37 35 34 33 32 31 29 26 24 22 20 17 15 13 12 11 12 13 13 15 18 21 24 27 31 33 36 37 39 41 43 45 47 49 49 49 48 49 49 49 49 49 48 48 48 47 47 46 46 46
35 36 35 33 33 32 30 28 26 23 20 17 15 14 12 11 12 13 13 14 16 19 23 25 26 28 30 32 35 36 40 43 46 48 48 50 51 52 51 50 48 48 47 47 47 46 45 46 45 46 45 45 45 45
33 34 32 30 29 26 24 21 18 14 13 12 11 10 11 12 13 16 18 20 22 23 26 29 31 31 34 37 39 42 46 49 50 51 52 52 50 49 48 49 48 44 43 43 43 44 44 43 43 43 43 43 43 44
29 29 26 24 22 19 17 13 10 10 10 9 9 10 12 15 17 19 21 23 24 27 29 31 34 37 40 44 46 48 51 52 53 53 52 49 46 44 43 42 41 42 42 41 40 40 41 41 41 41 42 43 43 44
26 22 19 16 14 12 11 10 9 8 6 8 10 13 15 17 19 22 23 25 27 30 33 35 38 41 44 47 49 52 54 54 53 50 48 45 43 41 40 39 39 39 38 39 39 39 39 41 42 42 42 42 42 42
19 16 13 12 11 9 7 5 6 8 10 11 12 14 17 21 24 26 28 29 32 35 38 40 43 45 48 51 53 54 54 52 49 49 46 43 39 39 39 38 38 38 38 38 39 40 40 41 40 40 40 39 40 39
15 13 12 9 7 4 4 7 8 10 13 15 16 19 23 26 29 31 34 35 37 38 41 43 46 49 50 52 53 53 51 49 48 45 43 42 41 40 39 38 38 37 37 38 38 38 38 38 37 37 37 37 37 36
13 10 6 4 0 4 7 9 12 14 16 18 21 25 29 32 34 37 39 41 42 43 45 48 49 50 51 52 51 50 50 47 45 43 42 41 40 39 38 37 37 37 38 37 37 37 36 36 36 35 35 35 34 34
9 6 3 3 7 11 13 16 19 21 22 26 30 33 36 38 40 42 43 45 46 48 50 50 50 50 51 51 50 49 47 45 44 42 41 39 38 37 37 37 37 38 37 37 37 36 35 35 34 34 34 33 33 33
9 8 9 12 15 19 22 24 27 28 30 33 37 40 42 44 46 47 48 49 50 51 51 51 50 50 50 50 48 46 45 43 42 40 39 38 37 37 37 37 37 37 36 36 35 35 34 34 34 34 33 33 34 34

GFSWCAN_250_spd_066.txt.gz
Wind_Speed
62 61 60 59 58 55 51 49 43 43 41 38 35 31 28 26 24 23 20 20 24 20 18 22 23 26 26 28 32 33 34 34 37 38 40 43 46 48 48 47 49 55 59 70 74 86 86 88 85 84 85 83 81 82
58 56 56 54 52 48 45 42 41 38 35 32 28 25 24 21 20 20 17 19 19 18 20 21 24 27 32 33 30 30 32 32 35 36 41 44 46 47 49 49 52 56 58 66 73 80 89 87 86 84 83 86 84 86
55 55 53 50 46 41 39 38 37 33 30 26 24 23 20 18 17 16 15 16 17 18 19 21 19 20 27 27 30 35 36 33 34 38 44 46 46 48 48 50 50 55 55 60 65 69 84 90 84 83 84 80 83 86
53 51 48 44 38 36 35 34 32 28 25 22 20 20 18 15 14 15 15 15 15 14 15 20 25 24 25 27 30 30 30 36 37 37 39 40 44 49 51 51 49 48 48 53 60 66 71 90 91 86 81 82 83 85
48 45 41 35 34 32 32 31 27 25 23 20 18 17 16 13 14 15 16 17 19 22 22 20 24 26 27 28 29 31 33 34 35 37 39 42 44 44 44 44 43 44 48 51 55 61 65 77 93 97 100 95 90 89
43 39 32 31 29 29 29 27 25 23 20 19 17 15 12 9 11 12 15 17 16 16 18 21 21 21 21 23 26 29 29 31 32 33 36 38 39 42 40 43 46 49 49 50 51 55 63 72 80 91 103 101 97 92
34 29 28 26 26 27 27 26 24 21 20 17 14 12 13 14 14 13 13 13 16 19 19 19 20 21 23 25 27 28 30 32 33 34 35 34 34 36 39 43 46 48 49 50 52 55 58 64 68 75 83 93 97 101
26 25 23 25 26 26 25 24 21 19 17 18 14 15 14 11 11 12 13 13 15 18 18 20 20 22 23 25 26 27 27 28 29 29 30 29 31 34 37 40 43 46 47 46 48 51 54 58 62 65 68 74 80 86
22 23 23 24 24 23 22 19 20 18 19 19 15 18 17 15 13 13 14 14 16 17 18 18 18 19 20 22 24 25 25 25 25 25 26 28 29 31 35 37 38 40 40 42 43 46 51 55 57 59 62 65 70 74
21 21 22 22 21 20 18 18 18 20 20 16 19 21 18 16 16 15 15 16 18 18 20 21 22 19 17 19 21 22 23 24 25 25 25 26 29 30 32 32 35 37 37 38 39 43 46 50 52 56 60 64 67 70
18 19 19 19 18 16 17 17 18 20 20 19 23 20 17 17 16 16 16 16 16 17 17 18 19 20 21 19 20 22 24 24 24 24 26 27 29 29 29 31 31 32 33 34 35 38 42 44 47 50 54 58 62 65
16 16 17 16 16 18 17 19 22 22 23 22 21 21 21 21 20 19 18 17 19 19 19 19 20 20 21 22 20 17 17 19 21 21 23 25 27 28 28 29 31 32 32 33 36 38 40 42 44 46 48 50 53 55
14 15 15 16 18 18 18 17 18 24 26 26 24 23 22 21 21 20 21 22 22 20 21 20 20 19 19 18 18 18 17 16 17 20 21 21 22 22 24 25 25 27 29 31 35 37 38 40 42 44 46 48 50 53
14 16 18 18 19 20 21 23 28 29 27 26 25 23 21 17 15 14 15 18 18 19 19 18 18 16 15 15 15 14 14 17 19 17 17 19 22 23 25 27 28 29 31 33 35 37 38 41 42 44 46 48 50 52
18 19 20 22 26 28 28 26 27 26 25 23 21 21 22 22 22 22 21 20 19 19 19 19 18 18 19 19 17 17 16 14 13 18 20 21 22 24 25 26 28 29 32 34 36 38 40 41 43 44 46 48 49 51
23 24 27 30 31 28 26 26 25 22 19 20 24 23 22 21 19 18 18 17 17 16 14 15 16 16 14 13 11 11 8 10 16 16 18 20 22 23 24 25 26 28 29 32 33 34 36 37 39 40 43 45 47 49
25 30 30 32 32 32 32 32 31 30 28 24 22 21 19 19 19 19 18 18 16 16 16 14 12 12 12 11 11 13 15 18 19 21 23 23 24 25 26 27 29 30 32 34 35 37 38 40 41 43 45 47 49 50
23 26 28 29 29 30 31 31 30 27 25 23 22 19 18 18 17 16 14 15 16 17 17 16 15 15 15 15 13 11 9 10 10 10 12 12 13 14 15 17 19 22 24 26 29 31 33 35 38 41 42 44 46 48
26 26 27 27 27 27 28 27 27 26 25 25 25 24 23 24 25 24 23 22 20 18 16 16 15 14 13 12 11 9 7 5 2 3 5 7 9 11 13 15 18 20 23 25 27 29 31 34 36 39 41 44 46 48
30 30 30 31 31 31 31 30 29 29 29 29 29 28 29 28 28 27 26 25 25 24 22 21 19 17 14 12 10 8 7 6 7 9 10 12 14 17 20 24 27 29 31 33 35 37 39 42 43 45 47 49 50 53
34 35 35 35 35 35 35 35 35 34 33 33 32 33 32 31 31 30 30 29 27 24 22 20 19 17 14 11 8 7 8 9 12 15 18 21 23 26 29 32 35 38 40 42 44 46 48 49 50 51 52 54 55 55
39 39 39 39 39 39 38 38 40 39 38 38 38 37 36 35 33 31 29 26 23 21 18 15 13 10 8 7 8 11 14 17 20 22 25 27 29 32 35 38 40 42 44 44 43 45 46 49 49 49 50 50 50 51
45 44 43 43 43 41 41 40 38 38 39 38 37 35 32 30 27 24 21 19 17 16 14 13 12 12 13 14 15 18 20 23 26 30 34 36 38 40 42 42 44 45 45 44 44 43 43 43 43 43 43 42 42 42
42 44 44 43 41 41 40 39 38 36 34 32 30 27 25 23 20 19 17 14 13 13 13 12 13 14 16 19 22 25 29 32 35 39 42 45 47 47 46 46 45 43 41 40 39 40 40 40 40 39 39 40 39 39
42 42 42 41 40 38 34 31 29 27 25 24 21 19 20 18 16 14 14 13 12 13 14 15 18 21 24 28 31 33 36 39 42 46 48 50 49 46 43 41 40 40 40 40 39 38 39 39 39 39 38 38 39 40
39 38 38 36 32 30 29 25 22 20 18 17 17 16 15 14 14 13 12 13 14 16 19 22 25 28 31 34 38 39 41 45 48 51 52 52 49 44 42 39 38 38 38 38 38 37 37 37 37 37 37 37 38 39
36 34 32 29 25 20 19 19 18 17 14 13 12 13 13 15 17 17 19 21 22 24 26 28 30 33 36 39 42 45 48 50 52 52 51 48 45 44 42 41 39 38 38 36 36 37 36 36 36 36 38 38 39 40
31 29 25 21 18 18 17 14 13 12 12 11 10 12 13 14 16 19 22 24 27 29 30 33 34 36 39 41 45 48 50 52 52 50 47 46 44 41 40 39 38 36 36 36 36 36 36 37 38 38 39 39 39 39
24 21 18 16 15 13 12 11 10 9 9 9 9 10 13 17 20 22 24 26 28 29 31 34 36 39 42 46 48 50 52 52 51 49 47 43 42 40 38 37 37 36 35 35 36 37 37 37 37 38 38 39 39 38
19 17 16 15 13 10 7 6 6 6 8 9 11 13 17 21 24 26 29 32 34 35 37 39 42 44 46 48 49 51 51 50 49 46 44 43 41 38 37 36 35 35 35 35 36 36 36 36 37 37 37 37 37 37
17 15 14 11 7 4 1 3 6 9 12 15 17 20 23 26 28 31 34 37 39 41 43 46 47 48 49 51 51 51 51 48 45 45 44 42 40 38 38 36 36 35 36 36 36 36 36 36 36 36 35 35 35 35
14 12 10 8 5 4 6 9 12 15 17 19 22 25 28 31 34 38 40 43 44 46 48 49 49 50 50 50 51 50 48 46 45 44 42 39 39 38 37 36 36 36 36 36 36 36 36 36 35 35 35 35 34 34
11 9 8 9 11 12 13 16 20 22 25 28 31 33 36 38 41 44 45 46 47 48 50 51 51 51 51 51 50 49 47 46 44 42 40 39 38 37 36 36 36 36 36 36 36 36 36 35 35 35 35 35 34 34

GFSWCAN_250_spd_069.txt.gz
Wind_Speed
66 66 64 65 63 61 59 58 56 52 49 46 42 43 41 37 35 32 30 30 32 29 20 24 26 29 27 26 27 28 30 30 35 38 38 40 45 48 50 48 48 50 52 58 62 65 65 71 68 70 73 80 78 73
62 63 63 62 59 56 55 54 49 45 43 40 40 39 35 31 29 28 26 28 26 23 16 25 23 24 24 25 27 27 27 28 28 30 35 40 43 46 48 49 50 52 53 56 61 65 66 66 67 69 77 77 82 79
60 60 59 57 55 53 52 48 43 40 38 36 37 33 30 26 25 28 22 23 21 19 20 21 18 24 27 24 28 28 28 27 28 32 35 40 44 46 47 49 50 53 56 58 55 59 63 66 67 69 77 79 76 82
56 56 55 54 52 51 49 42 38 37 34 34 32 30 25 23 23 22 20 17 17 19 20 22 22 21 21 23 25 25 27 29 34 38 39 41 43 45 47 49 51 52 50 47 46 49 58 63 66 67 80 83 81 80
52 52 50 49 49 47 41 36 34 32 32 30 29 25 22 22 20 18 17 14 13 16 17 18 19 19 19 21 24 24 29 36 37 38 39 40 43 45 49 50 52 47 43 44 46 51 56 60 64 69 77 87 85 83
46 46 45 45 42 37 33 31 30 31 30 27 25 22 22 21 17 17 14 9 8 12 15 15 15 18 22 24 24 28 30 31 36 38 39 40 44 46 49 45 42 42 44 47 50 52 54 58 62 67 68 89 92 91
39 39 40 37 33 30 29 29 30 28 26 24 23 20 21 17 14 12 11 12 8 9 13 14 14 15 18 19 23 27 28 31 34 36 36 36 36 40 39 40 40 43 46 47 49 52 55 57 59 63 67 72 87 97
32 32 30 29 28 28 29 29 27 25 24 22 21 21 18 15 13 10 10 10 7 8 13 13 13 16 18 21 23 26 28 29 30 30 30 29 32 33 33 37 39 43 46 45 47 49 52 56 59 62 67 71 75 81
25 25 26 27 28 28 27 26 25 24 22 21 20 19 16 15 14 11 9 8 9 10 11 12 13 14 15 17 20 23 26 27 27 26 26 27 28 29 33 36 39 41 42 42 44 45 46 50 53 56 59 61 68 73
23 26 28 28 26 26 26 24 22 20 19 19 21 20 16 16 12 11 10 9 10 11 11 12 12 11 12 12 16 18 20 21 22 24 25 26 28 30 30 29 30 32 33 36 39 39 41 46 50 52 54 57 61 64
26 26 26 25 25 24 24 20 19 19 21 24 23 17 17 15 13 11 12 14 15 15 14 16 19 19 18 14 12 17 18 18 19 20 21 22 23 24 25 28 30 30 31 33 35 36 38 42 47 50 52 56 59 63
23 24 23 23 22 22 19 19 19 21 24 20 16 17 17 17 15 15 15 14 14 15 14 14 15 17 19 19 17 15 14 15 16 18 19 19 19 21 22 23 24 26 27 30 31 33 37 41 44 47 49 52 55 58
21 21 21 21 22 19 19 20 24 24 24 22 19 17 18 17 18 18 18 17 16 16 16 15 13 13 12 13 14 13 14 14 15 14 11 11 13 15 17 19 21 22 25 27 30 33 34 36 38 41 43 45 47 50
20 21 22 21 21 23 25 26 26 26 23 19 19 19 17 16 15 14 15 16 15 16 16 16 15 14 14 12 11 12 10 8 6 8 10 13 14 16 18 20 21 23 25 27 29 31 32 33 34 36 38 40 43 46
22 22 23 25 28 31 29 26 27 26 22 19 19 21 21 21 20 20 19 18 16 15 16 14 13 12 12 11 9 7 5 3 5 9 10 13 15 17 19 20 22 23 24 27 29 31 34 36 39 40 42 43 45 46
25 27 31 33 31 28 24 23 23 22 21 20 20 21 21 21 19 19 18 17 17 16 15 13 11 11 9 7 5 3 4 10 14 12 13 15 17 17 18 19 20 21 23 25 26 29 32 34 37 39 41 43 45 47
29 28 28 30 29 27 26 26 25 25 25 24 23 21 18 18 17 16 16 16 16 14 12 11 9 8 7 8 9 9 9 10 10 12 15 17 20 22 24 25 27 28 29 30 31 33 34 35 37 39 41 42 44 46
32 32 31 32 33 34 34 32 30 28 25 25 23 20 17 16 19 20 19 17 16 15 13 10 10 9 8 7 6 6 8 11 13 13 13 15 15 16 17 18 20 21 23 25 27 30 33 35 37 39 41 42 44 46
31 33 31 31 32 31 29 29 28 26 24 24 23 21 20 20 19 19 18 16 15 14 12 10 9 9 9 9 7 7 7 7 4 2 2 6 9 13 17 20 22 25 28 30 33 36 38 40 42 43 45 46 48 49
33 33 31 31 30 27 27 28 27 27 26 25 25 25 25 23 21 20 18 17 15 16 17 17 19 20 19 16 14 10 5 2 4 6 9 13 17 20 24 27 30 33 37 39 41 43 46 47 48 49 51 52 53 53
35 34 34 33 32 31 30 30 29 28 26 24 24 23 23 23 24 25 26 28 28 28 26 22 20 16 13 9 5 1 3 7 10 14 17 21 24 28 31 34 37 39 42 44 46 47 49 50 50 51 52 53 54 54
38 37 36 34 33 32 31 31 31 31 32 32 33 34 34 34 34 34 33 29 26 23 20 16 13 9 6 5 6 8 11 14 17 20 23 27 32 34 36 39 42 43 42 42 44 46 47 49 49 49 49 50 50 51
38 38 37 36 36 37 37 37 38 39 40 40 38 37 35 33 32 29 27 23 18 15 13 12 10 8 7 9 12 15 18 22 25 29 32 35 39 42 44 44 42 40 39 40 42 42 42 42 42 42 42 42 42 43
46 46 45 45 45 46 44 42 41 39 37 35 33 31 29 26 24 21 18 17 15 13 10 8 8 10 13 16 20 24 27 30 33 36 39 43 46 47 47 44 41 39 39 39 38 39 39 39 38 39 39 39 39 39
47 47 47 46 44 42 40 37 35 33 31 29 27 24 22 21 20 18 15 13 11 8 7 11 14 18 21 25 28 31 33 36 40 44 47 49 49 49 46 44 42 41 39 37 36 36 36 36 36 36 37 38 39 39
45 44 42 40 38 35 33 30 28 26 25 24 23 23 21 19 17 14 12 11 12 13 15 17 20 23 27 29 32 36 38 42 45 48 50 50 50 46 44 42 41 40 38 37 36 35 34 36 36 36 37 37 38 39
40 39 36 32 28 27 27 25 24 23 22 21 18 17 15 13 13 12 12 14 15 17 19 22 26 29 31 34 36 39 42 45 49 50 51 50 48 45 43 41 40 38 37 36 35 34 34 34 35 35 36 37 37 38
33 31 28 27 26 23 19 20 21 19 16 13 11 10 10 11 12 13 14 16 19 23 26 29 30 33 36 38 41 43 45 48 50 50 49 47 44 43 42 41 39 36 36 36 35 35 35 35 36 36 36 36 36 37
26 24 21 20 19 19 18 17 15 13 11 9 7 6 8 11 14 17 20 22 24 26 28 31 34 36 39 42 44 46 48 50 50 51 48 44 44 44 42 40 37 36 36 36 35 36 36 36 36 37 37 37 37 36
21 20 19 19 18 16 14 11 9 7 5 3 5 8 11 15 18 22 25 28 29 31 33 36 38 40 43 46 47 49 51 51 50 49 46 45 43 41 38 36 36 36 36 36 36 36 37 37 37 37 37 37 37 36
20 20 19 16 14 11 8 5 3 1 3 6 9 13 17 20 24 29 31 33 34 35 37 40 42 44 47 48 50 52 52 52 50 48 47 44 42 40 38 37 36 37 36 36 36 37 36 36 37 37 37 36 36 36
19 18 17 14 11 9 7 5 6 8 11 14 16 20 24 28 32 35 36 37 38 39 42 44 46 48 49 51 53 53 52 50 49 47 45 44 41 40 39 38 38 37 37 37 38 37 37 37 37 37 37 37 36 35
18 17 15 13 11 10 9 11 13 15 18 21 25 28 32 35 38 40 40 42 42 43 46 47 48 49 51 52 52 51 50 49 47 45 44 42 40 39 38 38 38 38 38 38 37 37 37 37 37 37 37 36 35 34

GFSWCAN_250_spd_072.txt.gz
Wind_Speed
68 67 66 64 62 62 61 60 59 57 56 54 53 51 48 46 46 44 42 41 39 33 27 28 27 26 23 23 21 24 24 26 30 28 27 32 37 45 49 50 50 50 50 52 54 55 62 62 64 67 68 66 72 79
64 64 62 61 61 60 59 58 56 54 52 51 48 45 44 43 43 41 36 37 34 30 23 25 26 22 22 25 20 23 23 23 27 30 35 36 40 47 48 49 51 50 52 54 52 57 61 63 65 68 71 68 68 78
61 58 59 59 58 57 56 55 53 52 49 48 44 42 41 40 39 37 34 29 27 28 25 24 23 23 22 21 20 22 22 21 28 32 35 37 40 42 45 48 48 53 54 54 53 55 59 61 65 68 71 71 72 68
55 56 57 56 55 55 53 51 51 48 46 43 40 39 38 37 34 31 31 25 22 22 21 22 19 18 20 18 19 20 24 26 28 31 34 36 39 41 44 47 50 54 54 56 49 49 54 59 61 66 70 72 73 73
50 51 51 51 50 50 48 47 46 44 42 39 37 36 35 34 30 24 25 23 21 19 18 16 13 16 17 18 20 20 26 29 32 34 37 40 40 41 45 48 51 53 54 46 47 48 50 54 58 63 68 70 72 70
45 46 46 45 45 44 43 43 41 38 36 35 34 32 32 29 25 18 20 20 19 16 17 10 9 11 15 19 18 20 27 28 29 33 37 39 41 42 46 49 51 54 49 45 47 50 52 55 58 62 65 68 68 69
37 38 39 39 40 40 39 37 35 33 32 32 30 29 28 24 17 16 15 16 14 12 12 8 10 12 13 16 19 22 21 18 26 31 34 37 40 41 43 46 48 45 45 45 49 53 52 51 54 57 61 65 66 68
32 32 33 33 34 35 33 31 30 30 31 29 27 26 23 16 16 15 15 13 9 10 8 8 7 9 11 13 15 16 18 19 21 26 30 32 32 34 34 34 34 34 38 44 47 49 50 49 52 55 58 60 65 69
29 29 29 28 28 29 29 29 28 30 29 26 24 23 18 16 15 12 12 11 8 8 7 6 7 9 10 11 13 15 17 19 19 20 23 25 26 24 23 26 29 35 39 40 42 44 46 48 50 52 53 54 59 62
26 26 26 26 26 27 28 28 29 28 22 23 23 20 16 14 12 12 12 11 9 9 9 10 11 10 10 10 11 14 17 20 20 22 24 24 24 23 25 30 35 38 38 39 40 42 44 44 46 49 51 53 57 60
24 25 25 26 27 28 28 27 24 22 23 22 19 16 14 14 14 13 11 10 11 12 12 13 14 16 17 15 12 13 15 17 18 21 23 23 22 22 24 27 29 30 30 32 33 35 37 41 43 46 50 52 54 58
25 26 26 27 26 25 24 22 21 23 21 19 15 14 13 13 13 13 11 10 9 10 12 12 12 13 17 19 18 14 13 14 14 15 16 15 18 18 19 21 24 26 27 28 30 33 36 39 42 44 47 51 53 56
24 25 24 24 23 22 23 24 25 22 18 16 18 18 17 17 16 12 11 11 11 13 13 12 12 11 13 15 16 16 15 13 12 12 11 12 13 15 16 18 21 23 24 25 26 30 32 34 37 39 42 45 48 51
23 23 23 23 23 25 25 23 20 20 22 22 20 18 17 15 13 13 14 16 16 15 16 15 14 15 16 16 15 14 12 11 11 11 11 11 12 13 14 16 17 18 19 20 22 24 27 29 33 36 39 42 45 47
23 24 23 25 26 25 23 22 22 22 23 20 16 16 16 16 16 15 15 16 17 16 17 16 16 15 15 14 14 15 15 13 13 12 9 9 9 9 9 10 13 16 19 21 23 25 28 31 33 35 38 40 43 45
24 24 26 26 25 24 23 22 22 25 24 22 22 21 20 18 16 16 16 17 16 16 15 15 14 14 15 14 14 11 9 5 3 0 2 4 5 7 8 11 14 16 19 21 23 25 29 32 36 38 41 43 46 48
27 26 23 22 22 21 22 26 28 26 25 24 21 20 20 17 17 17 17 17 15 15 15 15 14 13 12 11 10 7 5 5 5 5 7 10 13 15 17 17 19 20 21 23 25 28 31 34 37 39 42 45 47 49
26 26 26 27 28 29 30 28 27 27 26 25 23 22 20 20 20 20 20 18 18 18 17 16 14 13 11 11 10 7 6 7 7 6 5 2 3 8 11 15 19 22 25 28 31 34 36 38 40 42 43 45 46 48
31 30 30 31 31 31 29 27 26 26 27 26 25 23 21 20 19 20 20 20 19 17 16 15 14 13 11 10 11 11 10 8 5 5 7 10 13 16 19 22 26 29 32 35 37 40 42 43 44 46 47 48 50 50
34 32 30 29 28 28 30 31 29 29 26 25 26 26 24 24 24 23 22 21 20 18 16 17 21 22 20 16 13 9 7 6 7 9 12 17 20 23 26 30 33 35 37 40 42 43 44 46 48 50 51 51 51 52
31 32 30 29 29 30 31 30 30 29 27 26 25 25 24 23 23 23 23 25 30 30 28 25 23 19 15 10 5 4 7 9 13 16 19 22 25 29 33 36 38 41 43 44 44 45 47 48 50 51 52 53 54 54
34 33 33 33 33 31 31 29 28 26 25 25 25 25 25 27 31 34 36 33 30 26 22 18 14 10 6 3 4 7 10 15 18 22 26 29 34 37 40 43 46 45 45 44 44 45 47 48 48 48 49 48 48 48
32 32 31 29 29 29 30 29 29 28 28 28 31 35 37 37 36 33 29 24 21 17 13 9 7 4 3 7 12 17 20 24 27 30 34 37 41 43 46 48 48 46 43 42 43 43 43 43 44 44 45 45 44 44
32 31 32 33 32 33 33 34 35 37 38 39 38 36 34 31 27 24 21 18 16 13 9 7 6 7 13 18 20 22 25 29 32 35 40 43 46 49 51 51 49 46 44 43 42 42 42 42 41 40 40 40 40 40
37 38 38 39 39 40 40 41 40 37 34 33 31 29 27 25 23 20 17 14 11 8 8 10 13 15 16 19 22 25 30 34 37 41 45 48 50 52 53 51 48 45 43 41 41 41 40 40 40 39 39 39 38 38
45 44 43 40 39 37 36 35 34 33 31 29 28 25 22 20 17 14 12 10 10 11 10 11 13 16 21 23 27 31 35 40 42 45 48 50 51 52 51 48 46 44 43 41 40 38 37 37 37 37 37 38 38 38
42 41 40 39 36 34 33 32 30 28 27 25 22 20 17 14 12 11 11 10 10 10 12 14 18 22 27 31 34 36 40 43 45 48 50 51 50 48 46 46 44 43 41 39 38 36 36 36 36 36 37 38 38 38
36 35 33 31 31 31 29 27 25 23 20 18 16 14 11 9 8 8 7 9 12 16 18 23 27 30 33 36 37 39 43 45 48 51 52 50 48 47 46 45 43 41 40 38 37 37 36 36 36 36 36 37 37 37
30 29 29 29 29 28 26 23 19 18 16 14 10 6 5 4 6 8 13 17 20 23 27 30 33 35 37 39 41 44 47 48 51 53 52 51 50 47 45 44 42 40 39 38 37 38 38 37 37 37 37 37 37 37
26 25 24 22 21 21 19 17 16 13 11 8 3 1 3 7 10 15 19 23 27 31 34 36 38 40 43 45 46 48 50 52 53 53 52 52 49 46 45 44 42 41 40 40 39 38 38 38 38 37 37 37 37 37
24 24 24 22 20 18 16 13 11 9 6 3 3 6 10 14 18 21 25 29 32 35 39 41 42 45 48 49 50 50 52 54 54 53 52 50 47 46 44 42 41 40 40 39 38 38 38 38 38 38 38 38 37 37
21 21 21 19 18 15 13 11 8 6 5 6 9 13 18 22 25 28 31 34 37 40 43 43 47 50 50 51 52 53 54 55 54 53 51 48 47 46 44 43 42 41 40 39 39 39 38 38 38 38 37 37 37 37
21 21 19 18 17 15 12 11 10 11 12 13 16 20 24 28 31 35 36 38 41 43 44 47 50 51 51 53 53 54 55 55 54 51 49 47 46 44 43 42 41 40 40 40 39 39 39 39 38 38 37 37 37 36

GFSWCAN_250_spd_075.txt.gz
Wind_Speed
62 61 60 58 58 57 57 58 59 58 57 56 55 53 51 51 51 48 46 47 44 40 36 30 27 28 27 24 22 20 19 19 19 21 26 28 30 32 39 43 44 48 48 49 50 52 58 54 56 65 66 67 67 65
63 62 61 59 58 58 58 59 59 58 57 56 53 50 49 48 48 44 41 44 40 35 29 25 27 27 22 22 21 20 17 18 19 20 25 28 30 31 37 44 46 49 49 49 52 53 55 54 58 67 69 68 66 67
62 62 59 59 58 58 58 58 57 55 54 53 50 47 46 46 44 42 38 37 37 30 23 20 24 25 19 20 17 17 15 19 20 23 27 31 33 36 40 44 46 46 49 48 51 53 55 55 58 67 69 67 68 70
59 60 58 57 56 56 56 55 54 53 51 49 46 44 44 42 38 38 37 32 30 26 23 15 20 23 19 17 13 16 15 20 23 24 28 31 33 36 39 42 45 47 49 53 54 54 54 54 55 64 70 70 70 71
53 54 52 51 53 52 52 51 50 49 48 45 43 42 40 37 34 32 34 30 23 21 21 15 17 19 17 14 15 17 16 22 24 25 28 31 33 36 38 40 43 45 48 51 48 45 49 49 52 58 65 71 74 72
45 46 45 47 46 47 47 47 46 44 43 40 39 37 35 33 30 26 29 28 21 16 17 16 15 16 15 15 14 15 19 21 21 25 27 30 33 35 37 40 41 45 48 47 45 47 50 51 50 54 61 66 71 74
40 41 40 40 40 41 41 40 40 39 37 36 34 32 30 28 25 22 21 21 18 17 15 15 14 18 16 12 10 14 18 16 18 21 24 29 33 35 36 39 41 44 45 44 46 48 50 52 51 53 58 63 67 70
33 33 35 36 36 37 37 36 35 35 34 31 29 28 26 24 21 17 17 14 15 14 15 12 13 11 11 11 12 12 11 10 14 17 21 26 27 31 34 36 38 37 36 40 43 48 49 50 51 52 55 59 63 67
27 28 29 30 30 30 31 31 32 31 28 26 25 24 22 19 15 14 12 11 11 12 12 11 10 10 10 10 11 11 12 13 12 14 17 19 20 23 26 26 26 28 31 35 40 46 47 48 49 50 51 54 57 63
27 27 26 26 26 27 27 29 28 27 26 23 23 20 17 12 16 12 9 9 12 11 12 12 13 13 13 12 12 13 14 15 13 13 13 15 16 16 17 18 22 27 31 36 40 42 44 45 45 46 48 50 52 55
24 26 26 26 25 25 26 25 25 25 22 22 18 16 12 16 12 9 8 10 10 10 10 11 12 13 16 15 15 16 17 17 19 18 18 18 20 22 26 28 30 31 32 35 37 39 41 42 44 47 49 50 52 55
24 24 24 25 26 25 25 26 25 22 22 19 17 16 18 14 12 10 10 9 8 7 8 9 10 12 16 18 17 17 15 13 11 12 15 16 16 17 19 20 21 23 24 27 29 32 36 39 42 45 48 51 53 54
24 24 24 25 25 25 25 22 23 22 19 18 20 21 18 14 11 11 10 10 10 10 11 12 12 11 14 16 18 18 18 17 15 13 12 12 13 14 15 17 19 20 21 23 25 28 30 34 37 41 45 48 52 56
23 23 23 23 23 23 24 23 20 19 21 22 20 17 16 15 14 14 14 14 15 15 16 18 17 18 18 18 18 18 17 17 17 17 17 14 12 12 12 12 13 15 19 21 24 27 30 32 35 38 41 44 47 50
22 22 22 23 23 21 20 21 23 24 24 22 21 20 19 19 17 15 15 16 16 18 18 18 17 18 19 19 18 17 16 15 14 13 12 12 13 13 13 14 15 17 19 21 24 26 29 32 36 40 42 45 47 50
21 21 21 21 21 22 23 23 23 24 25 24 24 23 20 21 19 17 17 17 17 20 19 18 19 19 18 17 17 16 15 14 13 12 11 10 9 10 12 13 16 17 20 22 26 29 31 34 36 38 41 43 46 48
24 23 21 21 22 23 24 25 27 29 27 25 24 24 24 23 20 19 21 21 22 22 21 20 19 18 17 17 16 15 15 11 9 7 4 2 3 6 8 10 12 15 18 20 23 26 29 31 33 36 38 42 44 47
22 23 26 27 26 26 26 28 27 25 24 26 26 27 28 27 24 24 24 22 21 21 21 20 20 20 19 18 16 15 13 11 9 6 4 5 7 9 12 16 20 23 25 28 30 32 35 37 39 40 41 42 43 45
28 29 29 30 30 33 33 31 30 28 29 29 28 27 26 24 23 24 23 22 22 24 24 23 21 19 19 18 16 14 11 7 4 4 7 10 13 15 19 23 27 31 34 37 40 42 44 46 48 49 50 51 52 53
31 31 31 32 31 31 32 32 32 34 33 31 30 30 27 26 25 25 26 26 26 23 23 23 22 21 19 15 10 7 5 4 5 9 13 16 20 24 26 29 31 34 37 40 43 45 47 48 49 50 52 53 54 55
31 33 33 33 34 33 32 33 33 32 31 30 29 28 28 27 29 29 27 27 27 24 24 22 20 16 13 9 4 1 3 6 10 13 16 21 24 28 32 35 38 41 43 44 47 47 46 47 48 50 51 52 51 51
33 34 35 34 34 34 34 32 31 31 30 30 31 31 30 28 28 28 30 28 27 25 23 20 15 11 7 3 1 4 8 11 16 20 23 27 31 35 38 41 44 46 46 48 47 45 45 45 45 45 45 45 46 46
33 33 33 32 32 31 31 31 31 31 31 30 30 31 32 32 31 31 30 28 25 21 17 13 10 6 3 1 6 10 13 17 21 25 29 33 37 40 44 45 47 48 49 47 45 44 43 43 42 42 43 43 43 43
28 28 30 31 30 30 30 31 32 32 31 31 32 34 34 33 30 29 26 23 19 16 13 9 5 2 6 9 11 15 19 24 28 32 36 38 41 44 48 50 51 50 48 46 45 43 42 41 41 40 40 39 38 39
28 29 29 30 30 30 31 32 33 34 35 36 36 35 33 30 27 23 20 17 14 10 6 4 6 8 11 15 17 21 25 29 34 38 41 45 48 50 52 52 50 48 47 46 44 43 42 41 39 38 37 37 36 36
31 31 31 33 33 35 36 38 37 36 36 35 32 29 26 23 20 16 14 11 9 6 4 4 7 10 14 20 25 28 32 36 41 45 46 48 50 53 53 51 49 48 47 45 43 41 40 39 38 38 37 37 37 37
37 38 38 37 37 36 35 34 33 32 30 28 26 23 20 19 16 13 10 7 5 7 8 12 14 17 21 27 32 36 39 42 46 48 50 52 54 54 52 51 49 48 46 43 41 40 38 37 36 36 37 37 37 37
36 35 35 34 34 33 32 30 28 27 25 23 22 20 17 14 11 8 6 6 7 9 11 15 19 25 28 33 38 41 44 47 50 52 53 56 56 54 52 50 49 47 43 41 39 37 37 36 35 35 35 36 37 37
31 31 31 31 31 29 29 27 25 23 21 19 16 12 9 6 4 3 6 9 12 16 19 22 27 31 34 38 42 45 48 51 53 54 56 57 55 53 51 50 49 46 43 41 39 39 38 37 37 37 37 37 36 36
28 28 28 28 27 26 24 22 21 19 17 13 8 5 2 1 4 8 12 15 19 22 24 27 32 35 38 42 46 49 51 54 55 56 57 56 55 53 50 49 47 45 44 43 41 40 39 38 38 38 37 37 37 37
24 24 24 23 23 21 17 16 15 14 12 9 6 4 5 7 11 14 18 21 25 27 30 34 37 39 42 45 49 51 54 55 56 57 57 55 54 51 48 48 46 44 43 41 40 40 40 39 39 38 38 38 38 38
25 24 24 23 23 20 19 17 14 14 12 10 8 7 10 14 17 21 24 27 31 33 35 37 40 42 45 49 51 53 55 56 57 57 56 55 52 49 48 46 45 43 41 41 40 40 40 40 39 38 38 38 37 37
23 23 22 22 22 20 18 16 15 15 13 13 13 15 17 20 23 27 30 33 35 36 39 41 43 45 48 49 52 54 56 57 57 56 55 53 51 49 47 46 44 42 41 40 41 41 40 40 39 39 39 39 38 38

GFSWCAN_250_spd_078.txt.gz
Wind_Speed
62 61 60 59 57 56 56 55 54 53 51 49 48 48 48 48 47 47 47 47 45 44 43 42 36 36 38 32 28 26 21 21 20 21 24 24 24 28 32 36 35 35 42 43 48 51 54 51 52 55 54 54 58 61
60 61 60 59 58 56 55 54 52 50 49 49 50 50 49 48 46 46 45 45 41 41 40 35 31 32 35 30 20 22 19 20 19 20 22 22 23 26 27 30 35 44 46 53 55 55 57 54 53 56 55 55 60 66
60 59 59 57 56 55 55 53 53 52 51 50 49 49 48 47 45 41 42 42 43 37 33 30 29 29 31 25 17 19 15 20 18 19 22 23 25 28 29 31 38 44 48 53 51 53 56 54 49 55 55 56 62 70
58 58 57 56 56 56 55 54 53 51 50 50 48 47 45 42 42 39 38 40 40 34 27 26 25 27 25 24 17 18 16 20 19 20 21 22 23 28 32 35 41 45 47 51 54 55 52 49 48 54 56 57 63 72
54 56 57 54 54 55 54 53 51 50 50 48 46 44 43 40 38 39 38 35 33 28 27 22 22 24 20 21 16 17 17 21 19 19 20 21 24 26 31 37 43 45 46 51 53 51 47 49 51 53 58 59 65 74
51 52 53 52 52 53 52 50 48 48 47 46 44 43 40 37 34 36 37 30 24 23 25 21 19 19 17 15 15 16 18 19 18 18 18 20 24 27 30 34 36 43 46 47 45 45 41 45 48 52 57 60 65 72
46 47 47 46 46 47 46 46 46 45 43 42 40 38 35 31 30 32 32 25 22 19 18 18 16 14 14 13 12 14 18 13 14 15 16 19 23 26 28 31 34 40 43 39 38 43 44 48 51 53 57 59 64 70
42 42 41 42 42 41 41 41 41 40 38 37 35 32 29 27 27 27 23 23 19 16 14 14 13 12 12 13 14 16 12 11 13 13 14 16 19 24 26 28 31 33 35 33 34 39 44 47 50 53 57 59 63 69
35 35 36 36 36 36 37 37 36 35 33 31 29 27 25 25 23 19 20 18 16 15 14 11 12 12 14 15 13 13 15 16 15 14 13 13 14 19 22 23 25 24 21 24 31 35 42 47 49 51 55 57 59 62
30 31 31 31 31 32 33 33 32 29 27 26 24 24 24 20 18 19 17 15 14 14 9 10 10 12 15 15 17 17 18 17 16 15 13 12 13 13 14 17 19 22 25 32 32 36 40 45 48 50 52 54 56 57
27 27 27 28 28 29 28 27 25 26 27 26 26 23 19 19 18 16 14 13 12 8 8 7 9 12 15 15 17 19 19 20 21 20 21 22 23 22 23 24 25 26 27 30 33 36 39 41 45 48 50 51 54 56
28 28 28 27 26 26 25 25 27 27 26 24 22 21 21 19 18 15 14 11 9 9 7 7 10 13 15 16 15 15 15 18 19 21 22 23 21 21 21 20 19 20 22 25 28 31 34 38 42 46 48 50 52 55
27 27 26 25 25 25 26 25 26 25 25 23 22 22 19 18 16 16 14 12 11 8 8 10 11 11 14 15 16 17 19 18 17 17 16 17 16 16 16 17 18 20 22 24 26 30 33 36 39 44 47 49 52 54
24 24 24 25 26 24 24 25 26 25 24 24 24 22 21 18 19 16 16 14 14 15 16 16 15 15 14 16 16 17 18 17 17 17 16 16 16 17 18 19 20 22 23 25 27 30 32 35 37 41 44 47 51 54
23 24 25 24 24 25 27 26 26 26 27 26 24 24 23 21 19 18 17 17 18 18 17 16 15 15 15 17 16 17 18 18 18 17 16 15 15 15 14 15 17 19 21 23 26 28 30 33 36 39 42 45 48 50
24 24 25 26 26 27 28 28 29 28 28 27 27 25 24 23 22 21 20 20 19 20 18 18 16 17 18 19 19 17 15 14 13 12 10 9 8 9 11 13 16 18 20 22 24 27 30 33 35 38 40 43 45 47
26 26 27 28 28 28 28 29 29 30 29 29 28 27 27 26 26 24 22 20 19 20 18 18 18 18 17 17 16 16 16 14 14 13 12 11 9 10 10 11 12 13 15 18 21 24 27 30 32 35 37 41 44 47
29 30 30 31 31 30 29 30 30 29 29 29 30 30 30 30 26 24 22 22 22 21 19 19 19 20 19 17 16 13 12 11 11 10 8 5 5 7 9 12 15 18 22 25 29 31 33 35 37 39 41 43 45 47
30 30 30 30 30 30 30 29 30 31 31 32 32 33 32 30 28 26 25 24 24 23 22 21 20 18 17 16 17 17 15 13 10 8 7 7 10 13 18 22 25 28 31 33 35 38 41 43 45 47 48 48 50 52
31 31 30 29 30 32 34 33 32 31 31 32 32 32 30 30 29 27 27 26 24 23 22 21 20 21 22 19 17 13 9 6 5 7 10 12 15 19 23 26 30 34 37 39 41 43 45 46 47 47 49 49 50 51
30 29 30 32 33 32 33 35 36 35 34 34 34 33 30 30 29 28 28 27 26 24 24 26 24 21 18 13 9 6 4 4 8 11 15 19 23 26 30 32 35 39 42 43 45 47 47 47 46 46 46 45 46 46
30 31 33 33 34 33 31 32 33 34 34 33 32 32 32 32 30 29 27 27 28 28 25 23 19 15 10 7 4 3 5 8 12 16 19 24 28 32 36 39 42 45 47 49 50 50 48 48 47 46 45 44 44 44
28 30 31 33 34 33 32 31 30 31 32 32 32 31 31 31 30 32 32 30 28 25 21 17 13 10 5 4 3 5 8 12 16 20 23 30 34 37 40 43 46 49 51 51 50 48 48 47 45 43 42 42 42 42
27 28 28 30 30 29 29 29 29 30 31 32 31 30 31 34 37 34 31 26 22 18 16 12 8 8 5 2 4 9 12 17 21 25 29 34 39 42 44 47 49 50 48 48 48 47 45 43 41 41 40 38 38 37
28 28 27 29 30 30 30 30 30 30 30 30 33 37 37 34 32 29 25 21 18 14 10 9 7 3 3 5 10 14 18 22 26 29 35 40 44 46 48 50 50 48 47 47 46 45 42 41 40 39 38 36 35 35
27 28 28 29 30 30 30 29 30 32 36 37 36 34 32 30 27 23 21 17 13 11 7 1 2 4 7 10 14 18 24 28 32 36 42 46 48 50 53 54 51 50 48 47 45 43 41 40 38 37 36 35 35 35
28 28 29 30 31 31 32 34 37 36 33 32 30 28 27 25 23 19 17 13 9 6 4 5 7 9 11 15 19 24 29 34 37 42 47 51 53 55 55 54 52 50 48 46 44 42 40 39 38 37 36 36 36 36
30 31 32 35 37 37 37 35 33 31 30 29 27 25 23 20 18 15 11 7 3 3 5 8 12 15 17 21 26 30 35 40 43 47 51 53 55 56 56 54 52 50 48 46 44 42 40 38 37 36 36 37 37 37
33 34 35 36 36 35 33 31 29 27 26 24 22 20 18 16 13 8 4 1 4 7 11 14 17 20 23 28 31 36 40 44 48 51 55 56 57 57 56 54 52 50 47 44 42 40 38 38 38 38 38 38 38 38
29 30 31 30 30 29 28 27 26 25 24 21 19 16 13 10 6 2 2 6 10 13 17 20 22 25 29 33 37 41 44 48 51 54 56 57 58 58 57 55 52 50 47 45 43 41 40 39 39 39 39 39 39 40
24 26 27 27 28 27 26 25 23 21 20 17 12 10 9 7 6 7 10 13 16 19 22 24 27 31 35 39 40 44 48 51 53 55 57 59 59 59 56 53 51 48 46 44 42 41 41 41 41 41 41 41 40 40
20 21 21 22 21 20 19 20 19 17 16 14 12 11 10 9 11 15 17 19 21 24 26 29 33 36 40 42 43 47 50 53 55 57 59 59 59 56 53 50 48 46 45 44 42 42 43 42 42 42 41 40 39 38
21 21 20 21 22 21 19 16 15 15 14 14 15 16 15 16 18 19 22 24 26 28 31 34 38 41 44 44 45 49 52 55 57 58 59 58 57 54 50 49 47 45 43 43 42 43 42 43 42 41 39 38 38 37

GFSWCAN_250_spd_081.txt.gz
Wind_Speed
59 58 57 54 52 54 53 51 51 50 49 48 48 47 46 44 43 43 42 42 42 43 45 44 43 44 43 44 41 39 34 31 33 30 27 27 25 26 30 31 34 37 39 37 35 38 49 49 48 47 49 54 59 60
60 59 58 56 54 53 52 52 51 50 49 47 47 46 45 43 43 43 43 43 43 44 45 43 41 40 40 40 39 37 30 27 29 28 26 25 24 25 27 32 34 36 36 38 38 40 48 49 51 49 50 51 56 57
58 59 58 56 56 55 53 52 50 49 48 47 47 46 45 44 44 44 45 42 44 41 40 41 36 37 37 34 34 32 25 26 28 25 24 24 23 25 29 30 31 34 35 35 39 43 49 52 54 54 52 49 53 55
59 59 57 55 55 54 53 52 53 52 51 50 49 48 47 46 45 44 43 45 41 36 37 38 34 34 30 31 27 29 24 27 25 23 22 23 21 22 26 28 29 26 31 37 41 44 49 51 55 56 53 51 51 55
58 58 56 55 55 53 51 52 51 50 49 49 48 48 47 45 43 42 44 42 38 38 34 31 31 28 26 28 23 26 26 26 22 21 21 20 19 21 23 26 30 30 34 40 46 48 53 57 53 48 47 48 49 53
57 56 56 57 55 53 52 51 49 49 49 49 48 47 44 43 42 43 43 37 38 36 30 28 25 24 24 24 23 23 24 24 19 17 17 18 19 20 23 27 31 37 42 46 48 51 52 49 46 46 48 48 49 54
53 53 54 56 53 52 51 51 51 50 49 48 46 43 41 40 41 42 39 35 34 29 27 25 23 18 21 23 23 21 21 16 14 13 16 18 18 19 22 25 29 34 41 43 44 40 38 33 39 43 47 48 48 52
48 50 50 50 49 48 49 49 49 47 46 44 42 41 38 39 39 39 35 31 27 23 21 22 21 18 19 20 18 19 15 12 13 12 15 17 17 18 21 24 29 33 33 35 35 35 35 38 42 45 49 52 51 53
44 45 45 45 45 45 46 46 44 43 42 40 38 36 34 35 37 32 31 26 20 18 18 18 17 15 15 14 12 12 12 14 15 15 18 16 16 18 21 24 25 23 21 23 28 31 34 36 42 47 47 51 54 55
39 40 40 40 41 41 39 39 39 38 36 34 32 31 34 31 30 28 24 19 16 15 15 13 13 12 11 10 10 14 15 16 17 18 18 17 17 16 17 17 17 17 18 20 24 29 33 37 41 48 50 51 53 55
33 34 36 36 35 35 35 35 32 31 32 32 31 32 29 28 26 22 19 17 15 14 12 11 10 9 7 8 11 13 15 19 21 20 20 20 20 19 17 17 18 19 20 24 27 30 34 37 39 44 48 49 51 55
31 31 31 31 31 31 31 31 33 34 32 31 29 26 26 24 21 19 17 15 14 13 11 10 9 7 5 7 10 12 16 19 21 21 23 25 24 25 24 21 19 20 22 23 26 27 27 30 34 38 42 47 50 53
27 27 27 27 27 28 30 32 29 26 27 26 27 26 23 21 20 19 17 16 14 13 12 9 6 4 5 7 10 11 12 13 14 14 13 15 14 13 12 12 12 13 15 18 21 24 27 29 32 36 40 43 47 50
27 27 26 26 27 29 28 27 27 27 27 27 25 24 23 22 22 20 18 17 16 14 12 10 10 9 11 13 13 13 15 14 17 17 17 16 15 14 13 13 13 14 16 19 21 24 27 30 32 35 38 42 45 48
26 26 27 27 26 26 27 28 28 28 28 28 27 26 26 25 22 21 20 18 16 14 13 12 12 13 13 14 14 14 15 16 15 14 13 11 11 9 8 8 10 12 15 17 19 22 25 28 31 34 37 40 43 46
25 26 27 27 27 27 27 26 27 28 29 29 29 28 26 25 23 22 19 17 14 14 14 15 14 14 14 14 13 12 12 13 12 10 9 7 6 6 7 8 9 11 14 16 19 22 24 28 31 33 37 40 42 45
26 27 28 28 27 27 28 30 32 31 30 30 30 29 27 25 24 21 19 16 16 16 16 14 14 13 14 15 14 12 11 11 10 9 8 5 3 1 3 5 8 10 14 17 20 25 28 30 34 37 40 43 46 48
29 29 29 29 30 31 32 32 31 32 31 30 29 28 28 27 25 23 20 19 17 18 18 17 17 17 15 14 13 13 12 11 11 11 10 8 5 1 4 8 12 15 19 22 25 28 31 34 37 40 43 46 48 50
32 33 34 34 34 33 32 31 32 30 29 29 29 29 27 27 27 24 20 22 23 23 21 19 17 16 16 15 16 17 15 14 11 8 7 6 7 10 13 17 20 24 27 30 33 36 38 40 41 43 45 47 48 50
29 30 30 30 29 28 29 30 30 31 31 31 31 30 29 29 27 26 26 26 25 23 20 18 18 20 22 20 18 15 13 11 10 8 10 11 14 17 21 24 26 29 32 35 38 41 44 45 46 47 47 47 46 48
28 27 28 29 29 30 32 33 33 34 32 31 29 29 30 29 29 27 26 24 24 22 22 24 25 23 18 15 13 11 9 8 7 8 10 14 16 20 24 28 32 36 39 41 44 46 47 47 48 47 46 45 46 46
29 29 30 31 33 33 32 33 34 33 33 32 32 33 32 30 29 28 26 25 25 27 28 25 21 18 15 12 9 8 5 5 6 10 14 17 21 26 30 33 36 40 43 46 46 46 46 47 48 46 44 44 44 43
25 29 32 33 31 32 33 32 32 33 33 32 32 32 30 30 30 29 28 29 30 29 24 21 17 14 11 8 5 2 4 8 12 15 18 21 25 31 35 39 41 45 48 49 48 49 49 48 47 46 44 43 43 43
24 26 27 29 29 30 29 28 29 30 32 32 31 31 30 31 31 32 33 30 28 23 20 17 14 13 8 4 2 5 7 11 14 18 23 28 33 37 41 45 47 50 52 52 51 51 50 49 46 44 43 42 42 41
23 22 22 24 26 28 29 28 28 29 29 30 31 31 32 34 35 33 30 26 22 19 15 13 11 7 5 6 7 8 11 16 20 24 29 34 39 42 47 50 52 54 55 55 54 52 50 48 45 43 43 42 40 40
25 26 27 26 26 27 28 28 28 29 30 31 31 32 35 36 34 30 26 22 18 14 12 8 5 4 5 6 9 12 16 21 25 29 34 38 43 47 51 54 56 58 57 56 54 53 51 47 45 44 43 42 40 39
25 26 26 27 28 29 29 30 31 31 31 32 33 36 35 32 28 25 21 17 16 12 10 6 1 4 8 11 13 17 21 25 29 34 38 43 47 51 54 57 59 59 57 56 53 51 49 47 46 44 42 41 41 40
24 26 27 28 29 30 31 31 32 33 34 36 36 34 30 26 24 20 18 15 13 9 4 2 5 9 12 15 18 22 25 28 32 38 43 47 50 54 57 59 60 59 57 54 53 51 48 46 45 43 42 41 41 40
25 25 27 29 30 31 34 36 36 36 33 31 29 28 26 23 21 18 15 11 8 4 4 6 10 14 17 20 23 26 30 33 37 43 46 51 54 57 59 60 60 58 56 53 51 49 48 46 44 43 43 42 42 42
26 28 29 32 35 37 36 35 34 33 29 28 27 25 23 21 18 14 11 9 6 6 9 12 16 19 21 24 28 32 36 39 42 46 50 53 56 58 60 60 59 58 55 52 51 49 46 45 44 44 44 43 43 42
27 29 31 32 33 34 34 34 31 28 27 25 23 21 18 17 15 12 10 8 9 12 16 19 22 24 26 30 34 38 42 43 45 49 53 56 59 60 61 60 59 56 53 52 50 48 46 45 45 44 44 43 41 40
27 29 28 30 31 32 30 28 26 25 23 22 19 16 16 15 14 12 11 13 16 20 21 24 27 29 31 35 39 42 44 46 49 52 55 58 60 60 60 59 57 54 52 50 48 46 45 45 45 44 43 41 40 38
23 24 26 27 27 27 25 23 22 22 20 19 17 15 15 15 14 14 18 21 23 25 27 29 31 33 36 40 43 46 48 49 51 54 56 59 60 60 59 57 54 52 51 49 46 45 45 45 44 42 41 39 38 38

GFSWCAN_250_spd_084.txt.gz
Wind_Speed
60 58 55 52 50 49 47 45 46 45 44 42 40 39 39 39 39 38 40 40 39 40 41 42 42 42 43 45 47 47 44 40 38 34 34 28 25 26 24 22 23 28 32 38 45 49 48 35 39 47 49 51 51 53
61 59 57 54 52 50 49 46 47 46 44 44 43 42 41 41 40 38 38 39 40 41 41 40 39 40 41 43 44 45 42 38 33 28 28 22 25 26 23 27 27 31 35 40 42 40 37 30 32 41 41 39 45 50
61 60 58 55 54 52 50 47 47 46 46 46 44 43 41 39 39 39 38 38 40 41 40 41 38 40 40 40 41 42 38 35 30 24 23 20 25 26 27 28 27 29 34 35 34 34 30 26 33 39 41 40 45 49
60 60 58 56 54 53 51 49 49 48 47 45 44 43 42 41 40 40 39 41 41 41 41 41 39 39 38 37 39 38 33 32 28 22 21 20 25 26 26 25 24 26 27 29 27 26 27 32 39 42 45 47 51 50
59 59 57 56 54 52 52 51 50 49 47 46 45 44 43 42 42 42 44 42 40 41 39 40 39 37 35 33 36 36 28 28 25 22 20 21 22 23 24 23 23 24 24 24 23 28 33 37 44 49 53 52 48 48
56 57 57 55 53 51 50 50 49 48 47 46 45 44 42 41 42 44 43 41 41 38 38 38 40 34 30 31 31 30 26 25 23 20 20 20 19 21 24 21 21 22 28 28 28 32 39 46 49 50 49 44 45 48
54 55 54 53 52 52 50 49 48 48 46 44 42 41 41 41 42 44 42 40 38 36 36 36 34 29 28 29 26 26 21 21 19 18 18 18 18 20 21 21 21 25 31 35 37 41 45 46 45 42 35 41 44 47
50 51 51 51 51 51 49 48 48 47 45 43 41 41 40 42 45 43 37 36 35 35 33 31 29 27 21 22 21 21 20 18 17 18 17 17 16 17 19 22 25 28 31 32 33 36 39 37 33 30 35 40 44 47
46 47 48 48 50 48 48 47 46 44 42 41 39 40 41 43 43 35 36 33 32 30 27 26 25 22 19 17 18 18 17 17 17 17 16 16 15 17 20 23 24 23 21 21 21 22 23 26 26 26 32 38 42 45
42 44 44 46 44 44 45 45 44 40 39 38 37 37 41 40 35 33 32 31 26 22 23 21 19 17 16 15 14 14 15 16 17 17 16 15 17 18 20 19 17 14 13 10 15 17 21 24 25 27 31 37 40 44
38 39 40 41 40 40 41 40 38 37 38 38 37 38 39 34 31 30 28 22 20 20 18 17 16 14 12 10 8 8 8 11 13 15 16 17 17 17 16 14 12 11 10 12 17 20 23 25 25 28 30 34 38 41
34 36 37 37 37 37 35 35 36 38 36 33 34 34 29 28 28 25 19 19 19 17 14 13 11 9 8 5 5 5 8 10 13 13 16 18 19 20 20 18 14 13 13 14 17 19 22 23 25 28 31 34 37 41
31 31 31 32 33 33 35 35 33 31 31 31 29 25 26 26 23 19 20 18 16 13 11 9 9 9 7 7 7 6 5 6 9 13 15 15 13 17 14 13 13 13 13 14 16 18 20 22 26 29 32 35 38 41
29 30 30 31 32 32 31 31 30 28 27 26 27 27 25 22 21 20 18 16 13 11 10 10 11 11 10 9 8 7 6 7 8 11 12 14 13 12 12 11 10 10 10 11 12 14 16 19 22 25 28 31 35 39
28 28 29 29 28 28 27 27 27 27 28 28 26 25 24 23 22 20 18 15 13 12 13 13 11 11 10 10 11 11 14 14 11 11 12 11 10 9 8 6 5 4 5 8 10 14 17 20 23 26 29 32 36 39
26 26 26 25 25 26 27 28 28 27 26 27 27 26 26 24 22 19 17 14 15 16 14 13 13 12 12 13 11 10 12 12 13 13 12 11 10 7 5 3 2 2 5 8 12 15 19 23 26 29 32 36 39 42
25 26 26 26 25 25 26 26 25 25 26 27 27 27 25 23 21 19 17 17 15 15 15 15 14 12 12 14 14 13 13 13 13 13 13 12 10 7 5 3 3 6 10 13 16 20 24 28 31 34 37 41 44 47
25 26 27 27 26 25 25 26 27 28 29 29 28 27 26 24 23 22 22 18 18 20 18 17 16 17 16 15 15 17 17 16 14 14 12 9 8 7 6 6 8 11 15 18 22 26 29 33 36 39 42 45 48 50
27 28 28 28 29 29 28 28 28 29 29 28 27 26 25 24 24 26 23 21 21 22 21 18 18 19 20 19 17 16 16 14 13 14 12 9 7 8 10 12 15 19 22 26 29 32 35 38 41 45 47 49 50 51
22 24 27 28 29 29 31 31 30 28 29 28 26 26 26 25 27 27 24 23 24 23 22 21 21 20 19 19 20 16 16 15 14 11 8 7 9 12 15 18 21 23 27 30 34 37 40 43 44 45 47 49 50 50
23 24 24 24 26 28 29 29 29 30 29 28 26 27 28 29 28 27 27 26 26 25 24 22 22 23 22 20 18 15 14 11 8 6 8 10 12 13 16 21 25 29 33 36 38 41 44 44 46 47 48 49 49 49
25 24 25 25 25 27 29 29 28 28 27 27 27 26 30 30 30 29 28 27 26 26 26 27 25 23 19 17 14 11 9 7 6 6 8 11 14 18 22 26 31 36 38 40 44 46 48 48 47 47 47 47 46 45
21 22 24 26 27 27 28 28 28 28 28 28 29 30 31 31 30 31 29 28 27 29 29 26 22 19 15 12 10 7 4 2 4 7 11 14 19 23 28 32 36 40 44 46 49 52 53 51 50 49 47 44 44 43
21 24 26 27 28 29 28 27 27 27 28 28 28 29 29 31 32 31 30 29 30 28 25 21 18 16 13 10 5 2 1 3 7 11 15 19 23 28 33 37 41 45 49 52 54 55 55 53 51 49 47 45 43 44
21 21 20 23 23 24 25 26 26 27 27 27 29 29 30 32 32 31 32 30 29 26 21 19 16 12 9 5 4 5 5 8 12 15 19 24 28 33 38 43 46 50 53 56 57 57 57 55 52 50 48 46 45 44
21 21 22 23 23 23 23 24 25 26 27 28 30 31 31 32 33 33 32 29 25 21 19 16 11 7 5 4 5 7 8 14 17 20 24 28 33 37 43 47 51 53 56 57 57 59 57 54 52 50 49 47 46 43
22 23 23 23 22 22 22 23 24 26 27 29 31 31 32 33 35 32 28 24 21 19 16 12 9 5 3 5 7 11 15 18 22 25 28 32 37 42 46 50 53 56 59 60 60 59 57 54 52 51 49 47 45 44
22 23 24 24 24 24 24 25 27 29 31 32 32 34 35 35 32 28 25 23 20 17 14 10 6 3 5 8 12 16 20 23 26 29 33 36 41 45 49 54 57 60 62 61 61 59 56 54 53 51 48 46 45 45
20 21 22 23 25 25 27 29 31 32 31 31 32 33 31 30 28 25 23 22 19 15 12 8 5 6 9 14 17 21 25 28 32 35 38 41 45 49 53 57 59 62 63 62 60 58 55 54 52 50 48 47 46 45
20 21 22 23 25 27 29 29 28 30 32 33 33 34 32 28 26 24 22 20 17 13 9 7 8 11 15 18 22 26 29 33 36 40 43 46 49 51 56 59 61 63 63 62 60 57 55 54 51 49 48 47 46 44
20 21 22 24 25 26 27 30 33 34 33 33 33 31 28 26 24 22 19 17 14 11 10 10 13 16 20 25 28 31 34 37 41 44 47 49 51 55 58 60 63 64 63 61 58 55 54 52 50 49 48 47 45 43
21 22 23 25 27 31 33 34 31 31 31 31 30 27 25 23 21 19 18 16 14 13 14 16 19 22 26 30 33 35 38 41 45 48 49 51 54 57 60 62 64 64 61 59 56 54 53 51 49 48 47 46 44 43
23 23 24 26 30 32 33 31 31 31 31 30 27 24 21 20 19 17 17 16 15 17 20 23 26 29 32 35 38 39 42 45 48 50 50 53 56 59 61 63 64 62 60 56 55 53 51 49 48 48 47 45 44 44

GFSWCAN_250_spd_087.txt.gz
Wind_Speed
64 61 58 53 50 47 44 42 41 39 38 38 38 37 37 37 38 37 37 36 35 35 34 34 35 38 40 41 41 42 43 43 42 41 38 34 30 32 28 26 23 21 20 23 30 38 44 46 47 48 52 54 50 50
64 62 59 56 52 49 47 43 41 39 37 36 37 37 36 35 33 34 33 33 33 33 33 33 34 36 38 39 39 41 41 40 37 36 32 30 27 27 25 24 23 22 23 27 33 38 40 39 38 34 47 50 46 42
62 62 60 56 53 51 48 45 43 40 39 37 36 34 33 31 32 31 30 32 31 30 29 32 34 35 37 38 38 39 39 38 35 34 29 27 25 25 24 21 19 20 22 27 30 29 29 29 22 17 28 43 45 41
60 61 59 56 54 51 49 47 45 44 41 40 38 35 34 33 33 34 32 33 32 30 31 34 34 36 36 35 35 36 38 36 32 30 26 24 24 23 21 18 17 18 20 23 24 24 23 23 21 21 22 31 41 43
58 59 57 56 54 52 51 48 46 46 43 40 38 37 36 35 34 34 33 31 31 32 34 35 35 36 36 34 34 34 37 33 28 25 23 23 24 22 18 16 15 18 19 20 20 20 20 21 22 24 29 37 43 45
55 57 57 56 54 53 51 49 47 46 44 41 40 37 36 36 35 34 33 33 32 34 34 36 36 34 33 33 33 32 32 30 25 23 20 22 23 19 18 15 15 18 18 19 18 19 23 25 27 32 36 41 44 46
52 54 54 54 53 53 51 49 47 45 44 42 41 38 37 37 36 33 30 31 32 33 35 37 35 32 32 32 30 26 26 27 20 19 18 19 20 19 18 16 15 17 19 21 23 25 27 30 35 38 43 45 44 44
49 50 53 53 51 50 50 49 46 44 42 40 38 37 37 37 34 30 30 31 32 34 37 35 31 31 27 27 25 21 23 20 17 17 17 17 18 18 17 16 16 20 23 24 26 30 33 36 38 42 43 41 38 37
44 47 48 49 49 49 49 47 45 42 41 38 38 38 37 35 29 31 31 32 34 34 33 29 28 27 20 21 18 18 20 18 15 16 16 16 17 17 18 19 17 17 19 19 18 23 30 35 39 40 39 30 29 35
41 44 45 46 47 46 45 44 43 41 39 38 38 37 34 31 31 31 30 32 30 29 27 26 24 19 17 15 14 15 15 15 16 15 16 16 18 18 17 13 11 10 12 11 12 12 16 23 21 20 25 28 28 29
39 41 42 43 43 44 42 40 40 40 40 40 36 33 31 29 28 29 29 28 25 23 23 20 17 14 13 13 12 13 12 12 14 14 15 15 15 12 10 10 10 9 9 10 11 12 13 14 16 18 20 22 25 29
37 38 39 40 42 37 38 39 40 40 36 33 32 32 27 27 27 29 27 21 20 19 16 15 13 11 12 11 11 12 11 10 9 9 11 13 13 13 14 16 18 18 17 16 17 16 15 15 17 21 24 27 29 31
34 35 37 38 35 36 37 38 36 33 33 33 31 28 27 26 27 24 18 18 16 13 12 12 12 11 12 12 9 8 6 6 8 9 7 9 11 14 15 15 14 14 11 10 11 12 12 14 16 19 22 25 28 31
32 34 35 35 35 35 34 33 31 30 30 29 27 26 26 27 20 18 17 15 13 12 12 12 11 11 12 10 10 11 9 10 9 9 9 10 12 11 15 12 12 10 7 6 6 7 9 11 14 17 20 23 27 30
29 30 31 31 31 30 29 28 28 28 28 26 26 27 24 18 20 18 15 14 14 13 13 12 11 12 13 13 12 11 13 14 9 9 13 14 12 14 12 10 9 7 6 5 5 6 8 11 13 16 20 23 26 30
27 27 28 29 28 27 28 28 28 27 26 27 26 22 21 21 18 16 17 16 14 14 13 13 14 15 14 15 15 14 12 8 16 16 16 16 15 15 14 11 9 6 5 5 6 8 12 15 18 21 25 28 32 35
24 25 26 26 26 26 25 25 27 27 26 22 21 22 21 20 19 19 18 16 15 16 17 18 17 18 16 16 16 17 16 18 18 18 17 18 17 16 14 11 8 7 6 7 10 13 17 21 25 28 31 34 38 42
23 25 25 26 26 26 26 25 24 23 23 24 24 23 22 22 21 21 19 19 19 21 22 21 19 19 20 20 20 19 20 20 21 20 20 19 17 14 11 9 8 9 11 14 17 20 23 27 31 34 37 40 44 47
23 23 22 22 23 25 25 25 24 24 24 24 24 24 24 23 23 22 23 21 22 24 24 21 21 22 22 23 23 23 23 22 21 20 16 15 14 11 9 9 10 12 15 19 22 26 29 32 35 38 43 44 46 50
19 20 20 21 22 22 23 24 24 25 25 25 25 25 25 25 24 27 26 24 25 26 26 26 25 25 25 25 26 23 21 20 18 16 13 11 8 7 8 11 14 17 21 24 28 32 35 38 39 41 44 46 48 49
22 22 21 21 22 23 24 26 26 26 26 26 27 27 26 26 29 29 27 27 28 29 28 28 28 27 28 25 22 22 19 17 14 11 8 7 7 8 10 14 18 21 25 29 33 36 40 44 47 50 51 52 52 52
21 21 22 21 20 21 22 25 25 25 27 27 26 26 27 29 31 30 29 31 31 31 30 29 29 28 24 23 21 18 15 12 9 6 5 5 6 10 14 18 22 25 28 34 39 42 46 49 51 52 53 54 53 52
19 21 22 23 24 23 25 24 26 27 27 26 27 28 29 30 31 32 33 32 32 31 31 30 28 25 23 20 17 14 11 8 4 3 3 5 10 14 18 22 26 31 35 38 43 47 50 52 51 53 55 54 52 50
18 20 22 23 25 26 25 25 25 25 27 28 27 29 29 31 32 33 33 32 31 32 31 28 26 23 19 17 13 9 5 3 0 4 8 11 15 19 23 27 31 35 40 43 47 51 54 55 55 56 56 54 52 50
20 20 20 21 23 24 24 25 26 27 27 27 28 29 30 32 33 33 32 32 32 30 29 26 23 19 17 11 7 4 3 3 6 10 11 15 19 23 27 31 36 39 44 47 50 54 57 58 56 56 55 53 51 49
18 18 19 20 20 22 23 24 25 26 26 27 29 30 31 33 34 32 32 32 31 29 26 23 19 15 11 7 5 3 3 5 9 12 16 20 24 28 32 37 41 43 48 50 53 56 59 59 57 56 53 53 52 50
17 18 19 19 19 20 20 22 23 24 25 26 29 30 33 35 32 33 33 32 29 26 24 19 15 11 8 6 5 4 5 9 13 18 21 25 30 33 37 42 45 48 52 55 56 58 60 58 57 55 53 53 51 49
18 20 19 20 22 22 23 24 25 26 27 29 31 33 34 31 31 32 31 29 27 25 22 18 14 10 7 5 4 5 9 14 18 22 26 30 34 38 40 43 46 50 53 56 58 60 60 57 56 54 53 51 49 47
17 19 20 21 23 23 25 26 26 26 26 28 30 29 29 32 34 33 31 29 27 23 19 17 15 11 8 6 7 10 15 20 24 28 31 35 38 42 44 46 49 53 55 57 59 60 59 57 55 54 52 50 48 47
18 19 20 21 22 24 25 24 24 27 29 29 28 28 32 34 34 32 30 28 24 21 19 18 15 12 9 9 12 16 21 24 29 33 36 39 43 46 47 49 52 56 57 59 60 60 57 56 55 53 52 50 49 48
16 18 19 20 21 20 21 24 28 29 30 30 30 33 33 33 32 30 28 25 23 21 19 17 15 13 12 13 16 20 26 29 34 37 39 43 47 49 50 51 55 57 58 60 61 61 58 56 55 53 51 49 48 48
18 19 20 19 19 21 22 26 25 26 28 32 35 33 33 31 29 28 26 24 23 21 19 17 14 16 18 19 21 26 30 35 37 40 43 47 50 50 51 54 58 58 60 61 62 59 57 55 54 52 50 48 48 46
20 21 21 21 23 25 25 24 26 28 31 33 32 33 32 31 30 27 25 23 21 19 18 17 20 21 22 24 27 31 35 38 39 42 46 49 51 51 53 56 58 59 61 62 60 57 56 54 52 51 49 48 47 47

GFSWCAN_250_spd_090.txt.gz
Wind_Speed
52 56 58 58 56 52 47 44 41 39 37 34 37 37 35 34 34 32 32 32 31 32 32 32 32 34 36 38 40 42 42 42 42 41 39 40 41 38 36 36 31 26 24 25 27 29 29 33 35 41 45 45 46 53
52 55 58 58 56 52 48 44 42 39 37 35 37 35 36 35 34 31 31 32 30 29 30 31 32 34 36 39 41 40 40 40 39 39 37 35 37 30 36 30 23 22 21 20 22 25 28 33 35 42 45 50 49 51
51 54 58 58 56 53 49 45 43 40 37 35 36 35 34 33 32 30 30 29 28 29 30 31 33 34 35 36 36 37 37 38 37 35 34 31 34 28 31 22 18 18 18 16 18 21 26 32 34 39 46 49 53 54
50 54 57 58 57 54 50 46 42 40 38 36 34 34 32 31 31 30 28 27 27 28 29 29 31 31 34 35 35 36 37 36 35 32 30 29 30 25 23 17 17 17 17 16 17 17 21 25 26 28 36 41 41 46
48 52 55 57 57 55 51 47 43 40 38 35 33 32 31 30 28 26 27 25 25 25 28 29 31 33 34 34 34 35 37 35 31 30 27 25 24 22 18 17 16 17 16 17 15 15 17 19 22 17 22 27 29 33
46 50 53 55 56 54 50 47 44 41 38 35 33 31 29 29 26 26 24 24 25 27 29 31 33 34 34 33 33 33 33 32 30 27 23 23 21 20 18 16 16 16 17 17 16 17 18 19 17 21 26 23 21 27
45 48 51 55 56 54 51 47 45 42 39 36 34 32 31 29 27 26 25 27 27 30 33 33 32 32 32 32 31 29 31 29 28 21 21 21 18 19 18 16 17 17 17 17 19 22 22 23 25 23 23 26 26 32
44 46 49 54 54 53 50 46 44 41 39 37 34 33 32 31 29 28 27 28 30 31 33 32 30 31 31 30 28 27 26 23 22 15 19 18 19 17 17 15 16 18 18 19 21 24 26 28 28 30 31 34 37 41
42 43 48 50 51 50 48 45 43 42 39 37 34 34 31 26 24 28 28 29 31 33 32 29 32 29 25 26 25 23 22 19 15 15 18 18 17 16 15 16 17 19 18 17 20 23 27 29 31 32 34 36 44 45
40 43 46 46 46 48 45 43 42 41 40 37 35 30 26 27 26 24 27 30 31 33 31 29 28 23 23 20 19 17 18 16 15 14 15 15 16 15 14 11 11 12 12 12 15 18 20 22 28 31 31 35 20 20
40 41 42 42 43 45 43 42 40 42 39 35 31 28 27 26 25 27 29 31 30 29 27 25 23 21 19 16 15 13 13 13 13 12 13 12 12 10 9 12 13 13 13 14 15 15 11 12 16 21 25 27 30 30
38 39 40 41 41 42 41 42 42 38 35 33 31 28 26 25 27 30 30 28 26 25 25 21 19 16 14 12 10 10 9 9 8 9 9 10 12 13 14 16 19 20 21 21 20 19 18 17 17 18 20 21 22 25
36 37 38 38 39 40 40 40 36 34 33 32 29 26 26 27 30 29 25 23 23 21 19 17 15 12 10 8 7 8 9 9 10 11 11 11 11 12 12 13 14 14 11 10 10 10 10 11 12 14 16 19 21 23
34 35 36 38 38 37 36 35 34 32 30 29 27 26 25 29 29 24 21 21 19 17 16 14 12 10 9 8 10 12 11 12 12 13 11 12 11 11 10 10 10 12 12 10 8 6 6 7 9 11 14 17 20 23
32 34 36 34 32 34 33 31 31 30 29 28 27 26 29 28 23 20 19 18 16 16 15 13 11 10 11 12 13 12 14 15 13 14 15 16 13 16 15 14 15 13 11 8 6 5 4 6 8 11 14 18 21 25
29 30 30 30 31 31 30 30 31 31 29 28 28 29 26 22 21 18 19 17 17 16 13 13 12 13 13 15 15 15 10 12 17 18 19 18 19 18 18 16 13 12 10 7 4 0 4 7 10 13 17 21 24 28
29 30 31 31 31 31 32 32 31 29 28 30 28 23 22 21 20 21 19 19 18 16 15 15 16 17 18 19 20 19 20 18 20 21 21 22 19 20 19 16 14 11 7 4 3 5 9 13 16 19 23 26 30 33
26 27 28 30 32 32 31 30 30 31 28 23 23 24 23 23 22 21 21 20 20 19 20 21 22 21 22 23 22 23 24 22 22 21 22 22 21 19 16 14 11 9 8 8 10 13 17 20 24 27 31 34 36 38
25 26 26 26 25 27 29 29 27 24 25 26 25 25 25 25 25 25 23 22 21 22 23 24 24 25 25 25 25 25 26 25 23 23 20 19 18 16 13 10 8 8 10 14 17 19 23 26 29 33 36 39 41 42
20 22 23 24 24 24 23 23 26 28 27 27 27 27 28 28 27 26 26 24 25 25 27 27 27 27 27 27 28 26 25 25 20 20 18 16 14 11 9 8 9 11 13 16 20 24 28 31 34 37 41 44 46 46
22 22 22 21 21 23 25 26 26 26 27 27 28 28 29 28 27 27 27 27 29 30 30 29 29 28 30 28 27 27 23 21 19 16 14 11 9 8 7 7 9 12 16 20 24 27 32 36 39 42 45 47 49 50
21 21 21 23 23 23 24 25 27 27 29 30 30 30 28 28 28 29 29 29 31 32 31 31 31 32 29 26 26 24 21 17 14 12 10 7 6 5 7 10 13 18 21 24 28 32 35 40 44 48 50 53 53 54
19 20 21 21 21 22 23 25 27 29 29 30 30 29 28 28 29 30 31 31 32 33 32 31 32 29 26 26 24 21 18 15 12 8 5 3 3 6 10 14 18 22 26 30 33 36 40 43 47 51 53 55 55 56
20 19 21 24 26 26 26 27 27 28 29 28 28 28 28 28 29 31 32 32 33 32 32 33 30 28 28 24 21 18 15 11 7 3 1 3 6 10 13 18 22 27 31 35 38 41 44 47 50 52 55 54 55 55
21 21 21 22 23 24 25 27 27 28 27 27 27 28 29 30 32 33 34 33 33 33 34 31 29 27 24 22 18 14 10 7 3 3 4 7 10 13 18 23 28 32 35 38 41 45 48 51 54 55 56 55 56 55
19 20 19 20 22 24 25 26 27 26 27 27 28 29 29 31 34 34 33 33 34 34 31 29 27 25 23 18 13 10 7 5 4 6 9 13 16 20 24 28 33 37 39 42 45 48 52 55 56 58 57 57 57 56
15 17 19 20 20 21 22 23 24 25 26 26 28 29 30 33 33 31 32 33 34 32 30 28 27 24 18 13 11 9 7 4 5 9 13 17 21 24 28 31 36 41 44 45 47 52 54 57 58 58 56 56 56 54
18 19 20 21 22 22 23 24 25 25 26 26 27 28 29 28 29 31 33 34 34 32 30 28 25 21 16 13 11 10 7 7 9 12 17 21 25 29 32 35 40 44 47 49 51 56 58 59 60 57 56 55 54 52
18 21 21 22 24 24 26 27 26 25 26 26 26 27 28 30 33 33 35 35 33 32 30 27 23 19 15 14 13 10 10 11 13 17 21 26 30 33 35 39 44 47 50 51 54 58 59 59 59 57 57 55 54 52
17 19 20 22 22 23 23 24 25 28 29 29 29 27 29 32 31 34 36 35 33 32 30 28 23 19 17 16 13 13 14 16 18 21 25 30 33 35 38 42 47 49 51 53 56 58 59 60 57 57 56 54 52 50
15 17 20 21 21 21 24 27 29 29 30 29 28 28 31 33 34 37 38 35 34 33 31 27 24 21 19 17 17 16 18 21 23 25 29 33 35 38 42 46 49 51 53 56 58 60 60 59 57 56 55 53 51 50
19 20 20 19 19 21 24 28 28 28 30 30 30 30 33 34 35 39 38 36 34 33 30 25 22 21 21 19 18 21 23 25 28 30 33 36 39 42 45 48 51 53 56 58 60 60 60 57 56 55 53 51 50 49
20 21 21 21 24 26 27 26 26 27 27 29 29 31 33 34 38 39 37 35 33 31 26 23 23 23 21 21 23 25 27 29 31 34 37 39 41 45 48 50 53 55 58 59 60 61 59 57 56 54 52 51 50 49

GFSWCAN_250_spd_093.txt.gz
Wind_Speed
45 46 46 48 51 52 51 48 44 40 39 36 36 36 36 34 31 32 31 30 30 30 33 35 36 36 38 39 39 39 40 41 42 42 40 40 41 35 41 41 35 34 32 29 27 23 21 22 27 30 32 37 41 47
36 40 44 45 50 52 51 48 45 42 39 36 37 37 35 34 34 32 30 30 31 30 31 33 35 37 35 36 38 38 39 39 40 39 39 39 39 34 40 38 32 31 28 24 23 18 18 20 23 25 30 36 43 49
42 43 44 48 51 51 51 49 46 43 39 37 38 37 35 35 33 32 30 29 29 29 30 31 32 34 36 36 36 37 39 40 39 38 38 37 39 33 37 31 28 25 23 21 19 16 15 17 21 25 29 35 40 42
39 42 45 47 50 52 52 49 46 42 39 40 38 35 36 34 33 31 30 31 31 30 31 32 32 32 34 35 37 39 39 37 38 37 37 37 36 30 35 27 23 22 22 20 18 18 17 17 22 26 30 36 41 45
38 41 45 48 51 52 51 49 46 43 41 39 38 36 34 33 32 31 32 31 30 29 29 32 31 32 35 36 36 37 38 37 36 36 35 35 32 30 29 25 21 21 20 19 19 20 21 21 20 23 26 34 40 42
38 41 46 48 50 52 51 49 46 44 41 39 37 36 33 33 33 31 30 29 29 29 30 30 31 31 31 34 36 37 36 34 34 35 35 31 30 27 25 23 21 22 22 20 20 22 22 19 17 17 20 25 27 30
38 41 45 49 51 51 50 48 45 44 42 40 38 36 34 33 33 31 29 30 30 29 29 27 28 30 35 36 36 36 32 33 34 33 32 28 27 24 23 22 22 23 22 22 23 23 23 22 22 21 18 16 20 24
38 41 45 48 50 51 50 48 44 41 40 40 39 37 35 33 30 29 28 27 28 27 25 26 30 34 35 34 32 31 31 31 30 30 28 26 24 20 21 20 21 23 22 22 23 23 23 23 23 23 21 20 20 18
40 42 45 48 49 50 48 46 44 41 39 38 36 34 31 29 27 26 27 28 27 26 25 28 32 33 31 30 29 28 28 27 24 24 22 21 20 19 18 18 19 20 20 23 23 24 25 24 24 26 27 27 28 29
40 43 44 44 46 47 47 47 45 43 41 39 35 31 29 28 27 26 26 27 26 24 26 31 31 30 29 28 27 25 25 21 19 18 18 18 18 16 16 15 15 17 17 19 22 24 26 30 29 29 29 29 32 34
39 41 42 42 44 45 46 46 45 43 41 38 35 32 30 29 27 27 27 24 24 26 29 29 29 27 26 24 22 20 18 17 17 16 16 16 14 14 12 13 16 18 19 20 21 21 22 23 23 26 29 31 30 29
40 41 40 41 43 44 44 44 40 38 38 37 33 31 30 29 29 29 26 25 26 28 29 29 27 25 22 19 16 14 14 14 14 15 14 14 14 15 15 17 18 18 19 18 17 17 18 17 17 17 18 19 22 25
39 39 39 41 42 42 41 39 38 38 37 34 32 30 30 30 30 27 25 27 28 29 28 25 22 18 15 13 13 13 12 11 12 13 15 15 14 13 12 11 11 13 12 11 11 12 13 13 13 13 15 17 20 22
38 38 40 41 41 41 39 39 38 37 35 33 32 31 30 31 29 26 28 28 28 26 24 21 17 14 12 12 11 10 10 10 11 12 12 13 12 11 11 11 13 14 14 13 12 12 11 11 11 11 12 13 15 18
36 37 37 38 39 38 37 36 36 35 32 32 31 30 32 31 28 29 29 26 24 23 20 17 13 12 12 10 8 8 10 10 11 14 14 15 16 17 17 15 14 15 15 13 11 9 7 6 5 6 9 12 16 19
33 34 34 35 35 35 35 35 34 33 32 32 31 32 32 30 29 28 25 22 21 18 16 14 13 14 11 11 12 12 12 13 14 16 17 18 17 18 16 14 15 14 13 11 8 5 3 3 5 8 11 13 16 20
31 32 31 32 33 33 33 34 33 32 33 34 33 33 31 29 27 23 22 21 19 17 16 16 15 14 15 16 17 16 16 17 16 19 19 18 18 17 16 15 15 14 12 9 7 4 1 3 7 11 16 19 23 27
31 30 33 36 37 37 36 35 34 34 35 35 33 30 28 24 23 24 22 20 19 19 19 18 16 16 16 17 20 19 21 20 19 18 20 19 17 17 17 17 15 13 10 7 4 4 7 11 15 19 23 26 30 33
29 31 32 32 31 32 33 34 34 35 32 29 27 26 27 26 25 23 22 22 22 20 19 17 18 19 21 21 22 24 24 22 20 19 18 18 19 19 18 15 12 10 7 5 6 9 13 17 21 25 28 30 34 39
22 24 26 27 29 30 30 30 28 25 25 27 29 27 26 26 25 24 23 24 23 23 21 21 22 22 23 25 24 24 24 23 22 21 21 20 19 16 14 11 8 5 4 6 10 13 18 22 26 30 34 38 41 46
23 23 24 24 25 25 24 23 26 28 28 27 27 27 26 26 26 26 26 26 25 23 24 25 26 26 26 26 26 26 25 25 24 21 19 17 14 11 8 6 4 5 8 11 16 20 23 27 31 34 38 42 45 49
20 21 21 22 22 23 25 26 25 25 25 27 27 27 28 28 27 28 27 26 25 26 27 27 28 28 27 27 27 27 25 24 21 19 16 13 10 6 3 2 5 8 13 17 21 24 28 32 36 40 43 46 49 51
17 18 21 22 24 24 23 23 24 25 26 26 28 28 29 29 29 28 27 27 27 28 29 31 30 29 30 29 29 25 24 21 19 17 14 10 5 1 3 6 9 13 18 24 28 32 35 38 42 45 49 52 53 56
22 21 21 22 23 25 27 27 27 27 27 28 29 30 30 30 28 27 28 28 29 29 31 30 29 31 29 30 26 24 21 19 16 13 9 4 3 3 7 10 13 18 23 28 32 36 40 42 45 48 52 55 56 59
20 21 21 22 23 24 25 26 27 28 29 30 30 30 30 30 29 29 30 30 29 32 31 30 32 31 29 27 25 21 20 17 13 8 5 4 5 9 13 16 19 23 27 31 35 40 44 47 47 50 55 57 60 61
17 19 21 22 23 24 26 27 27 27 28 29 29 29 29 29 30 30 30 31 32 32 32 31 31 27 28 26 23 22 19 15 11 8 6 7 9 12 16 20 25 28 31 35 39 44 46 48 51 54 58 60 61 61
14 16 19 22 22 23 24 25 26 26 27 27 27 28 28 28 27 28 31 32 32 33 33 33 30 30 28 27 25 21 18 14 11 10 9 10 12 15 19 23 27 31 33 38 42 46 48 50 54 57 59 61 62 62
18 18 19 21 23 23 24 24 25 25 26 26 26 27 27 25 27 31 32 32 34 33 35 34 33 31 29 27 23 21 17 15 14 13 12 14 16 19 22 27 30 33 36 41 45 48 50 54 56 58 60 62 62 61
17 20 21 22 23 24 24 23 23 24 25 25 25 25 25 26 28 29 31 33 33 35 36 34 34 32 30 26 23 21 19 18 16 16 17 19 22 24 27 32 35 37 39 44 47 50 54 56 59 60 61 61 61 60
14 17 19 20 22 23 24 24 25 27 28 27 26 26 27 28 29 30 31 32 34 37 35 36 34 32 29 26 25 23 21 19 18 19 21 24 27 29 32 36 39 41 44 48 51 54 57 60 61 62 61 60 61 59
14 15 17 18 19 20 22 26 28 29 28 27 28 28 29 30 31 32 32 32 35 37 38 37 36 33 30 28 26 24 22 21 21 22 24 28 31 33 36 39 42 44 47 51 54 57 59 61 61 61 60 61 61 59
17 17 18 19 20 21 23 26 27 26 25 26 29 31 32 33 33 33 35 35 37 38 38 38 36 34 33 31 29 26 25 24 24 26 28 31 34 36 38 41 45 47 50 52 55 58 60 61 63 62 62 62 60 57
18 18 18 19 23 24 25 25 25 25 26 26 27 30 31 33 34 37 36 36 37 39 39 38 38 36 35 34 31 28 27 27 28 29 31 34 36 38 41 45 47 49 51 54 57 60 61 62 62 61 61 60 58 56

GFSWCAN_250_spd_096.txt.gz
Wind_Speed
37 38 38 38 39 41 43 43 43 43 42 39 36 34 34 33 31 31 30 30 29 30 32 33 33 36 38 41 43 42 41 40 43 44 45 47 46 43 42 43 39 36 34 35 33 31 32 29 29 29 29 28 31 36
34 34 36 39 40 42 43 43 44 44 42 38 36 35 33 32 32 31 29 30 31 32 32 33 34 35 37 38 39 38 39 42 43 44 44 42 39 38 36 40 35 34 32 34 28 28 28 25 25 25 25 27 32 38
33 36 37 39 41 43 44 45 45 45 41 39 37 35 34 33 31 31 31 31 31 30 31 33 33 34 35 36 37 38 39 40 40 41 41 39 35 34 34 37 32 33 33 32 26 26 24 22 20 21 22 24 30 35
35 37 36 39 42 44 46 47 46 44 41 39 38 35 34 33 33 32 32 32 31 30 30 30 33 32 33 34 35 36 36 38 40 39 36 36 35 35 35 34 31 31 31 30 23 22 24 20 19 18 22 23 29 34
38 38 40 41 43 45 47 47 46 42 42 40 38 34 34 34 33 33 32 31 30 30 30 29 29 29 30 32 34 34 37 37 36 37 37 38 36 34 33 33 28 29 27 26 23 21 21 19 19 17 20 22 25 30
39 40 42 43 45 47 48 47 45 43 43 40 35 33 33 33 33 33 32 31 30 30 29 29 28 30 31 32 34 35 36 36 36 35 35 36 35 32 31 31 27 25 25 25 23 21 21 19 18 19 18 21 23 28
36 38 41 43 44 47 49 49 47 44 43 39 36 34 34 34 33 32 31 31 29 28 28 28 29 30 32 34 36 37 35 36 35 34 32 33 34 30 29 28 25 22 24 25 24 21 22 21 20 20 18 18 21 28
38 39 41 43 45 48 50 49 47 46 44 40 37 36 35 33 32 31 31 30 28 26 27 28 29 33 35 35 34 34 33 32 33 33 32 31 30 27 25 23 23 21 23 24 24 23 24 22 22 21 21 19 17 15
38 39 40 44 45 48 49 49 49 47 44 40 38 36 34 32 32 31 29 28 27 27 28 30 33 33 34 33 33 31 30 32 32 29 29 27 25 23 19 19 20 20 23 22 23 24 25 25 25 26 26 27 28 23
37 40 42 43 45 48 49 49 49 47 43 40 38 35 33 32 31 30 29 28 28 28 29 30 31 31 32 31 30 29 29 28 25 23 22 20 20 19 16 17 19 19 20 22 23 24 25 26 27 28 29 28 29 29
36 39 40 43 45 47 48 48 47 46 45 43 41 38 35 34 32 32 30 28 26 27 29 28 28 30 30 28 28 25 24 21 20 18 17 17 17 16 16 17 19 21 23 24 23 21 20 20 22 27 26 27 28 31
38 39 40 41 43 46 47 45 43 43 41 39 37 36 34 33 32 29 26 25 26 26 26 27 29 29 26 25 25 22 19 17 16 14 14 14 15 17 19 20 21 19 17 16 16 16 13 16 17 16 14 16 18 19
36 37 41 42 42 43 43 43 42 40 37 36 34 33 32 30 28 26 25 25 26 26 27 28 28 26 23 22 20 17 15 14 13 13 14 15 18 18 17 15 12 12 14 14 14 13 14 16 16 16 17 17 15 15
36 38 40 42 41 42 43 44 43 42 40 38 35 32 30 29 28 26 26 26 27 27 28 27 24 22 20 18 15 13 12 12 12 12 13 13 12 12 13 12 13 13 12 9 9 11 13 13 12 11 11 10 11 14
34 37 39 40 40 41 42 42 41 40 38 35 33 32 31 29 28 27 27 28 28 29 27 24 21 18 16 13 11 10 10 10 10 9 11 13 15 15 14 14 14 13 11 10 10 11 10 9 8 7 7 9 12 16
31 35 38 39 40 40 40 39 39 38 37 35 35 34 31 29 28 28 28 28 28 27 23 19 17 15 13 13 12 11 9 10 12 13 15 16 17 17 17 13 11 13 13 13 13 12 11 10 8 8 11 12 14 16
31 33 36 37 38 40 40 39 38 36 37 36 35 32 30 30 30 30 29 28 26 23 21 17 16 16 14 13 12 11 11 13 13 15 15 16 16 18 15 13 14 15 16 16 14 11 9 8 6 5 9 13 18 22
30 33 36 38 38 39 39 39 38 38 38 36 35 33 33 31 29 29 28 25 23 21 19 18 18 16 14 12 12 13 13 14 14 14 16 16 18 17 17 16 18 18 16 14 12 9 4 2 6 11 16 19 25 29
30 33 34 34 34 35 36 37 37 37 36 37 35 33 31 31 30 28 25 23 22 21 18 19 16 14 13 15 14 15 16 16 17 17 17 18 17 19 21 19 17 15 13 9 4 1 5 8 13 17 21 25 29 33
23 25 28 31 33 35 35 36 36 35 34 33 32 31 30 29 27 26 23 22 22 20 19 18 16 15 16 16 17 18 19 20 20 18 17 18 22 21 19 16 14 11 6 3 2 7 11 15 19 22 26 30 35 38
25 26 27 29 30 31 32 32 30 30 30 29 28 28 27 26 25 24 23 23 22 21 19 19 18 18 17 19 20 22 23 22 21 20 22 21 20 17 15 13 9 5 2 4 9 11 15 19 23 27 31 36 39 42
21 23 24 24 24 25 25 25 25 26 28 27 26 26 26 25 24 24 23 23 21 22 22 21 21 21 21 23 25 24 24 23 24 24 23 21 17 14 11 8 5 1 3 6 11 15 19 24 30 34 37 41 44 47
16 16 18 20 21 22 22 23 24 25 25 24 25 25 25 25 25 24 24 24 24 24 23 22 22 22 23 26 26 25 25 25 25 24 22 18 14 10 7 5 2 3 8 12 17 21 25 29 34 38 42 44 48 52
20 20 20 21 23 24 24 24 24 24 26 25 25 25 25 25 24 25 25 25 27 25 23 22 23 24 26 26 26 26 26 26 25 23 20 16 12 9 7 5 6 11 15 18 21 24 28 33 38 42 45 47 51 54
17 19 21 21 21 22 22 23 24 24 24 24 25 26 25 25 26 26 27 26 27 25 24 24 25 27 27 27 27 27 27 26 25 21 18 15 12 9 9 8 11 15 18 22 25 28 32 37 41 45 47 51 55 57
9 11 13 14 16 17 18 20 21 22 23 24 24 24 25 26 27 26 25 26 27 26 27 27 29 29 29 29 29 28 28 25 22 19 17 15 13 11 11 12 15 18 22 26 29 32 36 40 44 48 51 54 58 59
9 10 12 14 16 17 19 20 20 21 22 23 24 24 25 25 25 26 26 26 27 27 29 30 30 31 30 32 31 30 27 24 21 20 19 17 15 15 15 17 20 22 26 31 34 38 40 44 48 50 54 58 60 62
14 14 14 15 17 17 18 18 20 21 22 22 23 23 23 25 27 27 26 26 27 29 31 31 32 33 33 32 32 29 27 26 26 24 22 19 18 19 19 21 24 27 31 35 38 41 43 47 50 53 56 61 62 63
11 13 15 16 17 17 18 19 19 20 22 22 22 23 24 26 26 25 25 26 27 28 30 33 33 34 32 33 32 30 29 29 28 27 24 22 22 22 23 26 28 31 35 39 42 44 47 50 53 56 60 62 63 64
9 11 13 14 17 18 20 19 21 22 22 22 24 24 25 27 26 26 26 26 27 29 31 32 33 34 33 34 34 32 32 31 31 30 27 26 25 25 27 29 32 34 37 41 44 47 50 53 55 59 62 64 65 64
10 11 12 14 14 15 16 20 22 22 22 23 25 26 26 28 28 27 28 28 29 30 31 31 34 35 35 36 36 35 35 34 34 33 30 28 28 29 30 33 35 37 40 44 47 50 52 55 57 61 63 65 64 64
13 13 13 13 15 17 19 20 21 22 21 22 23 24 26 28 30 30 31 31 30 30 32 33 36 37 37 38 39 38 37 37 36 34 32 31 32 32 34 36 38 40 42 46 49 52 55 57 59 62 63 64 63 64
15 15 15 16 18 19 19 19 20 21 22 22 23 25 27 30 32 33 30 30 29 31 32 33 37 40 40 40 40 41 39 38 38 36 35 35 35 36 37 39 40 42 45 48 51 53 56 58 61 62 64 63 63 62

GFSWCAN_250_spd_099.txt.gz
Wind_Speed
30 27 30 37 32 33 34 34 35 37 38 39 39 39 38 36 34 33 31 29 29 29 30 30 30 30 30 33 37 37 38 40 41 43 44 46 47 49 50 49 45 40 36 36 33 34 35 35 35 36 34 34 33 33
28 30 36 31 33 35 34 35 37 37 38 39 40 39 37 36 34 32 30 28 29 29 29 29 28 28 29 32 36 39 40 41 43 45 46 46 45 45 46 43 37 36 34 34 27 31 32 29 30 28 27 28 29 29
31 33 32 33 35 35 35 37 38 40 41 42 41 39 37 36 33 30 30 29 29 29 28 28 29 30 31 32 32 34 37 40 41 41 41 41 41 38 37 36 33 31 32 31 26 29 26 24 24 23 23 25 27 29
32 31 32 34 35 36 39 40 41 42 42 43 41 39 37 34 32 32 31 29 28 30 30 30 30 31 30 31 33 35 35 36 37 38 39 38 35 32 30 29 31 30 33 31 24 27 23 21 21 22 24 26 26 28
32 32 34 36 37 39 41 43 43 43 44 43 40 39 36 34 32 31 30 30 30 30 29 29 27 27 29 29 30 31 33 35 36 36 36 34 31 29 28 26 29 29 32 30 23 25 20 18 21 24 24 24 27 28
37 37 38 38 39 41 43 44 44 44 45 42 40 37 35 33 31 30 31 30 29 29 27 27 27 28 28 29 30 32 33 34 34 33 32 31 31 31 31 29 28 28 29 28 24 22 20 18 21 23 22 22 23 23
37 38 39 40 41 43 43 44 43 44 44 43 40 37 34 32 30 31 31 29 29 28 27 26 26 27 28 29 30 31 32 32 32 31 32 33 34 32 30 29 29 26 26 26 25 20 20 19 20 22 21 22 23 23
35 39 40 41 42 43 44 43 45 47 45 42 39 37 33 30 30 30 30 29 28 26 26 26 26 28 29 29 30 30 30 30 32 32 33 33 32 33 30 28 27 24 23 25 24 21 19 19 21 23 23 23 22 21
34 36 40 42 43 44 45 46 48 47 44 42 39 36 33 31 30 29 28 26 25 25 25 27 27 27 27 28 29 30 31 32 32 31 32 31 31 29 24 25 23 21 22 24 24 20 19 19 21 23 27 26 23 19
35 36 39 42 44 45 45 47 48 46 42 41 37 34 31 29 27 26 25 24 24 26 27 26 25 26 28 29 30 31 31 29 30 31 28 27 27 22 23 20 20 20 21 22 22 21 20 19 21 22 28 28 28 26
35 37 40 41 42 44 46 48 47 44 42 40 37 35 31 28 26 24 25 25 25 25 25 25 26 28 30 31 31 28 27 27 27 26 24 22 20 20 18 18 20 20 22 21 19 18 17 16 18 18 22 26 28 28
34 36 38 40 42 43 45 46 44 43 41 39 36 33 30 28 26 25 24 25 25 25 25 26 28 29 30 29 26 24 25 23 21 19 17 17 17 17 18 19 18 16 13 12 12 11 11 9 12 15 14 16 23 23
33 35 37 39 40 42 43 44 43 41 39 37 35 32 30 27 26 26 26 26 26 26 27 27 27 28 27 24 24 22 20 17 14 14 13 14 15 15 14 13 14 14 12 13 12 13 15 13 12 14 15 15 14 13
32 34 37 38 39 42 44 45 44 42 41 39 36 32 30 30 29 28 28 27 26 27 25 26 27 25 22 22 20 18 15 13 12 10 9 9 10 11 12 13 13 12 11 11 11 13 13 15 15 14 14 13 13 13
31 34 36 38 39 41 43 45 44 42 40 37 35 34 34 32 31 30 28 27 25 24 24 26 25 21 21 20 18 15 13 11 10 8 9 9 11 13 13 12 11 10 9 10 12 14 14 14 14 12 10 9 9 10
31 32 35 38 40 40 40 41 42 41 40 38 37 35 32 30 28 27 26 24 24 25 26 25 20 19 19 17 14 11 9 9 10 10 11 12 13 14 13 11 9 10 13 13 14 14 13 11 9 7 6 6 9 11
31 33 35 38 39 39 40 40 39 38 37 36 34 31 30 29 28 27 26 25 25 26 25 20 18 17 15 13 11 9 10 10 11 11 12 12 11 12 13 14 16 15 13 14 13 13 11 9 7 6 6 6 9 13
30 33 35 37 38 38 38 38 37 37 37 34 33 32 30 29 28 27 27 27 26 25 21 18 17 14 12 11 10 11 12 11 11 13 10 12 13 18 17 15 15 15 14 15 14 12 9 7 5 3 8 11 15 19
30 32 33 34 37 38 39 39 38 38 37 35 34 33 32 30 29 29 28 27 25 23 19 17 15 12 12 13 12 13 12 12 13 14 15 17 20 19 18 16 16 16 15 13 10 8 5 1 4 8 12 17 20 24
26 26 27 30 32 36 38 38 37 36 36 35 33 32 32 31 30 30 29 26 23 20 17 16 14 14 15 13 14 13 13 15 18 18 21 21 21 19 18 17 16 15 13 11 8 4 1 4 7 11 16 21 25 30
25 25 26 28 29 31 32 32 33 33 33 32 31 31 31 31 30 28 26 24 21 17 16 17 17 18 17 16 15 15 18 22 23 23 22 20 20 20 19 17 15 14 12 8 4 1 3 7 12 17 22 26 30 35
22 23 23 24 25 27 28 28 29 30 30 30 30 29 29 28 27 26 24 21 17 17 21 20 21 21 19 17 17 20 23 26 25 23 23 22 21 21 19 17 14 12 9 6 4 6 11 15 18 22 27 31 35 39
15 16 19 20 22 23 23 25 26 27 28 28 27 25 25 25 26 24 21 18 20 24 23 22 21 21 20 19 21 24 26 27 27 26 25 24 22 20 18 16 13 11 9 6 8 12 16 19 22 26 31 35 39 43
17 16 17 17 19 21 23 25 25 25 24 24 25 26 26 24 22 21 20 23 26 24 22 22 22 22 21 20 24 27 28 28 27 27 26 25 22 20 18 16 13 11 9 10 12 15 19 22 25 30 34 38 43 46
15 16 18 19 20 21 22 22 22 23 24 24 24 23 22 22 21 22 25 26 23 23 23 24 23 22 21 24 29 29 28 28 28 28 26 24 23 20 17 15 13 13 13 13 16 19 22 26 30 34 38 42 45 48
7 7 11 10 13 16 17 19 20 21 20 20 20 21 21 20 22 25 26 22 23 22 23 26 23 22 25 27 29 28 29 29 29 27 25 24 24 22 20 17 17 17 16 18 21 24 28 32 36 39 43 46 49 50
9 10 11 11 12 14 15 16 16 17 18 18 19 19 20 22 25 25 22 23 23 22 26 25 23 24 27 28 28 29 30 30 28 27 28 28 25 23 22 20 20 20 21 23 25 28 32 36 39 43 46 49 52 54
9 11 11 11 12 12 13 14 14 15 16 16 17 19 21 23 24 22 22 23 22 24 27 26 25 26 28 29 30 31 31 30 30 31 30 28 26 26 24 24 24 24 26 28 30 32 35 39 42 46 49 53 55 58
4 6 7 9 10 10 11 13 14 15 16 16 17 20 21 22 21 20 21 22 22 23 25 26 27 28 30 31 32 33 32 32 33 35 33 31 30 29 28 28 28 29 31 32 33 34 38 41 45 48 52 56 58 61
6 5 4 5 7 10 11 12 13 14 14 16 18 20 21 21 20 21 21 23 22 22 24 24 26 29 31 32 33 34 34 34 35 36 35 35 34 32 33 33 33 34 35 35 36 38 41 44 47 51 54 57 61 61
7 8 8 9 9 8 8 9 11 12 13 15 16 18 20 20 20 21 22 24 25 25 25 25 26 30 30 32 34 35 37 37 38 38 37 37 36 36 36 36 37 37 38 39 40 41 44 47 49 53 57 59 62 62
9 10 11 11 12 13 14 14 14 14 14 15 16 17 20 20 20 20 23 24 25 26 27 27 27 30 31 32 36 37 37 38 39 40 40 39 38 38 38 38 40 40 41 41 42 44 46 49 52 55 58 61 61 63
11 11 12 13 15 16 16 16 16 17 16 16 17 19 22 24 24 22 21 23 23 25 28 29 29 30 32 33 34 36 38 39 40 41 41 40 40 39 39 40 41 42 42 42 43 46 49 51 53 57 59 61 61 64

GFSWCAN_250_spd_102.txt.gz
Wind_Speed
31 32 31 31 34 35 34 34 35 35 33 34 36 38 38 38 39 39 36 33 32 30 30 29 29 30 31 33 34 33 35 35 35 37 38 37 36 38 40 42 44 45 45 44 39 37 37 36 37 37 36 35 35 34
29 29 29 34 35 33 31 33 34 34 34 36 38 38 38 39 40 35 33 32 31 31 31 31 29 29 30 32 32 32 34 37 35 35 36 36 38 41 43 43 43 43 40 35 32 32 34 33 32 31 32 31 30 29
29 29 35 34 32 32 33 34 34 35 36 36 38 40 41 39 36 36 34 33 32 32 31 29 29 29 29 31 31 32 34 37 38 38 39 40 43 41 42 41 37 36 34 31 28 29 30 29 28 28 28 27 25 23
29 33 32 31 33 34 34 35 36 37 38 41 42 41 40 40 38 36 35 34 33 31 30 30 29 30 31 31 30 31 32 35 39 40 40 40 39 38 39 37 33 31 29 30 26 28 26 27 25 24 24 22 21 22
32 31 30 34 36 38 38 38 40 41 42 41 41 42 42 39 36 34 34 33 32 31 31 31 30 29 29 29 30 30 31 32 33 34 35 36 35 35 33 29 28 29 29 28 26 26 26 25 23 21 21 20 21 22
31 30 33 34 36 38 39 40 41 40 38 41 44 43 38 36 35 35 34 33 32 30 30 31 29 28 27 27 29 29 28 30 32 33 32 32 31 28 27 25 26 27 29 28 26 27 25 24 22 20 20 20 23 25
31 33 34 35 38 39 40 40 41 40 43 45 42 40 39 38 37 37 36 34 32 29 27 27 27 26 26 27 28 29 30 30 31 30 29 27 27 26 25 24 25 27 28 29 27 27 24 23 22 20 20 22 23 24
36 37 36 38 40 40 40 40 41 44 45 43 41 40 38 36 35 34 33 31 29 27 27 26 26 26 26 26 27 29 29 29 28 28 27 27 27 27 26 25 25 28 30 31 28 25 24 21 22 20 21 23 25 27
36 38 39 39 41 40 40 42 45 45 43 43 41 39 37 36 34 33 32 30 29 28 26 26 28 27 27 27 27 27 27 27 27 26 27 27 29 29 28 27 28 30 30 30 28 24 23 22 22 22 23 24 26 27
35 39 40 40 39 38 42 45 47 45 44 42 40 38 35 33 32 31 30 28 28 25 26 27 26 25 25 24 24 25 26 26 25 24 28 29 29 28 29 27 27 28 27 28 25 22 20 21 21 22 25 24 27 28
35 37 39 40 40 42 46 47 47 45 44 42 41 38 35 32 31 29 27 26 26 26 24 23 23 22 22 24 25 24 24 24 24 27 29 28 28 26 25 23 24 23 24 23 21 19 18 18 20 21 22 22 25 28
36 37 38 39 40 44 47 48 46 43 43 41 38 35 33 29 27 26 26 26 25 23 21 21 20 21 22 24 24 23 25 25 27 25 25 23 22 20 19 19 19 19 18 17 15 13 13 13 15 18 18 18 19 28
34 36 37 39 41 44 46 46 43 42 41 38 36 34 31 30 29 28 27 24 21 20 20 20 20 21 24 25 24 23 24 25 23 20 18 16 15 15 15 14 14 14 15 17 17 17 17 17 18 19 17 18 17 15
34 36 36 38 41 44 44 43 44 43 42 39 37 35 32 31 29 26 23 22 21 20 20 20 22 25 26 25 23 23 22 20 16 13 13 13 13 14 15 16 16 16 16 16 18 18 19 21 20 20 19 15 14 13
32 34 36 39 40 42 43 42 42 42 40 39 37 35 34 30 28 25 22 21 20 19 20 23 25 26 25 21 20 19 17 14 11 10 12 12 12 13 12 13 13 14 15 16 17 16 16 16 15 13 14 12 9 8
31 33 36 38 39 40 41 42 42 41 41 39 37 35 31 29 26 25 23 21 21 23 25 26 24 23 20 18 17 15 12 10 10 10 11 11 10 10 11 11 12 14 14 15 15 15 15 14 13 12 12 11 7 5
31 33 35 37 38 39 40 41 41 40 40 38 36 32 31 29 27 25 24 25 26 26 25 24 22 18 17 17 13 11 9 8 8 9 10 9 9 10 12 14 15 16 16 15 16 16 17 17 16 13 9 6 6 8
28 29 32 35 37 37 37 38 38 39 38 36 34 33 31 29 27 27 27 27 27 26 24 21 19 16 15 13 11 11 10 8 9 10 11 11 12 14 15 15 17 17 19 20 19 18 17 13 10 9 7 5 7 10
27 28 29 32 34 34 34 35 35 36 36 35 34 33 32 31 31 30 29 27 26 25 22 19 18 14 14 12 11 12 11 10 11 14 14 16 18 19 19 19 19 20 19 19 18 15 13 11 10 6 4 5 8 11
26 27 28 30 33 35 36 36 36 36 37 37 36 35 34 32 31 30 28 27 25 23 20 18 17 15 14 13 14 13 12 12 14 18 19 20 21 21 21 19 19 19 19 17 15 13 12 9 6 4 5 8 13 17
25 27 28 30 33 33 35 35 37 37 39 38 36 34 33 32 31 30 29 27 24 21 20 19 18 16 17 16 15 15 14 16 20 23 23 25 24 22 21 21 18 17 16 14 14 12 9 7 6 8 11 15 19 23
22 25 27 29 31 32 34 34 35 36 36 35 34 33 32 32 31 30 28 25 22 20 20 22 19 19 19 17 18 17 18 22 25 26 26 25 23 24 22 20 19 17 16 15 12 11 9 9 10 13 16 19 23 27
19 20 21 23 23 23 26 28 29 29 31 32 31 32 31 30 29 28 24 21 21 22 24 22 20 20 20 20 20 19 22 27 29 28 27 25 25 25 23 21 20 18 17 15 14 13 12 12 13 15 17 22 26 31
18 19 20 20 22 23 24 26 27 28 28 29 29 28 27 26 24 23 22 22 24 25 25 20 20 22 21 23 23 23 26 30 30 29 28 28 27 26 23 21 20 19 16 17 16 16 15 16 16 19 23 27 32 35
17 17 18 19 19 21 22 23 24 23 22 22 23 24 25 24 23 21 23 26 26 24 21 20 23 23 22 26 25 26 28 30 31 30 30 29 28 26 25 23 22 20 19 19 19 19 19 20 22 25 28 32 36 39
9 8 16 14 17 20 20 20 20 22 22 22 22 22 22 22 22 24 27 25 22 20 21 23 24 22 24 28 26 28 30 32 30 30 30 30 29 28 27 25 23 22 23 23 23 22 23 24 26 30 33 36 39 42
11 10 13 11 13 14 15 16 17 18 19 19 19 19 20 22 23 25 24 21 20 22 24 24 24 24 27 28 28 31 32 31 32 32 31 31 31 30 28 26 26 26 26 26 26 27 28 29 31 34 37 40 42 45
9 12 13 12 12 12 13 14 14 14 15 17 17 19 20 21 23 22 20 20 22 23 23 24 25 27 30 29 30 32 33 32 33 33 33 32 32 31 30 30 30 30 31 31 31 32 33 34 35 37 40 42 45 48
4 4 5 8 10 12 12 13 15 16 17 17 18 19 20 20 21 19 20 22 23 23 23 24 25 29 31 31 32 34 34 34 35 35 34 34 33 33 33 33 33 34 34 35 35 36 36 37 38 40 42 44 46 51
8 11 10 9 7 9 11 12 12 13 15 16 17 18 18 18 18 19 19 21 23 23 23 24 26 29 32 32 34 35 35 35 36 37 37 37 36 35 35 36 37 37 36 37 38 39 40 40 41 43 44 46 49 52
7 9 9 11 14 16 17 15 12 11 11 13 14 16 17 17 18 18 19 21 21 21 22 23 25 28 30 32 33 35 35 36 37 38 38 38 38 38 38 38 39 39 39 39 40 41 42 42 43 45 46 47 51 54
8 9 11 12 14 15 15 15 17 18 19 19 19 19 20 20 21 21 21 21 22 22 23 24 25 27 28 30 32 33 35 35 37 39 40 39 39 40 40 40 40 40 40 40 41 41 41 42 43 44 46 48 52 55
8 9 10 13 14 14 14 16 17 18 20 21 22 23 23 22 22 21 20 21 22 24 24 25 26 27 29 30 30 32 33 34 36 37 38 39 40 41 40 40 40 40 41 41 42 42 42 42 43 45 47 51 53 54

GFSWCAN_250_spd_105.txt.gz
Wind_Speed
32 32 32 29 28 29 29 31 31 30 29 29 29 31 33 35 38 38 39 39 40 38 36 36 36 35 33 32 30 30 30 30 29 30 32 28 32 35 33 34 36 38 40 43 45 44 42 40 40 38 36 36 35 35
29 28 28 27 29 30 30 31 32 31 31 30 29 31 34 36 35 37 41 39 36 36 37 36 34 32 32 30 30 31 30 29 30 31 32 34 36 37 37 37 39 40 43 45 42 38 37 35 34 32 33 32 32 31
26 27 28 30 32 32 30 33 33 32 31 30 31 33 35 36 39 40 37 38 38 36 33 31 32 31 28 27 29 30 30 31 33 33 35 35 36 38 40 40 41 41 40 38 33 32 34 32 30 31 32 31 29 27
28 28 30 31 30 30 32 32 33 34 33 32 32 35 38 41 38 39 41 39 36 33 32 31 30 28 27 27 28 29 30 31 31 34 37 37 38 38 39 40 39 39 38 32 30 31 31 29 29 29 29 25 25 22
29 31 31 30 31 32 34 34 35 36 35 36 39 42 41 37 42 42 38 35 33 31 30 30 29 28 28 29 29 30 30 32 33 34 36 39 40 41 39 38 36 34 31 30 30 29 29 28 26 25 25 23 21 19
31 29 30 32 33 35 35 36 37 38 40 41 40 38 41 43 41 37 35 33 32 31 30 30 29 30 29 29 30 31 32 32 31 32 34 36 36 36 36 34 31 29 29 30 30 28 28 25 23 24 24 22 18 19
29 30 32 33 34 36 37 38 39 38 35 36 40 44 45 42 40 40 39 37 35 33 31 29 30 30 29 30 30 31 31 31 32 32 33 34 34 33 33 30 28 28 28 30 30 28 26 24 23 23 23 21 19 20
29 31 32 34 35 37 38 37 36 37 40 43 44 43 42 41 39 36 35 34 33 32 33 33 32 30 29 28 28 29 30 30 31 32 33 32 31 30 30 29 28 28 29 29 30 27 26 25 24 23 23 22 21 23
31 33 33 34 35 37 37 37 40 43 43 42 42 42 41 40 38 36 34 33 33 33 31 29 29 29 29 29 29 29 29 30 30 30 30 29 30 27 30 30 30 29 29 29 30 28 26 25 25 24 23 23 23 24
32 33 34 35 36 37 40 42 42 42 42 44 44 42 39 36 35 32 32 34 33 30 29 29 28 28 28 27 27 28 28 29 29 29 27 27 28 30 31 29 27 28 29 30 29 28 26 26 25 24 24 23 24 24
32 33 35 36 38 41 42 42 42 44 45 44 43 40 38 36 33 32 33 32 32 30 28 26 26 27 26 27 27 28 27 26 25 23 26 28 30 28 29 28 26 28 28 27 27 25 25 24 23 24 23 23 24 25
33 35 37 38 40 42 43 43 44 46 45 43 41 39 36 33 31 31 32 31 30 27 27 27 26 25 25 26 26 25 23 21 22 23 25 27 26 26 26 25 25 25 23 23 22 22 22 22 22 23 23 22 23 22
33 35 39 41 42 42 43 44 44 44 43 40 37 34 33 32 32 32 30 28 28 27 26 25 24 23 23 23 21 20 18 18 21 23 24 25 23 21 21 20 19 19 19 19 18 18 19 20 21 22 22 21 20 19
34 34 38 41 43 43 44 43 43 41 40 38 36 35 34 31 30 29 29 27 27 25 23 22 22 22 21 20 17 16 20 21 22 23 22 19 17 17 17 18 18 19 19 20 20 21 22 22 22 22 22 21 20 18
33 37 39 40 42 42 41 41 42 42 41 39 38 36 34 32 30 28 27 25 24 22 22 21 21 20 18 16 17 20 21 21 20 19 17 16 15 15 15 16 17 17 18 19 19 20 21 22 23 21 23 23 20 19
32 34 38 40 41 40 40 42 43 43 42 39 37 35 33 30 27 26 25 24 23 22 21 21 20 18 17 19 20 21 20 19 16 16 14 12 13 14 15 16 16 17 17 18 17 18 18 19 18 19 19 22 20 17
32 34 36 38 38 40 42 43 43 41 39 37 34 32 30 29 28 26 25 25 23 22 21 21 20 21 19 19 19 19 18 15 14 13 11 12 13 14 15 15 16 17 19 19 19 19 20 19 20 20 18 18 16 13
30 33 35 36 38 38 40 41 42 41 39 37 36 34 33 32 30 29 28 26 24 23 21 22 22 23 19 18 18 17 16 14 14 11 10 12 13 14 15 15 16 17 18 19 19 19 20 21 20 18 15 12 11 10
27 30 33 35 36 38 38 40 40 40 39 38 36 35 33 32 31 29 27 25 24 23 24 25 24 21 17 18 17 16 15 15 14 11 11 14 14 15 16 16 18 19 20 20 20 20 19 17 16 14 13 11 9 9
27 27 30 32 34 35 36 37 38 39 39 37 36 35 34 33 31 30 28 27 26 26 26 27 24 18 17 18 16 16 15 16 14 13 15 16 17 17 18 19 19 20 19 19 19 18 17 16 14 12 11 11 12 12
28 28 27 30 32 33 33 36 37 37 37 37 37 37 35 34 33 32 30 30 29 29 28 27 22 16 17 17 16 16 16 17 15 16 18 19 19 19 20 19 20 20 21 22 19 17 15 13 13 13 13 13 14 15
27 28 29 29 30 32 33 35 37 38 38 39 38 38 37 36 35 34 33 31 31 30 29 24 20 18 19 18 17 18 18 19 19 19 21 23 22 23 24 22 22 21 21 19 17 16 16 16 15 14 15 16 16 17
25 27 28 30 31 32 33 34 35 36 37 37 37 38 37 36 35 34 32 31 31 30 28 23 22 21 20 20 20 19 22 22 21 22 25 26 26 27 26 25 24 22 21 19 18 17 17 17 16 17 18 19 19 22
22 23 25 26 27 29 29 30 31 32 33 34 35 35 34 33 32 31 30 30 30 28 26 24 23 21 21 22 23 21 25 24 24 25 28 29 29 30 29 27 25 24 23 21 20 20 20 19 20 21 22 23 26 28
19 20 20 22 23 25 25 26 26 28 29 30 29 29 29 29 29 29 29 29 27 26 27 25 23 22 24 23 24 23 26 26 26 28 30 31 31 30 30 29 27 26 24 22 22 23 24 24 25 26 27 29 31 33
14 15 18 19 20 21 22 23 24 24 25 25 25 26 27 27 27 27 27 27 26 26 26 24 23 24 26 24 26 25 28 27 28 29 32 33 32 32 32 31 30 27 25 24 25 26 27 28 29 31 32 34 35 37
11 11 15 15 16 18 20 21 21 22 23 23 23 25 25 24 25 26 25 26 26 25 24 23 24 27 26 25 27 27 29 29 30 31 33 33 33 34 34 33 32 29 28 28 29 30 31 32 34 35 37 38 39 41
10 12 15 16 16 16 17 18 19 19 19 21 22 22 23 23 25 26 25 24 23 23 23 25 26 26 25 26 27 28 30 31 31 32 33 33 34 35 35 35 33 32 31 32 33 33 35 36 38 39 40 40 42 43
9 9 10 12 13 15 16 17 17 18 20 20 20 21 21 23 23 23 22 22 22 23 24 26 25 25 26 27 29 29 30 32 32 31 32 34 36 37 36 36 36 35 35 36 36 37 38 38 39 41 41 42 44 45
10 13 14 14 13 14 15 16 18 18 19 19 19 21 21 21 21 21 21 21 22 23 24 24 25 25 26 28 29 28 30 32 32 33 33 34 36 37 37 37 37 37 37 38 39 40 40 41 42 43 43 44 45 45
8 10 12 13 15 18 19 19 19 19 19 20 20 20 20 21 21 21 21 22 23 24 24 24 24 24 26 27 27 27 30 31 32 33 34 34 36 37 38 38 38 39 39 40 40 40 40 42 44 45 46 47 47 48
9 11 12 13 14 14 14 17 19 21 22 23 24 25 25 25 24 24 23 23 24 24 24 24 25 24 25 26 27 28 29 31 31 33 35 36 36 38 39 40 41 41 41 41 42 42 43 44 46 47 48 48 49 49
11 12 14 15 15 16 16 17 18 19 20 21 21 22 22 22 22 22 24 25 26 26 26 26 26 26 26 26 27 28 29 31 33 35 35 35 35 37 39 40 41 42 43 44 44 45 45 46 47 47 48 49 49 49

GFSWCAN_250_spd_108.txt.gz
Wind_Speed
31 32 33 32 31 30 30 30 30 30 31 32 32 32 32 32 33 33 35 37 37 36 38 38 39 38 37 38 40 38 37 35 33 32 34 30 28 25 27 27 28 27 28 31 33 35 38 39 40 43 46 47 47 46
30 31 29 29 29 28 28 30 30 29 29 29 28 30 31 31 31 32 33 33 34 35 35 35 36 38 39 38 37 35 33 33 31 33 32 30 29 30 30 30 31 32 33 36 38 39 41 39 39 42 44 43 39 37
28 28 28 29 29 30 32 31 29 28 28 27 28 28 29 30 31 31 33 35 35 36 37 37 38 37 35 34 32 30 29 33 34 34 32 30 29 31 32 29 33 36 37 37 39 38 39 36 37 39 39 36 34 31
27 28 29 31 32 33 32 28 29 29 28 27 27 27 29 30 32 34 35 35 37 38 38 37 34 34 31 29 28 29 32 33 34 33 30 30 30 32 31 33 34 35 37 39 37 37 36 32 34 35 32 31 30 31
29 30 31 32 32 31 30 29 28 29 28 28 28 29 31 34 34 33 35 38 38 37 35 34 33 29 28 28 29 30 31 32 31 29 30 30 32 32 34 35 36 39 40 39 38 33 30 32 31 30 30 29 28 27
29 31 31 31 30 30 30 31 30 30 30 31 30 32 33 33 35 36 37 36 34 33 31 29 28 28 29 29 28 27 28 28 28 29 31 31 32 35 36 37 39 41 38 35 33 30 31 29 29 30 29 28 26 22
30 30 30 30 31 32 32 32 32 34 35 34 35 34 36 38 39 39 40 38 36 33 30 29 29 29 29 27 26 26 27 28 29 30 30 32 33 33 35 36 36 36 34 31 29 30 28 29 29 28 29 26 23 21
28 28 29 30 31 31 32 33 35 35 35 33 33 38 41 42 42 40 36 34 33 31 30 30 29 28 28 28 27 28 28 29 29 30 31 32 33 34 35 33 33 31 31 30 30 30 31 30 29 27 28 25 24 22
28 29 30 31 32 32 32 33 33 32 31 35 39 42 41 40 38 36 35 32 29 28 28 28 28 27 26 26 27 26 26 27 28 29 31 31 32 32 35 31 33 32 32 31 31 33 32 30 29 28 28 26 26 23
28 30 31 31 31 31 32 35 37 40 41 43 42 40 39 37 37 35 32 29 28 26 26 28 27 27 27 27 26 26 26 27 28 30 30 31 31 31 32 32 31 32 33 34 34 34 33 30 30 29 27 26 26 23
29 30 31 32 34 37 39 39 40 40 40 40 41 41 39 38 35 32 29 27 27 28 28 28 27 28 27 26 25 26 27 29 30 28 30 29 29 31 31 35 34 34 35 35 34 35 35 31 29 30 28 26 27 26
30 32 33 35 37 37 38 39 40 41 43 43 42 40 38 34 31 29 27 26 27 27 27 27 26 25 24 24 26 26 27 28 27 26 28 29 31 33 35 35 36 34 35 35 35 35 34 30 29 29 27 27 27 26
31 33 34 35 37 37 37 38 39 40 40 39 38 35 32 30 28 27 28 30 31 29 26 25 24 24 25 24 25 25 26 25 25 26 29 30 32 33 33 32 31 31 31 32 32 31 31 29 27 26 27 27 26 24
32 34 34 35 36 37 37 39 40 40 40 40 38 36 33 32 32 33 32 27 23 23 23 23 25 25 23 24 24 23 23 23 25 29 27 28 28 26 24 24 23 24 24 25 26 26 26 26 25 26 26 25 22 21
34 34 34 36 37 37 38 39 40 40 41 40 38 36 35 33 29 26 25 26 24 24 25 24 23 23 23 23 23 23 22 23 23 24 25 25 23 20 19 19 19 20 22 22 23 24 25 25 25 25 25 25 24 24
32 34 35 36 36 38 39 39 38 38 38 38 38 35 30 27 26 26 26 24 22 22 22 22 23 22 22 23 22 19 20 21 22 23 23 21 19 18 17 17 17 19 20 21 22 23 24 25 25 24 24 23 23 23
32 32 33 35 34 37 40 41 42 43 42 39 35 31 31 31 29 26 23 22 22 23 23 23 22 22 22 21 18 19 21 22 22 21 19 17 18 17 16 17 18 19 19 20 21 21 22 23 23 22 22 22 22 24
32 32 32 33 36 39 40 40 40 40 37 34 33 32 31 29 26 25 24 23 23 23 23 23 22 23 22 19 17 21 22 22 20 17 15 17 16 15 16 16 17 18 19 20 20 20 20 21 21 20 20 19 21 22
31 32 32 33 36 39 41 40 38 37 36 34 33 32 30 29 27 26 25 25 24 24 24 24 24 22 20 19 19 22 22 20 18 16 16 16 15 15 16 16 16 17 18 18 18 18 19 21 21 20 20 20 19 17
30 31 32 33 35 37 38 38 38 37 36 36 36 33 31 30 29 28 27 26 26 26 27 26 24 22 19 18 20 22 20 19 17 15 17 16 15 15 15 15 16 16 17 17 17 18 19 19 20 20 19 18 17 17
25 27 29 31 33 35 36 38 37 37 37 36 35 33 32 31 30 30 30 30 29 29 29 28 25 23 20 19 20 20 20 18 17 16 18 16 15 17 16 15 16 16 17 17 18 19 20 20 20 19 17 16 16 16
23 23 26 28 30 32 34 35 36 36 36 37 37 36 35 34 33 32 33 32 32 32 31 29 26 24 21 19 21 21 20 19 18 17 19 17 16 18 18 17 17 19 19 19 21 21 20 19 18 16 16 16 17 18
25 25 25 26 29 30 32 34 35 36 36 37 37 37 36 36 36 36 35 35 34 33 32 29 28 25 23 21 22 22 21 20 19 18 20 20 18 20 21 21 20 22 20 21 22 21 19 18 18 19 19 19 20 22
24 27 28 28 29 30 31 32 32 34 36 36 37 37 38 38 37 36 36 36 34 32 31 29 28 26 24 22 23 23 23 22 21 21 22 22 21 23 23 24 24 25 24 25 24 23 21 21 22 22 23 24 25 26
21 23 25 27 29 31 32 33 33 33 34 34 35 35 35 36 35 35 35 33 32 31 31 31 28 25 25 25 25 25 25 24 24 23 24 24 24 26 28 28 28 28 28 27 26 24 24 24 24 26 27 29 30 32
17 18 20 22 23 25 27 28 29 30 30 31 32 31 31 32 33 33 33 32 31 30 29 29 29 27 27 27 27 27 26 26 26 25 26 27 26 28 31 32 32 31 31 29 29 28 28 28 28 30 31 33 35 37
15 16 17 20 21 22 23 25 25 26 27 27 27 28 29 29 30 31 30 30 30 29 29 29 28 27 27 28 28 27 27 27 27 27 26 27 27 28 31 33 33 33 33 33 32 32 32 32 32 33 35 36 38 40
14 15 17 20 21 21 22 23 23 24 25 26 27 28 28 28 28 30 30 28 29 30 28 28 28 27 27 28 27 26 27 28 27 28 26 28 30 29 30 33 35 35 35 35 35 35 35 36 37 37 38 39 40 41
10 9 12 17 18 18 20 21 23 23 24 25 26 26 27 27 27 27 27 27 29 27 27 26 26 27 27 26 26 26 27 27 26 28 26 27 30 30 31 32 34 36 36 37 37 37 38 39 40 40 42 42 43 44
10 12 13 15 16 16 17 19 21 22 24 24 25 25 26 28 28 27 26 26 26 25 25 25 26 26 26 25 24 25 26 26 26 27 27 26 29 31 32 33 35 36 38 38 38 39 40 40 42 42 43 44 45 46
12 12 13 14 15 15 18 19 20 21 22 22 23 24 24 25 26 26 25 24 24 24 25 25 25 25 25 24 25 25 26 26 25 26 26 26 28 31 33 33 34 35 37 38 39 40 41 42 42 43 44 44 46 48
11 12 13 14 15 14 13 14 16 19 21 22 23 23 24 24 24 24 23 23 23 24 25 25 24 23 24 25 26 26 26 25 26 27 27 26 26 29 31 32 33 34 36 38 39 41 41 42 43 44 45 46 48 50
13 14 14 14 14 15 16 17 17 17 18 18 19 19 18 18 19 17 19 21 23 24 24 24 23 24 25 25 25 25 24 25 26 27 27 27 26 27 29 32 34 34 35 35 36 38 39 41 43 44 45 47 48 49

GFSWCAN_250_spd_111.txt.gz
Wind_Speed
32 33 34 34 35 34 32 33 34 35 32 33 33 33 34 35 35 36 37 38 38 38 38 38 38 38 38 33 37 44 41 40 41 40 36 32 31 31 32 31 28 25 22 20 19 19 23 22 24 28 33 36 40 44
28 29 29 29 30 30 31 30 31 31 30 30 30 31 31 31 31 32 33 33 32 32 33 34 34 34 34 36 39 39 38 37 37 34 30 30 31 31 29 26 24 23 21 21 22 24 25 27 30 34 38 41 44 46
27 27 28 28 29 30 29 30 29 27 26 27 28 28 29 29 28 27 27 27 30 32 33 31 31 33 35 37 38 36 34 34 33 31 31 31 30 29 28 26 22 22 24 27 29 26 28 31 33 37 40 41 43 40
24 26 27 29 29 28 28 27 27 27 26 26 26 27 27 26 26 26 28 29 29 29 31 32 34 34 34 33 34 34 32 31 31 31 31 29 29 29 28 25 27 29 29 29 29 31 34 36 36 35 37 38 37 34
25 26 28 28 28 28 27 26 26 26 26 26 26 25 25 26 27 28 28 28 29 30 31 31 32 33 34 32 31 30 30 30 30 29 28 29 30 30 29 28 31 31 29 31 33 34 34 35 35 33 34 34 32 29
25 26 28 29 28 27 26 27 27 27 27 26 25 26 27 27 25 25 27 30 31 31 29 31 31 31 30 29 29 28 29 29 28 28 31 31 30 30 30 32 32 34 34 34 35 36 36 35 31 31 33 31 29 28
26 27 28 27 27 27 28 29 30 30 29 28 27 26 27 29 30 31 32 33 33 33 34 32 30 29 29 28 28 28 28 28 27 28 29 30 30 29 30 33 33 33 35 36 38 35 32 31 30 31 30 30 28 26
27 27 27 28 29 29 30 32 32 31 29 28 29 30 31 32 33 34 35 35 34 33 32 31 29 27 27 26 26 27 27 27 28 27 28 28 29 30 31 32 33 34 36 36 36 32 30 29 30 31 29 30 29 25
25 26 27 29 30 30 31 32 31 31 30 29 29 31 33 35 35 35 33 32 31 30 29 29 29 29 27 26 26 26 25 25 25 26 26 26 28 30 31 31 32 34 35 34 33 30 31 31 31 32 29 30 29 26
27 28 29 29 30 31 30 30 28 27 25 27 30 32 31 33 33 33 33 32 30 27 26 25 24 26 27 26 24 23 23 24 24 24 24 27 28 31 31 32 32 33 32 32 33 33 33 33 32 32 32 30 30 29
28 28 28 28 29 30 31 32 33 34 34 34 33 32 32 33 34 33 31 29 26 25 24 24 24 23 22 22 22 20 20 21 22 25 27 29 30 30 31 30 31 33 34 35 35 35 34 34 34 34 34 32 31 30
28 28 28 31 31 33 34 35 37 36 35 35 36 37 37 36 33 30 28 26 25 25 24 23 22 21 19 19 20 20 22 24 25 27 28 28 29 30 31 34 36 35 34 35 36 36 37 36 37 37 36 33 32 31
29 30 32 32 31 31 32 32 31 31 31 34 36 35 34 32 30 29 28 27 25 23 21 20 20 19 18 18 20 22 24 24 24 25 25 26 29 32 33 32 33 35 35 35 36 36 37 36 38 38 36 35 32 31
30 31 30 30 29 31 34 34 33 33 35 36 36 35 33 32 32 31 27 24 22 21 20 19 18 18 19 21 22 22 22 23 23 24 25 28 30 31 31 33 34 35 35 34 35 35 36 37 39 36 34 34 30 29
29 29 29 31 34 35 35 37 38 39 39 39 38 36 35 33 29 26 25 24 21 19 18 18 18 21 22 22 21 21 22 22 21 25 27 29 30 31 30 27 25 25 25 25 26 28 30 31 32 31 30 31 28 27
30 30 31 32 34 34 35 37 38 39 39 39 39 37 34 31 27 25 22 19 17 18 18 20 21 21 20 21 20 20 21 21 23 27 27 27 27 25 23 21 19 19 19 20 21 22 24 25 26 26 27 28 27 27
29 30 32 33 34 35 36 38 39 40 40 39 37 34 30 25 24 22 20 20 19 20 20 19 19 20 19 19 19 20 21 22 25 26 23 23 23 21 19 18 17 17 17 17 18 19 21 22 23 24 25 27 27 27
28 30 30 31 34 34 35 36 36 36 35 32 30 27 25 24 22 21 20 20 20 19 19 20 18 18 19 19 20 21 21 22 23 23 21 21 20 17 16 17 16 16 16 18 19 20 20 21 22 22 24 25 26 27
26 27 29 30 32 35 39 40 40 38 36 34 32 29 27 25 24 23 21 20 20 20 19 19 19 20 20 20 20 20 20 22 22 21 20 18 16 16 16 17 16 16 17 18 19 20 21 21 22 23 23 23 22 22
26 28 30 31 32 34 35 35 34 33 32 32 30 27 26 25 25 24 22 22 22 21 20 20 21 21 21 21 20 18 19 22 21 20 18 17 15 15 15 15 16 16 16 17 18 18 19 19 21 21 22 21 21 20
23 25 29 30 30 31 33 34 35 34 34 33 32 30 28 26 25 24 24 24 24 23 23 22 23 23 23 23 22 20 21 22 21 19 18 17 14 15 14 15 15 15 15 16 17 17 17 18 19 20 20 19 19 19
20 22 24 28 30 31 31 31 32 33 32 32 32 31 29 28 28 27 27 27 26 26 26 26 26 26 26 25 23 21 22 22 21 19 18 17 15 15 15 16 16 15 14 15 16 16 16 17 18 18 18 17 18 18
20 20 21 23 26 28 31 32 32 33 33 33 32 32 31 31 31 30 30 30 30 29 29 30 29 28 28 26 24 23 24 23 22 20 19 18 17 17 16 16 17 17 15 17 17 17 18 19 19 19 19 18 20 20
19 21 22 23 23 26 27 29 30 31 32 32 32 33 33 33 34 34 34 33 33 33 33 32 31 30 28 26 23 24 25 24 23 21 20 19 18 18 18 18 18 19 19 20 20 20 21 20 21 22 22 22 23 25
20 21 22 23 25 25 27 28 29 31 32 33 34 35 35 35 35 36 36 35 34 34 34 34 32 30 29 28 24 26 27 26 26 23 21 21 20 19 20 21 21 23 23 24 24 24 25 24 25 25 25 25 27 29
17 18 21 22 23 26 28 30 32 33 34 34 34 35 35 36 36 35 35 34 34 33 32 31 30 29 29 28 27 26 28 28 25 26 23 22 23 22 22 24 24 25 27 27 28 28 28 28 29 30 29 31 32 33
13 15 17 18 20 22 24 25 26 28 30 31 31 32 33 33 34 33 32 32 31 31 31 31 31 31 30 28 26 26 28 29 25 26 26 24 24 24 24 25 26 28 29 30 31 31 32 32 33 34 34 36 36 38
12 14 14 16 18 20 20 22 23 23 25 27 27 28 28 29 30 31 31 30 30 30 31 32 31 30 29 28 27 27 27 27 26 26 26 25 24 25 26 25 27 29 30 31 32 33 34 36 36 36 37 39 40 41
11 11 10 12 15 17 19 19 20 22 24 25 26 28 29 29 30 30 29 28 28 29 29 28 27 27 26 26 27 27 26 26 26 25 25 24 24 25 26 25 26 29 31 30 30 32 35 37 38 39 40 41 41 42
9 11 12 13 13 14 16 18 20 21 22 23 25 26 27 27 27 27 27 27 26 27 27 26 25 25 25 25 25 25 24 24 24 24 24 24 24 24 25 25 25 26 29 31 31 31 33 36 38 39 40 42 43 44
10 11 11 11 13 14 14 16 18 19 19 20 21 21 21 23 24 23 23 24 23 23 24 24 23 23 23 24 24 23 23 23 23 23 23 23 24 25 25 25 25 26 27 29 31 32 33 34 36 38 39 41 42 43
10 11 11 12 12 13 14 16 15 15 17 18 18 18 19 19 18 17 17 18 19 20 21 21 21 22 21 21 21 21 21 22 22 22 23 24 24 24 25 25 26 26 26 27 29 30 32 33 34 36 38 39 41 42
13 14 14 13 13 13 14 14 15 16 17 17 17 17 17 16 15 11 14 15 17 17 17 18 19 19 19 19 19 20 21 21 21 21 22 23 23 24 25 26 27 27 27 27 27 29 31 32 33 35 36 38 39 42

GFSWCAN_250_spd_114.txt.gz
Wind_Speed
26 28 30 33 34 35 35 36 37 37 38 39 39 40 40 41 41 43 43 43 45 48 45 43 42 39 38 38 38 38 39 40 44 46 43 38 34 32 32 33 33 32 30 30 28 27 32 32 28 25 24 25 24 25
25 26 27 29 30 31 32 32 32 33 34 36 36 37 37 36 37 37 37 39 38 37 41 39 37 35 35 33 35 37 41 39 39 37 34 32 30 31 33 32 29 29 28 25 28 30 29 28 27 24 24 24 27 31
21 22 23 25 26 28 28 29 30 30 31 32 32 32 32 32 32 33 34 34 32 30 29 31 31 32 32 35 35 36 37 36 36 35 32 30 30 32 30 31 28 27 27 28 30 29 26 25 24 25 26 27 31 36
20 22 22 23 25 26 27 26 28 29 29 29 29 28 28 29 28 28 28 27 28 32 31 30 29 30 32 34 34 34 33 32 31 30 28 29 30 30 30 27 27 28 28 28 27 27 26 26 27 27 28 31 35 36
20 22 24 25 26 27 27 28 28 28 28 27 26 25 25 25 26 27 28 29 27 27 28 29 31 31 30 30 28 29 31 32 31 31 30 31 32 31 30 30 30 28 27 26 24 26 28 29 28 27 29 31 34 35
22 24 25 25 26 27 28 27 27 27 27 26 25 25 26 28 27 26 27 27 28 28 28 29 28 28 28 28 30 32 33 32 31 32 31 31 32 31 31 31 29 29 29 28 30 31 30 29 28 31 33 33 31 32
23 25 25 26 26 26 26 27 27 27 27 27 27 27 26 25 26 28 30 28 27 28 28 28 28 29 31 32 31 30 29 29 29 29 29 30 31 32 33 31 31 31 30 31 32 32 31 31 33 34 32 29 31 31
23 24 26 27 27 27 26 27 28 28 27 27 26 25 26 28 29 30 32 33 31 30 30 31 31 31 29 29 29 29 29 29 28 28 28 29 31 31 30 29 30 31 30 32 33 33 33 35 35 32 30 30 32 30
24 24 26 28 29 29 29 29 29 28 26 25 25 27 30 31 31 31 32 32 32 32 32 33 33 33 32 31 29 28 27 27 26 25 25 26 29 29 29 29 30 30 31 32 33 34 34 33 31 31 32 32 32 31
25 26 27 28 28 28 27 26 26 26 25 24 27 29 31 31 32 32 32 32 33 33 33 32 32 30 29 28 27 25 24 23 23 25 26 27 28 27 27 29 30 31 33 34 32 32 33 33 33 33 34 34 32 33
26 27 28 28 27 26 26 26 26 25 26 28 30 31 32 32 33 35 35 34 32 31 30 28 26 25 26 25 24 22 22 22 23 23 24 25 25 26 28 30 32 33 33 32 33 33 34 35 37 36 35 34 33 33
26 27 28 28 28 29 29 29 30 30 31 30 32 34 35 36 37 36 34 32 30 29 27 26 25 23 22 21 20 19 19 19 19 21 22 22 25 25 27 28 29 31 33 35 36 36 35 36 37 36 34 35 36 35
28 28 28 28 29 30 31 32 32 32 32 34 36 37 36 37 36 34 32 30 27 25 23 22 22 22 21 20 19 18 17 18 20 20 20 22 24 27 29 30 31 32 33 34 33 33 34 36 37 37 38 38 38 38
28 27 27 28 28 29 31 32 32 32 36 39 39 39 38 36 34 31 28 25 22 21 21 20 20 19 17 16 16 16 18 17 17 18 20 22 25 28 29 30 30 31 32 33 33 33 34 35 36 39 41 40 40 40
27 28 31 31 32 32 31 32 34 37 39 39 37 36 34 32 29 28 25 22 21 20 19 18 18 17 16 16 16 15 15 16 18 19 20 22 25 27 28 29 29 31 32 32 32 32 32 32 34 37 39 40 39 39
29 31 31 29 29 29 31 34 35 36 38 38 37 35 31 30 29 26 23 22 21 20 19 18 17 17 16 15 15 15 15 16 17 19 22 24 26 28 29 30 29 27 25 25 25 25 25 26 27 30 32 33 34 35
27 26 28 29 28 28 30 31 32 34 33 31 32 33 31 29 26 23 22 21 20 20 19 18 17 16 14 14 15 15 15 16 19 20 23 25 27 27 25 24 22 20 19 19 20 20 20 21 22 23 25 27 29 30
24 24 25 27 29 31 32 33 33 33 33 33 32 31 29 26 24 22 21 20 18 17 17 17 15 14 14 15 14 14 15 17 20 23 24 26 25 23 21 19 18 16 16 16 17 18 18 18 19 20 21 24 26 26
24 25 24 25 27 29 30 31 31 30 30 30 29 28 27 24 23 22 19 18 17 15 14 14 14 14 14 14 14 15 17 19 22 24 23 23 23 21 18 17 16 16 16 15 16 16 17 17 18 19 20 22 23 25
24 25 26 26 27 29 31 32 32 31 29 29 31 30 28 26 24 20 19 19 17 15 15 15 15 15 15 16 16 17 19 20 23 23 22 20 21 18 17 16 15 14 15 15 16 16 17 18 18 19 21 23 23 24
24 25 26 27 27 27 27 28 30 32 34 33 32 30 27 25 23 22 22 20 18 18 17 17 16 17 18 18 18 19 20 21 22 24 23 20 20 17 16 16 15 14 14 14 15 16 17 18 19 20 21 22 23 24
20 22 24 25 26 26 28 29 30 31 33 32 31 30 27 25 24 24 23 22 21 21 20 20 20 21 21 21 22 22 22 23 22 24 23 21 20 18 16 16 16 15 15 15 15 15 17 18 18 19 20 21 22 22
18 19 21 21 23 26 28 29 31 32 32 32 31 30 30 29 27 26 25 25 24 24 25 24 24 25 25 25 25 24 24 24 23 24 23 21 20 19 18 17 17 17 17 17 16 16 17 17 17 18 19 20 20 19
16 16 18 19 20 22 24 28 30 31 32 32 31 31 31 30 30 28 28 27 27 28 28 28 29 29 28 28 27 26 26 26 25 25 25 23 20 20 19 19 19 19 18 18 19 19 19 19 19 20 21 22 22 22
16 18 18 19 20 22 23 26 26 28 29 31 31 31 31 30 31 30 31 31 32 33 33 32 32 32 30 29 29 30 29 27 27 26 26 25 23 21 21 21 20 20 21 20 21 22 23 23 23 23 24 25 25 26
15 16 19 20 21 23 24 25 27 28 29 30 32 32 33 34 34 34 35 35 35 35 34 34 33 32 30 30 29 29 30 29 28 27 27 26 24 23 23 23 23 23 22 24 24 25 26 27 27 28 29 30 31 32
12 13 15 16 18 20 23 24 26 29 30 31 32 33 34 35 35 35 34 35 34 33 33 33 32 31 30 30 31 31 30 29 27 28 27 25 25 25 24 25 25 25 24 25 27 28 29 30 31 32 33 34 35 36
10 12 13 15 16 18 20 21 22 24 25 26 26 29 30 31 31 29 29 29 29 29 30 31 32 32 32 31 31 30 29 28 28 27 25 25 25 25 24 25 25 26 26 26 27 28 30 31 33 35 35 36 38 38
8 10 10 12 13 14 16 18 20 21 22 22 23 25 26 27 28 28 28 28 28 28 29 29 29 29 29 28 27 27 28 28 27 26 26 25 25 23 24 25 25 26 27 27 27 28 30 32 34 35 36 37 38 39
9 9 10 11 12 11 13 16 18 20 21 21 22 24 24 24 25 24 24 24 24 24 25 26 26 26 25 24 25 26 26 25 25 25 24 23 23 22 22 23 25 26 26 27 28 29 30 31 33 34 35 36 37 38
11 10 11 12 12 13 13 13 14 15 17 19 19 20 20 21 21 20 20 20 21 22 22 22 22 22 22 22 23 23 24 23 23 23 23 22 21 21 22 23 24 24 26 27 28 29 30 31 32 33 34 36 37 37
11 11 12 13 14 13 14 16 17 17 17 17 17 18 19 18 17 16 16 18 20 21 21 20 20 20 21 21 21 21 20 20 20 20 21 21 20 21 22 22 23 24 25 26 28 29 29 30 32 33 33 34 35 36
13 13 14 15 15 15 16 16 16 17 17 18 17 17 17 17 16 16 21 23 23 22 22 22 22 21 20 20 21 21 20 20 20 20 20 20 21 22 22 21 22 23 25 26 27 28 28 30 30 31 33 34 34 35

GFSWCAN_250_spd_117.txt.gz
Wind_Speed
22 23 24 26 29 32 34 37 37 38 39 41 44 45 46 48 49 52 55 54 53 52 54 53 56 55 50 54 54 54 52 54 55 56 54 53 51 51 48 47 41 40 36 36 33 30 35 39 32 32 34 33 27 28
20 21 22 24 25 27 29 30 31 32 34 36 38 39 40 41 43 45 45 45 45 47 50 49 47 48 46 44 44 43 44 47 47 44 43 43 42 41 39 35 34 32 34 33 30 34 34 31 29 32 30 28 29 30
15 17 18 19 21 24 27 28 29 30 32 33 34 34 36 37 38 39 39 39 41 43 40 39 38 36 36 37 36 37 41 39 40 39 37 35 30 33 33 33 31 30 31 30 30 32 31 30 31 29 29 30 31 28
14 15 17 19 21 23 25 26 27 28 28 29 31 32 32 32 32 32 34 34 33 32 32 29 28 31 34 33 33 36 35 34 31 30 29 29 31 32 32 30 29 28 29 30 31 30 29 31 30 28 28 26 27 29
17 18 19 20 22 23 24 25 26 27 28 28 27 28 29 30 29 29 29 29 30 28 28 33 34 31 30 29 30 30 30 29 29 29 31 32 33 32 30 29 29 30 28 28 28 30 32 31 30 29 26 27 30 30
18 19 20 21 22 24 25 25 26 27 26 26 28 28 28 27 28 28 29 30 31 33 31 28 28 29 28 28 26 24 23 26 30 31 31 32 32 31 31 31 29 29 30 29 30 31 31 31 29 27 28 31 30 29
19 20 22 23 23 24 24 26 26 26 28 28 28 28 29 29 30 32 31 30 29 29 30 30 29 29 25 21 23 26 29 31 31 31 32 32 32 33 30 28 28 28 29 30 31 31 29 28 29 30 30 30 30 32
21 23 24 25 25 25 25 25 25 25 25 26 26 27 28 28 28 28 29 31 31 31 30 28 26 24 26 28 30 31 31 29 29 29 29 30 31 29 27 26 28 29 30 30 29 29 31 31 31 32 32 33 32 31
23 25 25 26 25 25 25 25 25 24 24 25 26 27 28 28 28 29 29 31 31 31 30 30 31 32 31 29 28 27 27 26 27 28 30 29 28 27 27 28 28 29 30 31 32 32 33 33 34 35 34 34 32 29
24 25 26 26 25 24 24 24 25 25 25 25 26 28 30 29 29 31 32 33 33 32 32 31 31 30 29 29 28 27 27 27 27 27 26 25 24 24 26 27 28 28 30 31 32 34 35 34 35 36 36 34 32 31
24 25 25 25 25 25 25 26 27 28 28 28 28 29 29 30 32 33 33 32 32 31 30 29 27 27 27 27 27 26 24 24 24 23 22 21 22 24 24 26 28 30 32 34 36 36 37 37 36 36 36 35 35 34
26 25 25 26 27 28 29 29 28 27 28 28 29 32 35 36 35 34 33 33 32 31 30 28 27 26 26 25 23 22 22 21 20 21 20 21 23 24 27 29 31 33 34 34 35 35 36 37 37 38 38 38 37 37
25 26 26 26 27 29 29 29 29 28 28 29 31 34 35 36 35 34 33 33 31 29 26 24 25 23 23 22 20 18 18 18 18 18 21 22 23 25 26 27 29 31 33 34 34 36 37 38 38 38 38 38 38 37
25 26 27 27 28 28 27 28 30 32 34 37 38 37 36 35 34 33 31 28 26 25 25 24 23 21 20 19 19 18 19 18 18 19 19 20 22 24 26 28 29 31 32 33 33 34 36 37 38 38 39 40 40 40
26 27 27 28 28 27 27 28 31 34 36 37 36 35 35 35 34 32 30 28 27 25 24 22 22 21 20 20 19 18 17 16 15 16 18 20 23 24 25 26 28 29 29 29 31 32 34 35 37 39 40 41 42 42
26 27 27 26 26 25 26 28 30 32 34 33 33 35 36 33 32 30 28 25 24 23 22 22 21 20 19 18 16 15 14 14 15 16 18 20 22 24 25 26 27 28 28 28 29 30 30 30 31 32 34 36 38 40
21 23 26 27 27 27 26 28 30 30 29 31 33 34 32 31 29 27 26 25 24 23 21 21 21 19 17 16 14 14 14 13 14 16 18 21 23 24 25 27 28 28 28 25 25 24 24 25 26 27 27 29 31 32
19 22 25 26 26 27 27 27 26 28 32 34 35 34 32 31 29 26 23 21 20 20 20 19 17 15 15 15 15 14 13 14 15 16 19 21 23 23 25 25 25 24 22 22 22 22 21 22 23 24 24 25 26 27
22 23 24 25 26 27 28 27 27 31 33 34 34 31 28 25 23 21 21 22 22 20 19 17 17 17 16 16 14 13 14 15 15 17 19 22 22 22 22 23 22 20 19 19 19 19 19 20 21 22 23 23 24 25
24 24 22 22 24 26 26 29 32 34 33 32 30 26 23 21 21 20 20 19 18 18 17 17 17 17 17 15 14 13 14 15 17 18 21 23 24 22 21 21 19 18 18 17 18 18 18 18 19 19 21 22 24 25
21 24 25 25 24 24 24 25 26 26 27 27 25 24 24 24 22 22 21 20 19 19 18 17 17 16 15 15 14 15 16 18 20 21 22 23 23 22 21 21 19 17 17 16 16 16 16 17 19 20 21 23 24 25
17 18 21 23 23 23 25 29 30 30 30 30 29 29 28 26 25 23 21 20 20 19 18 19 18 18 18 18 18 19 20 21 22 23 24 26 24 24 22 21 20 18 17 17 17 17 18 18 19 20 21 22 23 23
14 15 16 17 19 22 24 25 26 28 29 29 29 28 28 27 26 25 23 23 23 22 21 21 21 22 22 22 22 24 24 24 24 25 25 26 26 24 23 22 21 20 18 18 18 19 18 19 19 20 20 21 22 23
13 15 16 17 18 19 21 26 27 28 29 30 30 30 30 30 29 27 26 26 26 26 25 25 25 25 26 26 27 28 28 28 27 27 27 28 27 26 24 23 22 21 21 20 20 20 20 20 21 21 21 21 22 23
13 15 16 18 20 21 21 23 25 27 28 29 30 30 31 30 30 30 30 30 30 29 29 30 30 31 31 31 31 30 31 31 30 29 30 30 28 27 26 24 24 23 23 23 22 22 22 22 23 23 24 23 24 25
11 14 17 18 20 22 23 24 25 27 28 29 30 31 32 32 33 34 33 34 34 34 34 34 34 34 34 33 33 32 31 30 30 30 31 30 30 29 28 26 24 24 25 25 24 24 24 25 26 26 26 27 28 29
11 12 13 15 18 19 22 24 26 28 30 32 32 33 34 36 36 35 35 36 37 36 35 35 34 34 33 32 31 31 32 32 32 32 31 30 29 28 28 28 26 25 27 27 27 27 27 27 28 29 29 30 31 33
9 11 12 14 15 16 18 20 23 25 26 27 29 32 33 33 33 33 34 33 33 33 33 32 31 31 31 32 33 33 33 32 31 30 29 29 28 27 28 28 27 27 27 28 28 28 28 29 29 29 30 31 33 35
9 10 11 12 12 14 15 17 19 21 22 24 25 26 27 26 27 27 29 29 29 29 30 31 32 32 32 32 32 31 30 29 29 28 28 27 27 27 28 28 28 27 28 28 28 29 29 30 30 30 31 32 33 35
9 11 11 13 14 14 15 16 18 19 20 21 23 24 25 25 26 26 27 28 29 30 30 31 31 31 31 30 29 28 28 29 29 28 27 26 26 26 27 27 27 27 27 27 28 28 28 29 30 31 31 32 33 34
11 11 13 14 14 15 16 16 16 16 17 19 20 22 22 22 23 24 24 25 26 27 28 29 30 30 30 28 27 28 28 29 28 27 26 25 26 25 25 24 25 26 26 26 27 28 28 29 30 31 31 32 33 34
11 12 13 14 15 16 16 17 18 19 20 20 20 20 21 22 23 23 24 25 26 27 28 29 29 29 28 28 28 27 27 27 26 26 25 25 25 25 25 24 25 25 25 25 26 27 28 29 30 31 32 32 33 33
14 14 15 16 15 16 18 19 19 19 20 20 21 21 21 21 20 20 24 26 27 27 25 25 25 25 26 27 27 26 26 26 26 25 25 25 25 24 24 24 25 25 25 26 26 27 27 28 29 30 31 31 32 33

GFSWCAN_250_spd_120.txt.gz
Wind_Speed
20 22 25 27 29 30 32 35 37 40 43 44 44 46 48 51 53 55 59 59 58 58 64 65 66 67 68 66 66 70 68 66 64 63 62 64 67 64 64 64 62 58 54 49 45 41 44 49 43 42 40 36 34 35
17 19 21 23 24 25 26 29 32 34 37 37 38 39 41 43 45 47 48 50 51 52 54 54 55 55 57 56 58 60 58 57 55 54 55 58 59 55 52 50 49 45 42 42 38 40 42 40 37 35 32 31 31 30
13 15 17 19 21 22 24 26 27 30 32 33 34 35 37 39 40 42 42 43 44 47 47 47 49 48 49 49 49 49 47 46 47 47 48 48 47 45 40 38 38 36 35 35 35 37 36 35 31 31 29 29 28 28
12 14 16 18 20 22 23 24 26 27 28 29 30 32 33 35 37 37 38 38 40 41 42 42 42 43 40 40 41 40 40 39 42 41 40 37 34 34 34 34 32 32 31 34 33 32 30 28 26 26 27 26 25 25
13 14 16 17 18 21 22 22 24 24 25 27 28 29 30 31 32 32 33 35 34 35 36 34 33 31 32 35 35 35 36 37 34 31 31 32 31 30 29 29 29 30 29 28 27 27 29 28 27 26 25 25 25 27
14 15 17 18 18 20 21 21 23 24 25 26 27 28 28 28 28 28 28 28 30 30 29 30 32 33 33 32 30 29 28 27 24 26 27 26 27 29 29 30 27 27 28 28 27 28 26 26 25 25 25 26 27 28
17 17 17 18 20 21 21 22 22 23 24 26 27 27 28 28 29 29 30 29 29 29 31 31 29 29 29 30 29 25 22 20 24 24 28 28 28 29 28 27 26 28 29 28 27 26 25 25 27 28 29 30 30 28
18 19 19 20 21 20 21 21 23 24 24 25 25 26 27 27 27 27 27 28 28 28 27 26 25 24 22 21 20 20 23 25 27 26 26 27 28 25 23 23 25 25 25 25 25 26 27 28 29 30 30 30 29 28
20 20 21 22 22 23 24 23 23 23 23 23 24 24 23 24 25 27 27 27 27 28 27 25 24 24 25 24 25 26 25 24 23 25 26 25 23 23 22 23 24 25 26 26 26 27 28 30 31 32 31 30 30 32
21 21 22 22 22 22 23 23 23 23 22 22 22 22 23 24 25 26 26 27 27 25 24 23 28 29 29 26 24 23 22 22 23 24 23 22 22 22 23 24 25 25 25 27 28 30 30 31 32 31 31 33 34 34
22 22 22 23 22 23 24 24 23 23 23 22 23 24 24 24 25 26 25 24 27 30 30 29 27 24 23 22 22 22 22 21 20 19 19 20 21 21 21 22 23 24 26 27 28 30 31 32 34 35 35 36 36 37
23 23 23 23 23 24 23 23 23 23 24 26 26 25 24 25 27 29 30 31 31 31 30 29 29 28 26 24 22 22 21 20 19 19 19 20 21 23 24 25 26 27 28 29 31 32 33 34 36 37 39 39 39 39
23 23 24 24 24 24 23 23 23 23 24 26 29 30 31 31 32 33 33 33 32 31 30 28 27 25 24 22 20 18 17 17 17 18 20 21 21 23 23 24 25 27 29 31 33 34 36 36 38 39 39 40 40 41
24 24 23 23 22 22 22 23 26 27 28 30 31 32 32 31 31 31 31 30 29 29 28 26 23 22 20 18 17 18 17 16 17 17 18 18 19 20 22 23 25 28 30 32 33 34 35 36 38 39 40 41 42 43
23 23 23 22 22 21 21 24 27 29 31 31 29 30 32 33 34 34 33 31 29 28 25 23 22 21 20 20 18 18 16 16 16 16 17 18 20 22 25 27 28 29 31 32 33 33 33 36 38 39 40 40 41 42
20 20 21 22 22 21 22 22 23 25 27 30 31 33 33 33 32 31 30 29 27 26 25 24 22 21 19 17 16 15 15 15 16 16 18 20 21 22 24 25 27 28 30 31 30 31 33 36 39 40 41 43 44 44
17 18 19 20 21 21 20 21 23 23 25 28 31 31 31 30 29 27 25 24 22 21 21 22 21 19 17 16 16 16 16 16 16 17 19 19 20 21 24 25 27 28 29 30 29 30 31 31 32 33 34 35 37 38
16 17 18 20 22 22 22 22 19 24 27 29 30 30 30 29 28 26 23 20 20 21 21 21 19 18 16 17 17 16 16 15 16 17 18 19 21 23 24 24 24 25 26 28 27 26 25 25 26 27 28 29 30 32
16 17 19 20 20 21 21 21 24 29 31 32 31 29 26 25 25 24 23 23 23 22 20 18 18 19 18 17 17 16 15 15 16 18 19 21 23 24 24 23 24 24 24 24 23 22 22 22 23 24 25 25 27 28
17 19 19 20 20 20 22 24 27 30 29 30 29 27 24 22 22 20 19 18 18 18 18 19 18 18 19 18 16 15 15 16 18 19 21 22 24 25 23 22 23 22 22 22 21 20 20 20 21 22 23 24 25 26
15 19 20 19 19 21 25 29 30 30 28 26 24 23 23 23 21 20 19 19 18 19 19 19 19 19 18 17 17 17 17 19 20 21 22 23 24 26 26 24 22 21 21 20 20 20 19 19 19 20 22 23 25 26
13 15 18 20 21 22 24 26 26 26 25 22 23 24 26 25 24 23 21 21 20 21 21 21 20 19 18 19 19 19 19 20 21 23 24 25 25 27 26 25 24 23 21 21 19 20 20 21 21 21 22 23 24 25
10 13 14 16 20 22 24 25 25 26 27 27 28 27 27 26 26 25 23 22 22 22 22 22 21 21 21 21 22 22 23 24 24 25 26 26 27 28 28 28 25 25 24 22 21 20 20 20 22 22 22 23 23 24
10 12 14 15 16 18 21 24 25 26 27 28 28 28 27 26 25 25 24 24 25 25 25 25 25 25 24 25 26 26 27 27 27 28 28 29 29 29 30 29 27 26 25 25 23 22 21 21 22 23 23 23 24 25
10 12 14 15 17 19 20 22 25 26 27 27 27 28 29 29 29 30 30 28 28 27 28 28 29 29 30 30 30 30 30 30 31 31 31 31 30 30 30 30 28 28 26 25 26 25 24 23 23 24 24 25 24 25
8 10 13 16 18 19 20 22 23 25 27 29 29 30 30 31 32 32 32 32 33 33 33 34 34 34 34 34 34 34 33 33 33 33 33 33 33 32 31 30 30 29 28 27 26 27 27 26 26 25 26 27 28 28
7 9 11 12 15 17 20 23 25 26 28 29 29 31 32 33 34 34 35 36 36 36 36 36 36 36 36 36 35 35 35 35 35 34 35 36 35 35 32 30 30 30 29 28 27 27 27 28 28 28 28 28 29 30
9 10 10 12 14 16 18 19 21 23 25 27 28 30 31 32 32 33 35 36 36 37 36 36 36 36 36 36 35 34 35 37 37 36 36 35 35 34 32 31 30 29 29 29 28 28 28 29 29 29 29 29 30 31
10 10 11 12 13 14 16 17 19 20 21 23 25 26 27 26 27 29 31 32 33 34 33 33 33 34 35 36 37 37 38 37 36 35 34 34 33 32 31 30 29 29 29 29 29 29 28 29 29 29 29 30 31 31
11 11 11 13 14 16 17 18 19 20 21 22 24 25 26 26 27 29 30 31 31 32 33 34 35 36 37 37 36 36 35 35 34 33 32 32 32 31 30 30 29 29 29 29 29 28 28 28 28 29 29 30 30 31
13 13 13 14 15 16 18 19 20 20 22 24 25 26 27 28 29 30 31 31 32 32 32 33 34 34 34 34 33 33 32 32 31 31 32 32 30 29 29 29 29 29 29 28 28 27 27 27 28 28 29 29 30 30
15 15 16 17 17 18 17 18 20 21 21 22 23 24 24 26 27 27 28 28 29 30 31 32 32 32 31 30 30 30 30 30 29 28 29 29 28 28 28 27 26 26 27 26 26 26 26 27 28 28 29 29 29 30
17 17 17 18 18 18 19 20 20 21 22 22 23 24 24 25 25 25 24 26 27 28 30 30 28 27 27 27 27 27 27 26 26 26 25 24 24 25 25 25 26 26 25 26 26 26 26 27 27 28 28 28 28 28

GFSWCAN_250_spd_123.txt.gz
Wind_Speed
21 22 24 26 27 28 30 32 34 35 37 41 45 47 49 52 55 57 62 65 63 58 60 66 70 73 76 78 80 81 82 82 85 83 82 80 77 79 76 77 76 75 73 72 71 62 52 53 50 50 46 47 44 43
18 19 21 22 22 23 25 29 32 34 36 37 40 41 40 40 39 41 47 51 51 49 52 59 62 64 67 67 70 70 71 73 72 69 69 68 67 67 67 64 65 62 61 60 55 49 45 46 47 43 41 40 37 37
14 15 17 19 21 22 23 24 26 28 30 32 34 35 35 38 40 43 41 42 44 47 50 49 56 56 55 58 57 58 60 61 61 58 57 56 54 57 56 55 54 53 51 48 43 42 42 41 39 36 34 35 34 34
10 11 14 16 18 19 19 21 24 26 27 27 29 31 33 35 36 35 37 39 42 42 42 47 47 50 49 48 49 51 50 49 48 47 45 46 47 48 47 44 41 39 41 40 36 36 33 32 33 32 31 30 29 29
9 9 9 10 12 16 19 19 21 22 23 24 26 27 29 29 30 31 32 33 35 38 39 39 40 41 42 43 43 41 39 40 39 39 40 39 39 36 33 31 33 34 31 31 31 29 29 29 30 28 28 28 29 29
11 13 14 15 16 16 18 20 21 22 23 24 23 23 23 25 27 29 30 32 32 30 32 36 37 37 36 35 34 34 35 34 35 35 33 30 28 30 31 32 28 26 27 29 27 27 26 25 25 26 26 26 26 24
13 14 15 16 16 17 19 19 19 20 21 23 24 26 28 30 32 32 29 26 26 28 28 28 28 28 29 29 30 30 27 28 26 23 25 27 27 26 27 24 25 25 26 25 24 24 24 25 25 26 25 24 21 20
15 15 15 16 17 18 19 20 20 20 21 23 24 25 25 26 26 27 27 28 27 26 26 27 27 27 27 26 24 22 23 22 24 25 24 24 25 24 24 23 22 24 23 23 24 25 25 24 24 23 22 22 22 23
17 17 18 18 19 20 20 21 21 21 21 22 23 24 24 25 26 25 26 27 27 25 25 23 22 21 20 19 21 23 25 25 25 24 23 22 23 22 21 23 24 23 22 22 23 23 23 23 22 22 22 22 24 26
20 20 21 21 21 21 21 22 22 21 22 22 22 21 22 23 24 24 25 25 25 24 24 25 25 24 25 26 26 25 25 23 22 23 21 21 20 21 23 23 21 20 21 22 22 21 22 22 23 24 26 28 29 31
22 21 21 21 21 21 21 21 21 23 23 23 22 22 22 22 22 21 23 24 26 26 25 26 26 25 26 24 24 23 23 23 23 21 20 20 21 20 19 19 19 19 20 20 20 22 23 25 26 28 29 31 32 33
20 20 20 20 20 20 20 21 22 22 23 24 25 25 24 23 23 23 23 23 25 27 28 27 26 26 26 25 25 25 24 22 21 20 19 18 18 17 17 17 18 19 20 21 22 23 26 28 29 30 31 33 35 36
20 19 19 19 19 18 19 20 21 21 22 23 24 26 27 26 26 26 26 26 26 26 26 27 28 28 28 27 26 23 21 20 18 16 15 15 15 14 15 16 17 19 21 23 25 27 29 30 32 34 35 36 37 38
18 19 21 20 19 18 18 19 20 22 23 23 24 25 25 25 24 24 25 26 27 28 28 27 26 26 24 23 23 21 18 16 14 13 13 14 14 14 15 17 19 21 23 25 27 29 31 32 33 33 34 36 39 40
17 18 18 18 18 18 16 18 19 19 21 20 21 24 26 27 27 29 31 33 33 32 30 29 28 26 24 21 19 17 15 14 13 12 12 13 14 15 17 19 21 23 25 26 28 30 30 30 30 33 36 39 40 41
15 15 15 15 16 15 15 15 17 20 24 24 24 25 28 30 31 32 33 33 33 32 30 28 25 22 19 17 15 15 13 12 12 12 13 14 15 17 18 20 22 24 25 27 29 31 32 32 33 36 38 40 41 42
13 13 13 13 12 13 15 14 16 21 25 26 26 26 28 30 30 30 30 28 26 25 24 22 21 19 18 16 14 13 13 12 12 13 14 16 17 18 20 21 22 24 26 29 30 31 31 32 33 35 37 39 41 42
12 13 13 13 13 15 17 18 18 21 22 24 25 26 27 29 29 27 26 24 23 22 22 21 19 19 17 16 15 14 13 13 13 14 16 18 18 18 20 22 24 27 28 28 28 28 29 29 29 29 30 31 33 33
11 12 13 14 14 15 19 21 22 24 25 25 25 25 26 26 26 25 25 23 22 20 18 17 18 18 17 16 14 13 13 14 15 16 18 18 19 20 23 25 26 26 26 26 26 27 26 25 25 25 25 26 27 28
8 11 12 15 15 17 19 22 23 24 24 24 25 23 22 22 22 21 18 16 16 16 17 18 18 17 16 14 14 14 15 15 16 18 19 20 21 23 25 25 26 26 25 25 25 25 24 23 23 23 22 23 24 25
7 9 12 14 16 20 22 22 22 22 21 23 23 23 22 21 19 17 17 16 16 16 16 16 17 16 15 15 16 16 16 17 18 20 21 23 23 24 25 27 27 26 24 23 23 23 23 21 20 21 21 21 22 24
6 7 9 13 17 20 19 20 21 22 22 21 21 21 21 20 19 18 16 16 17 17 17 18 18 17 17 17 17 17 18 19 21 22 23 24 25 25 25 27 29 28 27 23 22 22 21 22 21 21 21 22 22 23
4 7 9 11 15 17 18 17 18 19 22 23 24 24 23 22 23 22 21 20 20 20 20 20 19 19 18 19 19 20 21 23 24 25 26 27 28 28 28 29 30 30 29 27 25 23 22 21 21 22 21 22 23 24
6 7 9 11 12 14 15 17 18 20 22 23 24 25 26 25 25 24 24 23 22 22 21 21 21 21 22 23 24 24 25 26 26 28 29 29 30 31 31 31 31 32 31 29 28 26 24 23 22 22 23 23 23 24
7 8 9 11 14 15 17 18 19 21 23 25 26 25 26 26 26 27 27 27 26 26 25 25 25 25 26 27 27 27 28 29 30 31 32 32 33 33 34 34 33 32 31 32 30 28 27 26 25 25 23 24 25 25
6 8 10 12 13 16 17 19 20 22 24 26 26 26 26 27 28 29 29 29 29 30 30 30 29 29 29 30 30 31 32 33 33 34 34 36 36 35 35 35 35 33 33 33 32 30 29 28 27 26 26 26 26 26
7 7 10 10 12 14 16 18 21 22 24 25 26 27 28 30 31 30 29 30 30 31 31 32 32 33 33 33 34 34 35 35 35 36 36 37 37 37 37 37 36 34 33 32 31 30 30 29 28 27 27 27 28 28
8 9 10 11 13 14 16 17 19 21 23 24 26 28 29 30 30 30 32 32 33 34 34 34 34 35 35 36 36 36 36 37 37 38 39 40 39 38 37 35 34 33 32 31 30 30 30 29 28 28 27 27 28 28
11 11 11 12 14 15 16 18 19 20 20 22 24 26 28 27 29 31 32 33 34 34 34 34 35 35 36 36 37 37 38 38 40 41 40 37 35 34 34 33 32 31 30 30 30 29 29 28 28 27 27 27 27 27
13 14 14 14 14 14 16 18 20 21 22 23 24 25 26 27 28 29 31 31 32 32 33 34 35 35 36 37 38 38 38 37 36 36 34 33 32 31 31 30 30 29 28 28 27 27 26 26 26 26 26 25 25 26
18 16 15 16 16 17 19 19 19 20 21 23 26 27 27 28 30 31 32 33 33 33 34 34 35 36 37 37 36 34 32 31 32 32 31 30 30 30 29 27 27 26 26 26 25 25 24 24 24 24 24 24 25 25
20 19 19 18 18 18 17 18 20 21 23 24 25 24 24 25 26 26 28 29 28 29 29 31 31 32 32 32 31 30 29 29 29 28 28 28 27 27 26 25 25 25 25 24 24 23 23 23 23 23 24 24 25 26
22 22 22 21 20 20 20 20 20 21 22 24 25 27 28 28 28 27 25 26 27 28 29 30 29 29 29 29 29 29 29 29 28 27 26 25 24 24 24 25 25 24 24 23 23 23 23 23 23 23 24 25 26 26

GFSWCAN_250_spd_126.txt.gz
Wind_Speed
26 26 27 27 28 29 32 32 32 32 36 42 40 38 40 44 44 46 48 50 51 54 57 62 65 64 72 76 77 80 80 79 81 82 83 85 86 87 85 87 91 90 93 88 85 79 72 74 71 71 69 59 59 61
22 22 23 23 24 26 28 28 28 31 34 34 32 34 40 44 45 47 49 51 53 57 61 62 58 59 64 66 69 71 72 73 72 73 73 74 73 73 72 69 73 70 74 73 71 69 69 66 66 64 58 56 53 47
16 16 17 19 21 23 23 23 25 28 29 30 33 37 37 37 39 43 44 46 49 52 50 49 55 55 56 61 60 62 63 64 65 66 66 66 63 63 64 63 63 63 63 62 63 59 61 61 60 56 55 52 45 43
11 12 13 15 17 19 20 20 21 23 25 27 29 32 32 34 36 35 35 36 40 40 43 47 44 44 50 50 55 56 57 57 56 55 58 53 56 56 56 57 57 54 56 53 51 55 53 51 51 51 51 46 42 40
8 9 11 12 14 16 18 18 18 19 22 25 26 27 27 29 32 34 36 36 35 35 38 39 38 40 41 45 48 49 50 48 47 48 47 46 47 50 51 50 48 44 44 42 46 45 43 41 40 41 38 37 34 29
7 8 9 11 13 14 16 16 17 18 21 23 24 25 26 27 30 30 32 32 31 32 33 35 36 36 37 38 39 42 42 41 42 42 40 43 44 42 40 38 37 36 41 41 40 37 34 33 32 32 30 28 24 26
7 8 9 10 12 14 15 17 18 20 24 26 28 30 30 30 27 27 27 27 28 27 28 30 31 33 33 33 33 33 36 36 35 35 37 35 32 31 34 37 36 35 34 33 32 31 27 27 27 26 24 24 26 25
12 12 12 11 13 13 14 15 16 18 19 20 20 20 20 22 26 28 27 27 27 27 26 26 26 26 28 29 31 31 29 29 31 29 31 31 32 33 32 29 30 29 28 28 28 24 23 23 23 23 24 25 26 26
14 14 15 15 17 18 20 21 22 21 20 21 21 21 22 22 23 25 26 27 28 28 27 27 27 25 26 27 26 25 27 28 28 31 30 28 27 26 25 26 25 24 25 24 22 22 22 21 21 23 25 26 26 26
15 16 16 16 17 18 19 21 21 21 21 20 20 20 20 22 22 22 23 23 23 25 25 25 24 23 24 25 26 25 26 26 26 25 24 23 22 22 22 22 21 21 21 20 21 21 21 23 24 25 25 25 25 26
19 19 20 19 19 20 20 20 21 22 22 22 22 22 21 21 22 22 22 23 23 25 26 26 26 25 25 24 24 24 24 22 21 20 20 21 21 21 21 21 20 19 19 19 20 21 22 23 23 23 24 26 27 28
19 19 19 20 21 22 22 21 21 22 24 23 24 24 23 22 23 24 25 26 25 24 25 25 25 24 25 24 23 22 22 22 22 21 21 21 21 21 19 19 19 20 20 21 21 21 22 23 24 25 26 27 28 30
18 18 18 18 17 17 18 18 20 20 21 23 23 23 25 26 26 23 22 24 23 23 23 23 24 23 25 24 24 24 24 24 23 24 23 22 20 19 18 18 18 19 19 20 21 23 24 26 27 28 29 31 32 34
17 17 18 17 17 17 18 18 19 20 21 23 23 23 22 21 22 24 25 26 26 26 26 26 26 28 27 28 27 27 26 24 24 22 20 18 18 17 17 17 18 19 20 21 22 23 25 26 27 29 31 32 34 35
15 16 16 16 15 15 16 17 17 19 19 20 21 22 24 24 25 26 25 26 28 27 29 30 29 28 27 26 25 24 23 21 20 19 17 16 15 15 15 15 15 15 16 18 20 21 23 25 26 28 30 32 34 36
14 14 14 13 13 13 14 15 16 20 19 19 21 23 24 24 26 27 28 29 30 31 30 30 29 28 26 24 23 22 20 18 16 14 13 12 12 12 12 13 14 15 17 19 21 23 25 26 28 30 32 34 36 38
12 11 11 13 14 14 15 13 16 20 24 21 22 24 26 25 26 27 28 29 29 28 28 27 27 26 24 22 19 17 15 15 13 12 11 10 11 12 12 13 15 16 18 20 22 25 27 29 30 31 33 34 36 38
9 9 10 12 14 15 16 14 13 19 23 23 22 22 24 25 26 27 29 29 28 28 27 26 25 22 20 19 17 16 15 13 11 11 11 11 12 13 14 15 17 19 21 24 26 29 29 29 29 30 31 33 35 36
7 7 7 10 13 14 16 18 19 19 20 22 23 22 24 25 26 27 27 26 24 23 22 22 20 19 18 17 16 15 13 12 11 12 13 14 14 14 15 17 19 21 24 26 25 27 29 28 27 27 28 27 28 29
7 5 7 9 11 12 13 16 19 20 21 22 22 21 21 22 22 22 21 21 20 19 19 18 18 17 16 15 14 13 13 12 12 14 15 16 14 15 16 18 22 25 26 26 25 24 26 28 27 26 25 25 25 25
6 5 5 8 11 13 12 14 15 18 20 22 23 23 22 22 21 20 20 18 18 17 17 16 15 14 14 14 14 14 14 14 15 16 16 16 16 17 19 21 24 26 27 28 26 24 24 25 26 25 25 24 23 24
3 4 4 6 7 8 9 13 16 18 20 21 22 22 21 20 19 19 18 17 17 16 15 14 14 14 15 16 16 16 16 16 17 17 18 19 20 21 23 25 28 30 31 31 30 27 25 24 25 25 24 24 24 24
1 3 4 5 9 9 9 7 11 13 17 20 22 22 21 21 20 20 18 18 18 17 17 17 16 17 17 17 17 18 18 18 18 19 21 22 23 25 27 28 30 32 33 33 32 30 28 26 25 25 25 25 24 25
4 2 4 7 8 9 11 13 14 16 18 20 21 22 22 22 22 21 21 20 19 19 18 18 18 18 18 18 19 20 20 21 21 23 24 25 27 28 30 31 33 34 35 35 33 31 29 30 29 27 26 26 26 26
4 5 6 7 9 11 12 14 16 18 19 22 23 24 26 25 24 23 23 22 21 21 20 20 20 21 21 21 22 23 24 25 25 27 28 29 30 31 33 34 35 37 37 36 33 32 32 31 30 29 28 27 26 26
10 8 6 8 10 11 12 14 16 18 20 22 24 24 25 25 26 26 25 25 26 26 27 27 27 27 27 26 26 26 27 28 29 30 32 33 35 35 36 37 38 37 36 35 35 33 32 31 30 29 28 27 26 26
12 11 10 10 10 11 13 14 16 18 20 22 24 26 26 27 28 28 28 29 30 30 30 30 30 31 30 30 31 32 33 33 34 34 35 36 37 39 39 39 39 38 37 35 33 33 32 31 30 29 28 27 27 27
15 14 13 13 13 13 14 15 16 18 20 21 23 25 27 28 28 28 30 31 32 33 33 33 33 33 33 34 35 35 35 36 37 37 38 38 39 40 39 38 38 36 35 34 33 31 30 30 29 29 28 27 27 27
16 16 15 15 15 16 17 17 17 19 20 21 22 25 27 25 26 27 29 31 32 33 33 34 35 36 36 36 37 37 38 38 38 38 39 40 40 39 37 36 36 35 34 33 32 31 30 29 28 28 28 27 26 26
19 17 16 16 16 16 17 18 19 20 21 22 24 26 27 28 28 29 30 31 32 32 33 34 35 36 36 37 37 37 38 38 38 38 37 35 34 34 34 33 33 33 32 30 29 29 28 27 27 27 26 26 25 25
21 20 19 17 16 17 18 19 19 20 21 23 24 25 26 27 28 29 31 31 32 33 34 35 35 36 37 37 37 36 36 35 35 33 32 31 32 32 32 31 31 30 29 28 27 27 26 26 25 25 24 24 24 24
23 21 20 19 18 17 17 18 19 21 21 22 23 24 26 27 27 27 28 29 29 29 29 30 31 32 32 32 32 31 31 31 32 32 32 31 30 29 28 28 27 26 26 26 25 25 25 24 24 24 24 24 24 24
25 23 22 21 20 19 19 19 19 21 22 23 24 26 27 27 28 28 27 28 28 29 29 30 31 32 31 30 28 28 28 29 29 28 28 27 27 26 26 25 25 24 24 24 24 24 24 24 24 24 24 24 24 25

GFSWCAN_250_spd_129.txt.gz
Wind_Speed
30 31 31 33 33 33 33 34 30 34 34 38 42 46 46 50 54 57 54 59 63 59 62 59 54 51 47 45 45 55 65 77 83 86 86 89 87 90 94 94 97 100 102 102 106 108 105 104 102 98 96 95 91 86
26 26 27 27 27 27 29 25 30 30 32 35 37 40 43 44 46 46 48 51 52 55 51 45 45 45 46 50 57 62 72 78 81 81 79 80 79 80 81 80 86 85 89 89 88 90 88 86 82 83 83 79 77 74
20 20 21 22 22 24 22 24 26 29 31 33 34 35 37 38 37 36 37 40 41 42 44 48 49 49 55 61 62 65 72 77 74 73 72 72 71 72 71 70 73 72 76 74 77 72 73 75 71 69 68 66 67 62
14 14 16 17 19 19 20 20 23 25 28 30 32 33 33 35 36 36 37 40 43 44 44 47 49 55 55 49 51 57 61 60 64 64 65 64 64 65 64 64 65 66 64 64 63 63 65 64 61 60 57 57 55 52
8 10 11 13 14 16 17 20 21 22 24 28 31 34 35 36 35 37 38 36 37 42 44 45 44 42 43 44 46 50 51 53 54 55 55 55 56 55 57 56 55 55 56 54 55 54 54 54 53 50 50 49 47 44
4 6 8 11 13 14 17 19 19 21 23 26 27 28 29 31 33 33 35 37 38 37 37 40 39 37 35 35 38 43 46 44 45 46 46 47 49 48 46 45 47 46 46 44 45 48 49 46 46 44 43 41 40 37
4 5 7 9 11 13 16 18 19 21 23 25 27 29 30 32 33 31 31 30 31 32 33 32 30 29 31 34 35 37 36 37 40 40 39 41 41 39 39 39 40 38 39 40 44 43 40 39 38 36 35 33 29 26
8 8 9 11 14 15 15 17 18 19 21 22 23 23 22 24 27 28 29 28 28 28 28 29 31 31 31 32 32 34 35 33 31 34 35 36 34 33 32 35 35 36 35 34 33 34 33 32 30 30 28 26 25 27
12 11 11 12 14 17 18 18 17 17 18 21 23 23 24 25 25 24 24 27 27 30 29 28 27 26 26 26 26 27 26 28 29 30 31 31 29 30 31 30 30 29 30 29 28 28 27 27 27 24 23 22 23 23
13 12 13 11 12 14 15 16 17 17 17 17 17 19 19 20 22 24 23 22 22 22 23 24 24 26 25 24 24 23 26 26 28 28 26 26 26 25 26 26 25 25 25 24 23 23 23 23 21 21 22 22 23 23
15 14 14 14 14 13 15 18 20 21 21 22 21 21 21 20 18 18 20 22 21 22 23 24 24 25 25 24 25 25 25 25 24 22 23 22 23 23 22 22 22 21 21 20 19 20 21 21 21 22 23 24 25 26
16 16 16 16 17 18 19 20 21 22 24 24 24 23 23 23 21 21 21 22 24 25 25 25 24 25 24 23 22 22 21 20 20 21 22 22 22 21 21 20 19 20 20 20 20 20 21 22 23 24 26 26 27 28
15 15 15 15 16 16 18 18 19 21 23 23 24 23 24 24 24 24 24 25 24 23 22 23 24 22 22 22 21 21 21 23 21 21 23 22 21 21 20 21 22 21 20 19 20 21 22 23 24 26 28 29 30 31
14 14 14 14 14 14 14 15 17 19 20 20 21 22 22 24 23 21 23 23 22 21 21 20 20 20 21 22 22 24 23 22 23 23 22 22 21 21 20 20 18 18 18 19 20 20 22 24 26 27 29 30 32 33
13 14 13 13 13 13 13 13 14 15 16 18 19 19 20 20 23 23 23 23 23 21 21 22 21 22 23 23 24 23 23 23 23 22 21 21 20 19 18 17 16 16 18 19 21 23 24 26 27 28 29 30 32 33
14 14 13 13 14 12 13 13 13 13 14 15 17 19 20 20 22 23 23 24 24 24 23 23 25 24 24 24 24 25 24 24 24 22 21 19 18 17 16 17 17 17 17 18 19 19 21 22 24 26 28 29 31 33
10 11 11 11 12 13 13 13 14 17 17 15 17 17 19 21 23 24 24 26 25 25 26 26 27 28 27 27 27 25 25 22 21 19 18 17 16 15 14 14 14 15 16 16 17 19 21 23 25 27 28 29 30 32
9 8 7 7 10 13 14 12 13 17 19 18 18 19 20 20 23 24 24 25 27 27 27 28 27 27 27 26 24 22 21 20 19 17 15 13 13 13 13 12 13 14 14 16 18 20 24 26 27 28 27 28 30 32
6 6 5 6 7 9 13 13 14 17 19 21 20 20 20 21 23 25 26 27 27 27 27 27 26 24 23 22 21 20 19 17 16 14 13 12 12 12 13 13 13 15 16 18 20 22 25 28 30 29 28 28 28 29
5 4 3 3 4 6 10 13 15 17 19 21 21 22 21 21 20 22 24 24 23 23 23 22 21 20 19 18 17 16 15 14 13 13 13 12 13 13 14 14 15 16 18 20 23 24 25 26 28 29 28 27 26 26
3 3 3 3 2 3 8 10 12 15 16 18 19 20 21 21 21 21 22 21 20 19 18 17 17 17 16 15 14 15 14 14 13 14 14 14 14 14 14 16 17 19 21 24 26 27 28 27 26 27 28 29 28 27
5 3 1 1 2 2 2 6 10 14 17 19 20 21 22 21 21 20 19 18 17 17 16 16 16 16 16 15 15 15 15 15 15 15 16 16 16 16 17 18 20 22 24 27 29 30 29 29 28 27 26 27 27 28
7 6 5 3 1 2 4 4 8 10 14 17 19 20 21 20 19 18 18 17 18 18 19 19 19 18 17 17 17 17 17 17 17 18 18 19 19 19 20 22 24 25 27 30 32 33 32 32 31 29 29 29 29 28
8 5 6 5 5 4 5 8 9 12 14 17 19 21 21 21 21 21 21 21 20 20 20 20 20 20 20 19 19 19 19 20 20 20 21 21 22 23 25 26 28 30 32 34 35 35 34 33 32 32 33 32 30 29
10 9 9 7 7 7 7 9 12 14 17 19 22 24 24 24 24 24 24 23 23 22 22 21 21 21 20 20 20 21 22 23 23 23 25 26 26 27 29 31 33 35 37 38 38 38 36 35 35 35 34 32 31 31
12 10 9 9 9 10 10 11 13 15 17 19 21 24 25 26 26 27 25 24 25 25 25 24 24 24 24 25 25 26 27 27 27 27 29 30 31 32 34 36 37 39 40 40 40 39 38 37 36 35 34 33 32 31
16 13 11 9 10 11 12 13 15 16 17 19 22 24 26 28 29 28 27 29 29 29 29 30 29 30 30 30 31 31 32 32 32 33 35 35 36 37 38 39 40 41 41 41 40 40 38 37 36 35 34 32 31 31
18 16 14 12 11 11 12 14 16 17 19 20 21 23 25 29 30 28 30 33 33 33 34 33 34 34 34 35 35 35 36 36 37 38 38 38 39 39 40 41 41 41 41 40 38 38 38 36 34 34 33 32 32 31
20 18 16 14 14 13 13 14 15 17 19 21 22 24 27 27 27 29 31 32 34 35 36 36 37 37 37 38 39 39 39 40 40 39 39 39 40 41 41 41 40 39 39 39 38 36 35 34 33 33 32 31 31 30
23 21 19 17 15 15 15 15 16 17 17 19 21 23 26 27 28 29 30 32 33 34 35 36 36 37 38 38 39 39 39 40 39 39 39 39 39 39 39 38 38 38 37 36 35 34 32 32 32 32 31 30 30 30
25 23 22 19 18 18 17 16 16 17 18 19 19 21 22 24 26 28 29 31 33 34 35 35 36 36 37 38 38 39 39 38 37 37 36 36 36 37 38 37 36 34 33 32 32 31 30 31 31 30 29 29 28 28
26 24 23 22 21 20 19 19 18 19 19 20 21 22 23 24 25 26 27 28 30 30 30 32 32 33 35 35 35 36 35 35 34 33 33 34 34 34 34 33 33 32 31 31 30 30 30 30 29 29 29 29 29 29
29 26 24 23 23 22 21 20 20 20 20 21 22 23 24 25 27 26 24 26 27 29 30 32 33 34 34 34 34 33 33 32 32 32 32 32 31 31 31 30 30 30 30 30 30 30 29 29 28 28 28 28 28 28